GFSGL_prec_cloud_003.txt.gz
Cloud_Cover
0 0 0 2 18 100 74 65 82 31 100 94 100 75 5 15 28 5 5 10 27 24 70 20 57 24 12 3 5 2 7 16 16 5 4 10 0 0 0 0 0 0 0
0 0 0 0 0 67 98 39 50 99 100 100 96 73 54 90 30 5 9 16 55 77 100 92 98 6 85 5 2 0 5 5 28 84 5 0 1 0 10 1 0 0 0
0 0 0 44 99 38 71 96 100 100 100 100 100 100 100 100 100 48 28 59 37 38 100 92 80 77 5 1 98 30 91 100 42 53 0 0 0 0 1 2 10 0 0
0 0 2 62 96 31 15 99 99 100 100 100 100 100 100 100 99 99 69 100 100 98 100 100 100 60 47 91 5 93 100 81 4 4 9 0 1 1 7 28 1 2 0
5 30 93 8 4 53 72 49 100 100 100 100 100 100 100 100 100 100 100 100 100 100 100 100 100 72 100 6 100 100 100 31 49 2 6 6 0 7 0 0 18 25 0
1 5 5 5 10 23 75 5 97 100 100 100 100 100 100 100 100 100 100 100 100 100 100 100 98 100 21 5 97 96 45 99 69 99 4 3 0 3 0 49 23 4 0
0 5 5 26 23 13 5 8 99 100 100 100 100 100 100 100 100 100 100 100 100 100 100 99 100 78 11 79 88 91 65 100 100 12 34 29 27 18 53 64 8 31 38
5 6 41 49 32 66 67 10 29 99 93 99 100 100 100 100 100 100 100 100 100 100 100 100 43 95 100 100 100 100 100 100 32 1 17 23 24 12 6 26 70 84 42
5 31 69 54 95 65 81 17 63 6 71 100 100 100 100 100 99 100 100 100 100 100 100 100 97 100 100 100 97 100 35 78 6 0 0 1 0 0 3 79 78 88 28
13 46 61 61 49 46 69 84 88 49 27 99 100 100 99 100 100 100 100 100 100 100 100 100 100 100 100 100 100 100 94 5 5 5 0 0 3 0 0 75 100 100 91
21 97 93 100 75 36 84 100 46 35 5 13 88 100 100 100 100 100 100 100 100 100 100 100 100 96 84 100 100 95 5 14 5 4 0 1 2 7 32 43 22 100 48
84 100 99 100 100 100 100 67 36 56 48 86 97 96 100 100 100 98 100 96 90 60 99 100 63 99 100 100 79 6 4 5 2 0 0 1 5 5 5 88 100 100 23
96 100 100 100 100 99 68 5 23 26 54 5 70 95 100 100 89 100 100 100 100 100 100 15 7 27 100 90 8 2 3 4 5 5 0 0 0 0 5 35 68 100 100
100 100 100 96 96 85 81 4 6 55 60 100 100 100 100 94 50 81 93 68 86 34 6 5 53 71 4 0 0 1 4 5 3 0 0 3 5 0 14 100 98 98 100
71 100 100 94 77 100 87 100 80 27 30 100 100 100 41 35 6 29 66 5 3 30 5 0 0 0 0 7 9 3 2 5 1 4 5 3 5 2 45 99 100 97 100
100 100 78 38 12 89 84 24 91 100 98 100 100 60 14 11 6 12 5 8 99 13 0 0 0 0 0 6 1 66 59 5 0 0 4 3 66 27 78 90 100 100 99
27 31 8 27 5 99 78 5 62 80 0 6 9 12 100 8 79 71 96 52 0 15 0 0 5 2 0 4 74 81 5 1 0 0 0 1 68 95 99 99 98 99 100
2 24 52 72 63 76 100 100 15 14 86 44 100 9 23 64 100 45 5 0 7 1 5 5 5 5 4 5 38 5 5 3 0 0 0 0 47 75 100 100 100 100 99
100 100 77 48 51 19 9 87 100 57 6 97 68 100 100 83 4 5 7 1 5 5 5 4 5 5 5 5 5 5 5 0 0 0 0 0 16 78 100 100 100 100 100
100 86 64 79 100 100 100 49 9 96 88 100 92 7 4 5 3 5 5 5 10 5 5 5 5 5 5 5 5 0 0 0 0 5 0 0 1 65 100 100 100 100 100
100 100 100 100 100 59 89 74 7 5 26 88 9 4 5 6 5 10 5 5 5 5 2 5 5 5 3 0 0 3 5 0 0 0 0 0 0 12 100 100 100 100 100
96 82 90 100 100 85 91 17 70 80 100 26 15 89 87 100 99 72 5 9 6 5 0 4 2 0 0 0 0 3 5 5 0 0 0 0 0 0 100 100 100 100 100
7 88 97 100 99 77 53 100 100 99 96 99 99 100 100 83 7 47 24 78 6 5 0 0 0 0 0 0 0 0 0 0 0 0 0 0 0 0 75 100 100 92 100
82 97 100 48 69 52 65 97 100 100 100 100 100 97 30 22 92 100 78 22 7 2 0 0 0 0 0 0 0 0 0 0 0 0 0 0 0 0 4 98 90 100 100
5 5 5 4 0 3 5 15 91 100 99 48 10 5 0 8 60 88 0 2 0 0 0 0 0 0 0 0 0 0 0 0 1 43 0 0 0 0 0 73 28 61 98
3 2 0 0 0 0 1 7 93 100 70 53 9 0 0 0 2 0 0 0 2 5 0 0 0 0 0 0 0 0 0 0 0 0 0 0 0 0 0 0 59 21 51

GFSGL_prec_cloud_006.txt.gz
Cloud_Cover
0 0 0 0 2 15 34 100 48 45 15 96 92 20 99 70 86 5 84 97 47 73 98 100 100 100 100 100 100 100 100 96 46 49 52 100 13 23 7 32 37 7 0
0 0 0 0 0 0 69 12 41 6 29 91 100 100 100 100 80 100 98 100 100 100 100 100 100 100 100 100 100 100 100 77 18 96 56 29 4 4 79 19 44 22 14
0 0 0 0 0 4 6 14 44 44 53 87 100 100 100 100 100 22 66 100 100 100 100 100 100 100 100 100 100 100 100 85 79 100 87 90 27 66 99 100 82 3 9
0 0 0 1 0 5 5 10 53 18 2 79 100 100 100 100 100 66 100 100 100 100 100 100 100 100 100 100 100 100 99 51 47 94 100 100 98 100 100 100 100 70 14
0 0 0 9 25 61 43 23 7 38 52 77 100 100 100 100 100 100 100 100 100 100 100 100 100 100 100 100 100 67 74 100 100 100 100 100 99 97 100 98 88 93 21
0 0 0 31 66 36 49 36 5 67 5 99 100 100 100 100 100 100 100 100 100 100 100 100 100 100 100 100 90 68 100 100 100 100 100 100 100 100 100 53 31 18 21
0 0 0 17 31 80 100 93 94 44 5 5 86 98 100 100 100 100 100 100 100 100 100 100 100 100 100 100 100 98 100 100 100 100 100 100 100 73 7 69 26 11 0
0 0 0 10 37 79 100 98 100 51 14 17 0 1 10 8 100 29 30 84 100 100 100 100 100 100 100 100 100 100 100 83 99 66 85 15 9 1 1 1 0 0 11
0 0 86 5 43 99 100 86 97 95 95 49 15 20 85 91 68 80 91 28 79 100 98 100 100 100 100 100 100 100 100 100 100 58 0 3 2 4 1 8 0 84 45
0 0 21 8 56 100 100 91 100 100 82 72 39 83 13 12 24 90 59 98 99 100 100 100 100 100 99 100 100 100 94 24 13 1 0 4 0 0 0 17 75 100 100
0 0 8 24 56 92 100 100 100 100 100 91 74 69 26 78 100 72 19 81 80 92 97 85 100 100 100 100 64 3 49 54 5 3 0 0 0 0 4 76 85 54 38
5 9 85 92 100 92 85 85 100 100 100 100 3 94 49 95 80 46 97 100 93 88 48 35 30 28 5 3 37 0 0 5 4 0 0 0 0 2 0 0 0 0 38
57 100 99 100 100 100 100 100 100 100 98 47 51 99 100 37 36 100 100 100 100 100 23 31 1 0 0 21 4 0 2 5 21 0 0 0 0 0 0 4 5 20 86
26 61 66 92 98 100 100 96 89 100 64 36 76 57 100 100 100 100 52 100 88 8 31 5 4 9 7 13 0 8 3 1 0 0 0 0 0 0 0 5 5 92 96
51 67 100 100 100 94 100 100 100 83 60 37 39 84 100 100 100 25 65 60 87 94 10 5 5 5 5 24 46 22 1 0 0 7 10 2 0 0 1 63 5 80 100
98 73 24 13 26 85 41 20 84 34 100 100 100 49 66 47 94 100 93 80 89 92 65 92 99 10 0 5 24 6 0 0 0 5 2 0 0 0 3 42 20 100 100
5 5 3 1 0 1 12 4 5 32 13 52 10 92 100 91 7 14 97 100 26 47 7 5 0 1 5 5 5 2 0 0 0 0 0 0 0 0 5 67 71 100 100
7 15 1 0 0 1 5 5 5 20 87 90 60 24 23 5 5 5 5 21 10 31 2 5 5 5 5 5 1 0 0 0 0 0 0 0 0 0 4 58 100 100 100
2 0 0 0 2 6 11 5 15 5 5 2 0 11 14 2 5 3 8 6 5 5 4 5 5 5 0 5 2 2 4 0 0 0 0 0 0 0 0 44 100 100 100
0 20 0 3 24 85 91 5 5 4 8 27 2 1 4 5 7 83 17 28 71 32 61 93 30 1 2 5 5 4 1 0 0 0 0 0 0 0 0 39 100 100 98
5 5 6 7 89 36 5 57 5 5 5 5 6 45 24 99 92 100 100 100 100 100 50 5 2 0 0 0 0 0 0 0 0 0 0 0 0 0 0 3 100 50 100
5 5 4 20 51 9 14 5 40 32 6 5 52 88 86 100 100 100 100 100 33 5 5 4 0 0 0 0 0 0 0 0 0 0 0 0 0 0 0 0 92 56 66
4 7 56 82 13 24 5 4 3 12 74 85 76 95 9 90 97 100 89 22 28 5 2 2 0 0 0 0 0 0 0 0 0 0 0 0 0 0 0 0 51 74 95
61 100 31 51 9 2 20 62 91 49 39 98 90 99 95 100 95 65 65 100 83 16 0 0 0 0 0 0 0 0 0 0 0 0 0 0 0 0 0 0 0 26 61
25 24 5 16 19 5 65 4 89 100 100 100 98 100 100 81 96 51 84 100 95 33 3 0 0 0 0 0 0 0 0 0 0 43 0 0 0 0 0 0 0 5 11
4 0 3 1 0 0 0 0 1 4 5 4 18 46 61 88 95 100 100 100 77 48 5 0 0 0 0 0 0 0 0 0 0 0 1 0 0 0 0 0 0 4 5

GFSGL_prec_cloud_009.txt.gz
Cloud_Cover
0 0 0 0 0 0 0 0 0 0 0 0 33 29 64 49 100 100 49 30 100 84 56 82 62 100 100 100 100 100 100 100 100 100 100 100 88 83 87 82 98 100 28
0 0 0 0 0 0 0 0 0 0 0 0 5 8 56 70 94 69 54 36 100 70 93 100 99 100 100 100 100 100 100 100 100 100 100 100 100 91 82 99 83 62 38
0 0 0 0 0 0 0 0 0 0 0 5 10 5 62 72 100 100 100 100 100 99 92 100 100 100 100 100 100 100 100 100 100 100 100 100 99 100 100 53 86 100 100
0 0 0 0 0 0 0 0 0 0 4 5 4 5 86 100 100 100 100 100 100 100 100 100 100 100 100 100 100 100 100 100 100 100 100 100 100 80 100 99 100 100 100
0 0 0 0 0 0 0 0 0 0 2 0 5 66 100 100 100 100 99 72 91 100 91 100 100 100 100 86 100 100 100 100 100 99 100 98 100 97 100 100 100 100 5
0 0 0 0 0 0 0 0 6 9 61 5 5 100 100 83 86 99 100 94 100 95 28 79 98 88 100 100 100 100 100 100 100 100 100 100 100 100 100 100 77 2 0
0 0 0 0 0 0 0 5 23 34 55 11 49 5 89 61 21 53 100 82 5 5 39 100 51 83 100 100 97 100 100 100 100 100 100 100 100 100 100 82 1 5 0
0 0 0 0 0 0 18 39 71 100 100 99 100 25 20 2 7 29 90 9 0 35 100 24 33 58 66 86 99 100 100 100 100 100 93 100 100 10 0 1 0 0 0
0 0 0 0 8 20 56 93 100 93 100 96 63 28 13 91 35 8 72 1 36 96 100 5 68 89 90 97 100 100 100 100 100 51 7 0 0 0 0 0 3 0 0
0 0 0 0 6 11 38 100 98 100 100 100 100 91 100 95 41 5 5 92 100 100 36 96 59 89 22 32 6 31 67 73 8 1 24 9 0 0 2 3 8 97 83
0 2 4 5 37 100 100 87 100 100 100 100 100 99 98 74 17 7 95 73 100 88 39 65 88 100 100 6 10 20 5 12 0 1 3 5 20 35 4 50 54 14 35
8 95 48 58 99 100 96 88 67 78 100 100 95 90 79 13 41 24 69 98 49 56 12 55 77 100 31 77 100 4 3 5 5 4 10 72 14 2 1 1 0 0 0
38 100 100 100 100 100 100 72 87 100 100 62 73 94 67 1 40 98 99 98 89 49 93 100 100 70 57 83 6 5 24 9 16 64 59 1 0 0 0 4 5 0 0
54 96 100 100 100 97 98 100 98 87 71 88 28 34 33 33 57 4 49 87 74 100 95 94 72 33 60 33 4 5 5 12 66 10 0 0 0 0 2 5 5 0 3
99 100 100 100 99 93 94 59 50 99 43 15 96 42 85 8 5 85 80 100 99 59 39 5 5 3 12 37 80 100 100 100 39 2 0 0 0 3 3 0 0 0 54
97 100 100 77 94 64 98 100 97 75 96 75 10 41 11 39 1 23 5 10 5 5 5 18 12 10 24 45 93 100 92 75 35 12 0 0 3 0 0 0 0 0 62
88 100 100 100 35 41 83 81 14 33 4 0 0 0 0 5 0 0 0 0 4 11 47 6 5 29 14 34 32 17 7 3 0 0 0 5 0 0 0 0 0 0 8
99 93 100 100 100 100 98 34 2 0 0 2 16 6 23 0 0 0 4 4 10 30 89 99 100 88 93 80 41 18 1 0 0 0 0 0 0 0 0 0 0 0 24
100 94 81 65 18 28 80 46 5 53 67 5 0 0 9 1 0 4 6 5 41 86 66 100 100 100 71 5 5 1 4 5 4 1 0 0 0 0 0 0 0 0 75
47 89 6 5 71 22 0 0 0 4 9 3 5 0 5 0 0 4 5 81 100 100 100 90 18 5 5 0 0 0 0 0 0 0 0 0 0 0 0 0 0 0 36
67 4 0 2 10 0 0 0 3 42 100 99 86 77 26 3 1 84 100 67 8 8 92 25 27 2 0 0 0 0 0 0 0 0 0 0 0 0 0 0 0 0 36
16 9 0 12 77 37 33 62 95 90 92 99 52 39 25 5 1 98 96 100 100 68 64 19 2 0 3 2 0 0 0 0 0 0 0 0 0 0 0 0 0 0 24
98 10 33 44 89 46 12 99 100 98 100 100 70 58 84 44 20 35 63 100 100 100 80 22 5 0 1 0 0 0 0 0 0 0 0 0 0 0 0 0 0 0 7
100 96 100 99 100 100 100 66 97 36 38 93 65 100 94 100 65 100 100 100 100 33 100 65 22 0 1 0 0 0 0 0 0 0 0 0 0 0 0 0 0 0 5
52 15 8 60 100 64 28 13 93 99 66 13 38 96 98 89 100 100 84 26 8 100 78 100 14 0 0 0 0 0 0 0 0 43 0 0 0 0 0 0 0 0 3
72 96 47 49 82 82 24 33 36 83 90 100 94 100 72 24 51 51 54 36 96 90 100 66 23 4 2 0 0 0 0 0 0 0 0 0 0 0 0 0 0 0 0

GFSGL_prec_cloud_012.txt.gz
Cloud_Cover
0 0 0 0 0 0 0 0 0 0 0 0 0 0 2 4 6 25 8 5 5 5 20 7 28 36 58 92 92 100 100 100 100 100 100 100 100 100 100 100 100 100 15
0 0 0 0 0 0 0 0 0 0 0 0 0 0 2 5 5 6 7 5 5 78 99 99 100 100 100 100 100 100 100 100 100 100 100 100 84 92 100 100 100 84 75
0 0 0 0 0 0 0 0 0 0 0 0 0 0 1 4 87 55 100 93 100 96 100 99 25 41 65 94 85 20 76 100 100 100 100 100 100 100 98 100 99 100 97
0 0 0 0 0 0 0 0 0 0 0 0 0 3 5 10 16 68 66 72 100 91 47 99 5 52 74 28 100 60 92 61 28 100 100 100 100 100 100 100 100 100 100
0 0 0 0 0 0 0 0 0 0 0 0 1 5 62 5 13 5 3 38 65 48 55 99 5 5 16 45 6 33 98 86 25 44 98 100 100 100 100 100 100 100 100
0 0 0 0 0 0 0 0 0 0 0 5 8 39 15 41 5 5 5 2 5 84 100 89 5 59 100 100 27 66 95 35 82 66 100 100 100 100 86 100 100 100 100
0 0 0 0 0 0 0 0 0 0 0 15 11 45 71 54 20 5 0 3 99 100 100 97 5 43 100 100 100 100 84 92 86 31 79 100 100 100 100 100 100 87 47
0 0 0 0 0 0 0 0 0 0 11 44 72 100 100 87 100 56 10 58 100 92 27 42 80 68 100 97 92 98 43 94 64 56 5 32 95 98 76 97 43 2 0
0 0 0 0 1 1 0 0 1 39 73 100 100 100 100 100 100 68 90 92 61 90 100 20 90 98 97 100 100 10 74 100 100 78 5 97 100 97 23 0 2 0 0
0 0 5 1 5 5 0 1 15 100 100 100 100 100 100 95 84 69 49 94 74 74 37 8 56 72 84 94 97 100 56 86 89 100 66 41 13 0 6 47 0 0 0
5 5 5 5 5 3 3 4 100 100 90 68 100 100 51 46 98 55 37 11 7 2 5 33 100 39 84 55 77 60 5 9 7 5 3 1 0 7 100 100 0 0 0
5 5 5 5 5 8 42 99 99 95 98 100 100 90 100 100 68 27 8 15 39 23 16 27 52 49 47 100 72 99 9 24 24 4 0 0 54 100 13 0 0 0 0
1 5 5 5 46 100 78 96 100 100 100 100 86 2 11 32 73 76 45 21 73 46 98 97 25 48 29 99 38 6 27 5 5 1 0 53 17 0 0 0 0 0 0
5 7 85 98 96 97 100 100 100 100 100 100 68 10 5 10 45 0 3 36 80 10 100 38 86 55 97 78 5 5 16 34 5 19 4 0 2 2 3 0 0 0 0
32 96 100 99 100 100 100 99 100 100 100 89 41 11 5 5 5 1 0 0 5 2 7 47 84 5 5 5 42 100 94 100 100 100 20 22 11 1 0 0 0 0 0
71 63 100 100 100 100 95 90 89 82 31 31 9 5 17 40 3 0 0 0 2 0 0 0 0 0 83 100 100 100 100 100 100 82 81 15 0 0 0 0 0 0 0
100 100 100 77 88 99 100 100 90 38 99 54 18 5 3 0 0 0 0 0 0 0 0 0 0 12 9 7 69 70 19 7 12 6 0 0 0 0 0 0 0 0 0
67 28 5 80 100 100 100 100 94 10 57 18 31 4 11 0 0 0 0 0 0 1 0 0 0 0 3 59 93 66 3 0 0 0 0 0 0 0 0 0 0 0 0
44 66 100 100 100 100 100 68 35 64 10 2 5 0 7 0 0 0 2 0 0 0 36 99 45 0 0 3 5 4 1 0 0 0 0 0 0 0 0 0 0 0 0
90 100 100 100 100 100 87 55 39 84 100 99 2 0 0 4 0 0 0 0 0 0 1 8 3 0 2 5 3 0 0 0 0 0 0 0 0 0 0 0 0 0 0
100 100 100 100 100 100 100 99 49 63 27 22 6 76 3 5 5 3 0 0 6 1 7 3 0 4 0 0 0 0 0 0 0 0 0 0 0 0 0 0 0 0 0
100 100 100 100 100 58 39 86 73 54 36 85 48 14 4 4 0 24 94 53 99 14 72 86 0 0 45 4 0 0 0 0 0 0 0 0 0 0 0 0 0 0 0
100 100 100 99 100 94 98 100 100 100 100 100 46 3 0 3 4 94 100 93 19 89 96 100 87 1 0 0 0 0 0 0 0 0 0 0 0 0 0 0 0 0 0
100 100 88 100 97 97 80 100 100 100 67 17 1 17 7 92 91 60 80 96 73 75 99 39 17 98 2 0 0 0 0 0 0 0 0 0 0 0 0 0 0 0 0
100 99 97 100 99 25 99 70 41 99 25 21 58 100 95 5 13 4 0 98 100 100 90 76 69 82 0 0 0 0 0 0 0 0 0 0 0 0 0 0 0 0 0
100 99 81 34 44 97 10 78 88 58 98 100 75 47 30 58 91 10 0 0 10 0 0 0 34 65 0 0 0 0 0 0 0 0 0 0 0 0 0 0 0 0 0

GFSGL_prec_cloud_015.txt.gz
Cloud_Cover
0 0 0 0 0 0 0 0 0 0 0 0 0 0 0 0 0 22 5 5 5 5 5 5 5 31 20 14 32 15 5 5 5 7 12 15 21 23 44 99 100 100 100
0 0 0 0 0 0 0 0 0 0 0 0 0 0 0 0 5 6 4 6 87 77 17 25 22 1 38 5 25 97 100 5 5 5 5 36 100 97 99 99 74 89 100
0 0 0 0 0 0 0 0 0 0 0 0 0 0 0 5 5 5 5 2 5 75 96 50 64 45 100 10 22 95 11 21 72 68 5 5 8 5 8 5 28 11 77
0 0 0 0 0 0 0 0 0 0 0 0 0 0 3 5 5 53 62 22 5 3 5 14 92 100 100 42 22 99 66 92 100 100 98 97 15 6 17 15 15 5 60
0 0 0 0 0 0 0 0 0 0 0 0 0 0 0 5 5 5 39 73 57 4 77 88 95 100 100 23 61 66 87 95 97 100 56 17 5 6 40 71 97 100 100
0 0 0 0 0 0 0 0 0 0 0 5 5 3 0 5 5 46 34 97 5 5 0 53 100 100 100 46 51 100 100 100 100 100 100 100 93 8 5 40 5 63 100
0 0 0 0 0 0 0 0 0 0 0 5 5 3 4 11 29 50 87 89 77 31 6 100 99 93 100 96 85 97 100 100 100 100 100 97 37 44 8 48 99 81 57
0 0 0 0 0 0 0 0 0 5 5 5 2 42 35 100 100 100 100 100 11 0 8 83 97 22 100 92 100 100 100 100 100 80 71 100 46 5 5 5 12 1 1
4 4 3 0 1 0 5 5 5 5 5 14 85 99 100 100 100 100 100 100 94 93 90 98 71 62 100 79 48 100 100 100 100 98 95 98 22 5 1 0 0 4 0
0 0 5 5 5 5 0 5 4 0 76 100 100 100 100 100 100 100 97 100 100 100 36 8 26 100 57 60 100 100 99 84 70 82 76 84 70 5 5 0 0 100 1
0 10 7 5 2 0 0 0 10 73 91 98 100 100 100 100 82 5 45 94 100 100 75 46 84 56 87 100 100 79 28 89 100 100 97 5 66 100 67 58 69 86 0
0 18 8 3 3 13 5 21 72 35 49 100 100 100 100 51 49 43 65 71 62 51 37 2 6 49 100 81 33 19 58 70 100 100 99 94 96 100 9 79 39 50 28
0 13 100 7 2 1 7 11 76 10 37 60 88 100 37 8 30 45 20 1 67 10 0 45 78 60 42 24 76 95 100 8 26 32 64 95 100 100 9 5 5 2 0
65 6 96 93 53 5 5 5 5 12 32 98 94 26 16 13 35 71 95 100 98 3 11 50 29 43 60 6 4 2 0 2 3 80 92 9 6 5 5 5 5 0 0
85 98 100 100 85 80 93 81 12 46 99 16 38 24 32 44 26 23 25 33 34 0 1 58 84 36 0 0 0 0 92 100 91 80 100 100 100 5 0 0 0 0 0
99 100 100 100 100 93 39 92 98 59 27 21 95 100 100 75 33 5 12 6 34 2 0 0 0 0 0 0 0 0 0 1 3 32 58 24 1 0 0 0 0 0 0
100 100 100 100 100 88 100 100 48 75 80 5 100 13 4 71 38 2 5 3 5 6 5 2 0 0 0 5 0 0 13 18 18 2 0 0 0 0 0 0 0 0 0
100 99 100 74 75 100 88 91 90 84 38 100 100 56 100 100 100 100 3 5 29 8 6 0 0 0 0 0 0 0 0 0 0 0 0 0 0 0 0 0 0 0 0
100 92 22 11 70 100 100 100 98 100 100 100 100 100 100 100 98 5 8 53 49 93 11 2 0 0 0 0 0 0 0 0 0 0 0 0 0 0 0 0 0 0 0
84 54 57 71 100 100 100 100 100 100 100 100 100 100 100 100 68 63 100 100 94 25 5 0 0 1 0 0 0 0 0 0 0 0 0 0 0 0 0 0 0 0 0
100 100 100 100 100 100 100 100 100 100 100 100 100 100 100 50 93 100 93 27 5 5 0 0 0 0 0 0 0 0 0 0 0 0 0 0 0 0 0 0 0 0 0
100 100 100 100 87 100 100 96 100 100 100 100 100 74 56 100 98 93 5 3 0 0 58 49 1 0 0 0 0 0 0 0 0 0 0 0 0 0 0 0 0 0 0
100 100 100 100 100 100 100 100 100 99 100 100 27 89 100 100 100 17 5 5 16 75 100 91 74 100 100 0 0 0 0 0 0 0 0 0 0 0 0 0 0 0 0
100 100 100 100 100 94 89 87 99 83 19 90 100 77 100 46 29 5 44 37 48 53 100 100 35 100 98 30 0 0 0 0 0 0 0 0 0 0 0 0 0 0 0
97 14 100 100 100 100 100 100 100 100 60 22 100 97 95 8 56 96 97 4 0 0 100 92 17 3 100 63 2 0 0 0 0 0 0 0 0 0 0 0 0 0 0
99 93 100 100 100 100 100 100 100 95 97 83 53 90 98 100 100 100 47 5 5 2 1 0 0 0 20 0 0 0 0 0 0 0 0 0 0 0 0 0 0 0 0

GFSGL_prec_cloud_018.txt.gz
Cloud_Cover
0 0 0 0 0 0 0 0 0 0 0 0 0 0 0 0 1 5 5 4 5 5 4 0 0 0 2 0 17 4 32 55 6 71 50 67 5 5 5 2 6 60 82
0 0 0 0 0 0 0 0 0 0 0 0 0 0 0 5 5 3 0 5 5 5 3 1 3 0 14 17 80 10 5 5 85 52 35 5 5 5 7 7 8 5 5
0 0 0 0 0 0 0 0 0 0 0 0 0 0 1 2 5 5 0 4 5 5 4 4 0 1 100 84 92 75 5 5 98 58 98 11 13 5 7 28 6 29 76
0 0 0 0 0 0 0 0 0 0 0 0 0 0 2 5 5 5 4 5 5 44 5 5 0 1 78 100 100 80 5 5 42 7 98 96 94 22 56 65 82 96 88
0 0 0 0 0 0 0 0 0 0 0 0 0 4 0 3 5 5 5 100 97 88 86 57 5 4 97 100 63 81 19 85 98 85 100 94 99 34 40 100 100 52 92
0 0 0 0 0 0 0 0 0 0 0 0 0 5 5 5 0 60 100 100 100 67 64 3 0 69 90 58 99 96 100 60 92 100 100 100 100 100 100 100 100 96 5
0 0 0 0 0 0 0 0 7 0 0 0 0 0 0 5 96 100 52 91 35 97 100 2 0 73 93 3 100 5 97 66 100 100 100 100 100 87 100 95 5 42 37
0 0 0 0 0 0 0 0 11 29 0 1 0 0 2 98 100 100 100 100 100 100 100 79 26 77 79 64 5 44 60 59 90 100 100 100 86 82 55 5 48 15 90
0 0 0 0 0 0 0 6 6 19 34 2 0 14 60 100 81 100 100 100 100 100 100 99 92 86 47 51 83 92 10 97 100 100 100 97 70 54 65 64 100 96 30
5 4 1 0 0 12 9 0 0 1 0 2 67 40 92 100 100 100 100 100 100 77 85 22 64 100 72 94 29 99 63 100 100 34 50 75 69 90 100 95 92 100 100
5 6 5 4 0 35 100 6 0 8 34 82 85 92 100 100 100 100 96 70 78 92 91 100 100 98 100 100 52 26 34 97 59 84 100 91 100 18 0 1 5 5 38
23 69 2 0 0 38 99 98 31 39 57 85 79 100 100 100 100 51 3 5 39 99 100 100 81 73 100 85 85 66 76 27 78 44 13 8 0 0 2 4 5 5 10
100 100 98 98 97 10 100 77 83 57 70 95 100 100 100 100 16 55 7 25 98 99 53 52 94 100 100 100 85 59 4 0 0 0 0 0 0 0 0 0 0 0 0
85 14 36 82 81 100 55 57 83 85 84 100 94 91 80 48 40 100 100 98 100 27 36 42 14 9 5 3 7 5 4 0 0 0 0 0 0 0 0 0 0 0 0
93 72 100 100 100 100 100 100 83 100 100 100 100 100 100 47 34 55 100 100 90 59 39 51 5 28 71 88 3 4 0 0 0 0 0 0 0 0 0 0 0 0 0
100 100 100 100 100 100 100 100 100 100 100 100 100 91 82 79 100 100 100 100 93 99 100 100 100 34 5 1 4 0 0 0 0 1 0 0 0 0 0 0 0 0 0
100 100 100 100 87 100 100 100 100 100 100 100 94 27 18 91 98 98 100 100 100 100 100 100 95 25 41 12 2 0 0 0 0 0 0 0 0 0 0 0 0 0 0
100 100 100 100 42 100 100 100 100 100 100 100 34 28 43 60 100 16 76 100 100 100 100 100 7 8 16 5 0 0 0 0 0 0 0 0 0 0 0 0 0 0 0
100 100 100 23 20 66 100 27 57 47 19 65 6 25 92 30 100 100 100 100 100 94 100 60 12 5 2 0 0 0 0 0 0 0 0 0 0 0 0 0 0 0 0
100 100 78 74 7 15 83 44 37 17 19 100 100 98 88 88 100 82 99 98 100 100 100 46 0 0 0 3 4 0 0 0 0 0 0 0 0 0 0 0 0 0 0
100 100 64 47 57 100 57 87 48 47 100 100 100 100 99 87 61 84 80 14 100 100 36 44 5 45 55 73 0 0 0 0 0 0 0 0 0 0 0 0 0 0 0
100 100 100 86 28 63 100 100 100 100 100 100 100 100 97 95 100 100 91 100 99 10 34 5 81 100 64 7 0 0 0 0 0 0 0 0 0 0 0 0 0 0 0
100 100 100 100 97 91 100 91 100 100 100 100 100 100 87 98 100 100 100 100 100 70 60 30 53 100 87 8 0 3 0 0 0 0 0 0 0 0 0 0 0 0 0
99 78 64 95 100 48 97 84 16 18 90 100 100 100 82 90 100 100 100 100 100 74 5 60 99 100 100 3 64 100 19 0 0 0 0 0 0 0 0 0 0 0 0
100 99 100 95 100 100 100 99 86 99 100 90 87 98 100 100 100 100 72 89 56 35 18 97 100 100 70 0 39 100 7 0 0 0 0 0 0 0 0 0 0 0 0
99 100 100 100 100 100 100 100 100 92 100 100 77 99 100 100 54 87 63 80 100 63 100 100 96 22 1 1 20 11 1 0 0 0 0 0 0 0 0 0 0 0 0

GFSGL_prec_cloud_021.txt.gz
Cloud_Cover
0 0 0 0 0 0 0 0 0 0 0 0 0 0 0 0 0 0 0 0 2 4 25 92 6 5 11 4 0 0 14 5 5 5 5 5 5 5 5 5 5 5 5
0 0 0 0 0 0 0 0 0 0 0 0 0 0 0 0 0 0 0 0 5 4 8 68 5 10 18 5 9 0 2 31 5 5 5 5 9 8 5 5 5 79 5
1 0 0 0 0 0 0 0 0 0 0 0 0 0 0 0 0 0 0 0 3 71 100 100 77 16 58 49 88 55 99 81 8 13 89 14 5 6 7 5 6 8 16
51 0 0 0 0 0 0 0 0 0 0 0 0 0 0 0 0 0 0 0 31 100 100 100 100 100 100 32 98 87 55 9 98 34 98 30 64 18 28 76 32 15 92
48 0 0 0 0 0 0 0 0 0 0 0 0 0 0 0 0 0 0 0 6 98 100 100 100 100 100 53 75 70 17 92 35 28 63 93 100 100 100 100 100 100 100
4 0 0 0 0 0 0 0 0 0 0 0 0 0 0 0 0 0 0 2 5 78 100 100 100 100 100 22 98 100 63 33 29 68 5 25 99 100 100 100 100 100 100
0 0 0 0 0 0 0 0 0 0 0 3 0 0 0 0 0 5 27 95 80 100 100 100 100 100 52 18 92 86 37 67 24 87 20 18 86 100 100 100 94 70 96
1 4 3 0 0 0 0 13 20 8 13 32 1 0 0 0 0 4 50 100 100 100 100 100 100 100 90 9 33 63 96 63 30 100 30 100 100 100 100 98 100 39 90
16 0 0 0 14 0 0 13 53 91 26 42 33 0 0 0 19 37 94 100 100 100 100 100 100 100 76 40 95 100 100 35 59 61 42 100 100 25 26 57 40 87 93
94 100 25 86 92 6 0 5 45 94 89 67 36 17 12 7 62 84 100 100 100 100 100 100 100 100 100 100 100 100 86 44 90 45 12 87 5 66 14 11 0 0 0
5 85 100 100 58 42 4 20 47 99 100 100 98 95 38 25 59 95 100 100 100 100 100 100 100 100 100 100 94 37 44 95 30 26 45 15 11 1 0 0 0 0 10
96 84 100 66 100 100 79 43 92 100 100 100 100 100 92 63 49 88 100 100 100 100 100 100 100 100 100 100 100 87 93 8 73 8 2 0 0 0 0 0 0 0 2
48 64 14 12 100 100 69 60 100 95 100 100 100 100 100 100 100 100 100 100 100 100 100 100 100 100 100 100 100 100 47 6 3 0 0 0 0 0 0 0 0 0 0
5 1 1 24 91 100 100 100 100 100 100 100 100 100 100 100 100 100 100 100 100 100 100 98 96 88 91 74 100 88 5 5 0 0 0 0 0 0 0 0 0 0 0
5 20 94 100 100 100 100 100 100 100 100 100 100 100 100 100 100 100 100 100 100 95 100 97 98 69 70 4 5 6 5 5 0 0 0 0 0 0 0 0 0 0 0
84 98 100 97 100 100 100 100 100 100 100 100 100 100 100 100 100 100 100 100 100 100 100 100 97 62 16 6 5 5 44 2 0 4 0 0 0 0 0 0 0 0 0
100 100 100 100 100 100 100 100 100 100 100 100 100 100 100 100 100 100 100 100 100 100 100 100 35 5 5 4 0 3 5 5 5 4 0 0 0 0 0 0 0 0 0
100 100 100 100 100 100 100 100 100 100 100 100 100 100 100 100 100 100 100 100 100 100 100 86 5 5 5 5 3 22 13 0 5 4 0 0 0 0 0 0 0 0 0
100 100 100 100 100 100 100 100 100 100 100 100 100 100 100 100 100 100 100 100 100 100 100 5 5 14 5 2 3 75 59 0 17 6 0 0 0 0 0 0 0 0 0
100 100 100 100 100 100 100 100 100 100 100 100 100 100 100 100 100 100 100 100 100 59 37 3 81 93 5 5 98 47 5 3 7 14 0 0 0 0 0 0 0 0 0
100 100 100 100 100 100 100 100 100 100 100 100 100 100 100 93 100 100 100 56 11 3 2 6 79 25 21 67 11 5 10 31 34 0 0 0 0 0 0 0 0 0 0
100 100 100 100 100 100 100 100 100 100 100 100 100 88 100 89 95 63 100 97 46 3 6 18 35 71 12 92 8 5 5 4 2 0 0 0 0 0 0 0 0 0 0
100 100 100 100 100 100 100 100 100 100 100 100 99 75 61 62 75 8 35 28 34 81 39 95 88 99 65 100 78 29 5 5 4 0 0 0 0 0 0 0 0 0 0
100 100 100 100 100 100 100 100 100 90 92 64 37 78 76 93 37 81 9 5 6 2 100 73 100 88 99 100 96 26 9 16 5 1 0 0 0 0 0 0 0 0 0
100 100 100 100 100 100 100 100 97 98 96 100 100 100 99 93 94 87 27 13 38 98 78 6 5 24 97 32 96 37 55 15 5 5 5 1 1 0 0 0 0 0 0
100 100 100 100 100 100 100 100 100 100 100 100 65 76 98 100 73 57 53 12 32 44 53 5 5 32 5 46 80 98 18 25 5 5 5 5 0 0 0 0 0 0 0

GFSGL_prec_cloud_024.txt.gz
Cloud_Cover
0 5 31 0 0 0 0 0 0 0 0 0 0 0 0 0 0 0 0 0 0 0 0 0 3 27 42 28 77 90 88 69 13 5 12 5 5 5 5 5 5 5 5
42 77 100 99 0 0 0 0 0 0 0 0 0 0 0 0 0 0 0 0 0 0 0 5 10 96 97 99 100 17 77 6 5 17 5 5 5 5 5 5 5 17 92
5 13 99 100 5 0 0 0 0 0 0 0 0 0 0 0 0 0 0 0 0 0 2 5 94 100 100 100 99 95 14 31 5 97 14 5 5 5 25 53 25 36 5
39 36 48 100 92 5 4 0 0 0 0 0 0 0 0 0 0 0 0 0 0 0 1 5 68 100 100 100 100 68 37 57 100 54 90 5 15 29 11 13 94 100 60
0 16 83 50 95 100 61 3 0 0 0 0 0 0 0 0 0 0 0 0 1 1 5 71 97 100 100 100 100 99 34 99 100 19 33 53 32 24 6 12 99 100 100
4 2 3 0 0 0 2 0 0 0 0 0 0 0 0 0 0 0 0 2 5 5 5 42 100 100 100 73 100 58 100 100 100 99 11 52 77 29 46 90 100 100 100
63 18 5 4 0 0 0 0 0 0 0 0 0 0 0 0 0 0 0 6 7 5 5 41 85 100 83 100 100 100 100 100 100 100 100 99 99 100 13 87 100 100 100
100 100 82 90 69 0 5 0 0 0 0 0 1 0 0 0 0 0 5 7 5 5 16 60 100 96 100 100 100 100 100 100 100 100 100 58 80 29 5 4 10 31 32
97 48 67 100 99 5 5 3 0 0 0 0 2 18 0 0 6 2 2 5 14 5 49 100 100 95 100 100 100 100 100 96 100 100 100 90 89 27 12 73 98 98 34
0 12 100 100 100 76 70 73 97 88 60 48 54 13 2 5 57 11 7 16 71 72 100 100 100 96 100 100 100 100 8 56 100 100 65 12 3 10 34 5 1 0 0
5 4 79 100 52 72 100 100 86 100 100 90 91 99 99 66 74 73 100 100 100 100 100 100 100 84 100 97 82 61 34 100 100 57 100 75 30 4 0 0 0 0 0
84 48 6 2 12 18 7 16 99 93 98 92 100 100 100 82 80 99 100 100 100 100 100 100 100 100 63 83 84 52 91 100 100 99 94 66 4 0 0 0 0 0 0
44 14 5 61 77 100 89 24 92 84 87 100 100 100 100 100 100 100 100 100 100 100 100 100 100 100 100 100 100 100 100 100 100 100 100 81 5 0 0 0 0 0 0
34 51 16 2 91 61 39 98 100 100 91 98 100 100 100 100 100 100 100 100 100 100 100 100 100 100 100 100 100 100 100 100 100 100 39 0 4 0 0 0 0 0 0
0 3 10 33 22 15 84 100 100 99 100 100 100 100 100 100 100 100 100 100 100 100 100 100 100 100 100 100 100 100 100 100 100 78 0 0 0 0 0 0 0 0 0
8 0 0 0 0 96 100 100 100 100 100 100 100 100 100 100 100 100 100 100 100 100 100 100 100 100 100 100 100 100 100 100 100 10 0 0 0 0 0 0 0 0 0
40 0 10 36 100 100 100 100 100 100 100 100 100 100 100 100 100 100 100 100 100 100 100 100 100 100 100 100 100 100 100 100 54 1 0 0 0 0 0 0 0 0 0
86 98 92 100 100 100 100 100 100 100 100 100 100 100 100 100 100 100 100 100 100 100 100 100 100 100 100 100 100 100 100 58 6 0 0 0 0 0 0 1 0 0 0
100 100 100 100 100 100 100 100 100 100 100 100 100 100 100 100 100 100 100 100 100 100 100 100 100 100 100 100 100 100 100 11 59 0 0 0 0 3 1 0 0 0 0
100 100 100 100 100 100 100 100 100 100 100 100 100 100 100 100 100 100 100 100 100 100 100 100 100 100 100 100 100 100 32 7 20 1 0 0 0 3 4 4 0 0 0
100 100 80 100 100 100 100 100 100 91 100 100 100 100 100 100 100 100 100 100 100 100 100 100 100 100 100 100 100 94 60 62 28 0 0 0 2 8 5 2 0 0 0
100 80 100 100 100 100 100 100 100 100 100 100 100 100 100 100 100 100 100 100 100 100 100 100 100 100 100 89 97 37 28 76 5 0 0 0 4 5 3 0 0 0 0
100 100 100 100 100 100 100 100 100 100 100 100 100 100 100 89 100 100 100 100 100 100 100 100 100 81 58 6 5 5 11 0 0 0 0 5 5 5 5 5 0 0 0
100 100 100 100 100 100 100 100 100 100 100 100 100 100 100 100 100 100 100 100 100 100 100 100 74 33 37 5 32 90 11 4 2 5 5 6 4 0 0 5 0 0 0
100 100 100 100 100 100 100 100 100 100 100 100 100 100 100 100 100 100 100 100 100 100 96 98 88 33 31 99 100 91 5 5 5 5 5 0 4 2 5 4 0 5 0
100 100 100 100 99 100 100 100 100 100 100 100 100 100 100 100 100 100 100 100 100 100 100 77 61 93 86 87 41 27 6 17 32 5 4 0 4 5 10 0 0 0 2

GFSGL_prec_cloud_027.txt.gz
Cloud_Cover
0 0 0 2 0 0 2 0 0 0 0 0 0 0 0 0 0 0 0 0 0 0 0 0 5 5 5 5 5 0 5 9 63 71 5 90 49 5 9 45 5 5 5
5 5 7 20 6 73 94 80 0 0 0 0 0 0 0 0 0 0 0 0 0 0 0 0 1 4 8 71 63 11 11 2 6 5 88 100 100 97 99 95 5 7 54
1 0 1 4 29 74 92 85 5 5 2 0 0 0 0 0 0 0 0 0 0 0 0 0 5 42 63 68 46 100 51 4 100 100 100 100 77 99 82 46 90 9 16
0 5 9 0 0 6 69 100 94 65 23 3 0 0 0 0 0 0 0 0 0 0 0 6 56 74 38 86 100 53 11 94 83 46 99 93 74 63 74 90 100 83 5
0 0 0 0 0 0 0 5 13 5 1 0 0 0 0 0 0 0 0 0 0 0 5 96 83 10 5 5 70 27 20 100 100 100 92 100 98 100 100 100 88 33 10
0 5 1 0 0 0 0 0 0 0 0 0 0 0 0 0 0 0 0 0 0 5 5 14 8 5 5 5 100 21 95 100 100 99 10 100 100 99 100 100 92 92 13
5 5 4 5 3 3 0 0 0 0 0 0 0 0 0 0 0 0 0 0 0 4 5 3 5 86 35 73 98 65 38 8 73 5 16 99 100 100 100 100 71 6 33
90 5 9 84 100 56 23 2 0 5 5 0 0 0 0 0 0 0 0 0 10 44 5 3 16 70 70 81 97 5 51 100 66 26 5 69 100 100 100 100 43 12 10
0 5 36 85 13 5 5 5 5 13 6 0 0 0 0 0 0 0 0 0 60 12 32 5 79 100 99 100 98 30 71 95 91 52 8 100 100 100 100 93 5 6 2
0 0 13 100 5 5 9 65 17 16 14 93 17 4 1 0 30 0 16 93 87 6 42 59 99 100 100 99 100 86 60 51 52 33 78 100 100 100 100 54 5 5 0
0 0 0 1 1 17 74 98 100 74 100 100 32 3 32 98 54 67 75 100 68 100 100 96 100 100 100 100 100 100 87 16 16 10 76 100 100 100 100 8 23 6 0
0 0 0 0 0 1 2 56 57 100 98 100 100 98 64 100 100 99 100 100 100 100 100 100 100 100 100 100 100 100 84 89 100 51 98 100 100 100 64 93 18 1 0
0 0 0 0 0 0 0 0 21 89 99 100 100 100 100 100 100 100 100 100 100 100 100 100 100 100 100 100 100 100 100 100 100 100 100 100 100 96 100 34 23 0 0
0 0 2 1 5 5 4 48 20 34 92 100 100 100 100 100 100 100 100 100 100 100 100 100 100 100 100 100 100 100 100 100 100 100 100 100 93 100 100 87 61 7 0
0 0 0 0 2 5 0 7 11 1 38 67 9 62 100 100 100 100 100 100 100 100 100 100 100 100 100 100 100 100 100 100 100 100 100 100 100 100 100 74 4 0 0
0 0 0 3 0 0 14 93 100 90 100 100 94 100 100 100 100 100 100 100 100 100 100 100 100 100 100 100 100 100 100 100 100 100 100 100 100 100 100 31 27 0 2
6 1 0 18 0 8 100 100 100 100 100 100 100 100 100 100 100 100 100 100 100 100 100 100 100 100 100 100 100 100 100 100 100 100 100 100 100 100 100 100 5 68 0
32 95 54 96 72 97 100 100 100 100 100 100 100 100 100 100 100 100 100 100 100 100 100 100 100 100 100 100 100 100 100 100 100 100 100 100 100 100 100 53 5 75 3
24 6 54 56 62 100 100 100 100 100 100 100 100 100 100 100 100 100 100 100 100 100 100 100 100 100 100 100 100 100 100 100 100 100 100 100 100 100 100 59 30 15 3
6 83 57 0 64 99 100 100 100 100 100 100 100 100 100 100 100 100 100 100 100 100 100 100 100 100 100 100 100 100 100 100 100 100 100 100 100 100 100 40 20 5 1
5 25 75 46 22 36 8 100 100 100 100 100 100 100 100 100 100 100 100 100 100 100 100 100 100 100 100 100 100 100 100 100 100 100 100 100 18 95 65 40 98 60 4
78 65 94 14 52 84 68 100 100 100 100 100 100 100 100 100 100 100 100 100 100 100 98 100 100 100 100 100 100 100 100 98 79 100 94 8 73 96 11 67 77 2 4
64 98 100 71 52 94 100 100 100 100 100 100 100 100 100 100 100 100 100 100 100 100 100 100 100 100 100 100 100 100 65 55 100 100 100 98 53 44 7 40 82 2 1
45 62 90 100 100 100 100 100 100 100 100 100 100 100 100 100 100 100 100 100 100 100 100 100 100 100 100 100 100 96 89 99 73 94 36 10 7 5 7 58 48 0 5
10 61 99 59 100 78 100 100 100 100 100 100 100 100 100 100 100 100 100 100 100 100 100 100 100 99 100 100 21 5 21 34 65 76 22 70 7 53 12 30 5 5 5
44 100 97 100 100 79 82 100 100 100 100 100 100 100 100 100 97 98 93 98 100 100 100 100 87 95 100 100 98 100 100 100 65 96 93 48 19 17 33 21 6 5 4

GFSGL_prec_cloud_030.txt.gz
Cloud_Cover
0 0 0 0 0 0 0 0 5 76 87 0 0 0 0 0 0 0 0 0 0 0 0 0 0 5 5 5 4 0 52 5 68 17 5 5 13 89 100 73 77 100 7
0 0 0 0 0 0 5 5 30 100 99 13 0 4 5 5 5 2 0 0 0 0 0 0 2 5 5 5 5 5 17 48 29 5 1 5 25 100 100 72 100 55 11
0 0 3 0 0 0 0 0 48 5 4 5 5 5 5 5 4 0 0 0 0 0 0 0 0 5 4 2 77 4 7 9 4 0 5 5 45 100 94 96 100 77 9
0 0 2 26 5 0 0 0 0 2 5 4 14 5 4 0 0 0 0 0 0 0 0 0 0 3 0 5 5 5 4 4 2 0 4 2 1 100 48 93 98 65 100
2 0 0 0 0 0 0 0 0 0 0 0 0 0 0 0 0 0 0 0 0 0 2 0 0 0 68 5 5 5 8 5 5 0 3 4 5 22 22 100 86 42 100
4 4 2 5 5 0 0 0 0 0 0 0 0 0 0 0 0 0 0 0 0 0 0 0 0 45 46 6 6 9 33 13 0 28 54 50 22 5 90 100 72 100 98
0 1 5 3 5 8 2 0 0 0 0 0 0 0 0 0 0 0 0 0 0 0 0 0 2 59 76 5 5 6 5 30 49 5 37 4 95 6 100 98 98 96 86
0 9 54 28 4 47 99 62 8 9 0 5 24 5 0 0 0 0 0 0 0 0 0 1 14 14 14 100 100 6 20 33 15 43 70 79 57 87 98 98 100 100 100
0 5 5 5 0 0 6 100 5 5 4 2 6 22 5 1 2 4 3 6 94 100 4 0 18 71 100 100 100 100 100 100 100 97 100 100 99 71 100 100 100 100 100
0 0 2 0 5 0 4 5 5 0 2 1 0 4 98 100 100 100 5 1 0 5 5 5 94 100 75 89 100 100 100 100 100 100 100 100 100 59 39 100 100 100 100
0 0 0 0 0 0 1 5 5 5 5 5 2 100 100 100 77 99 64 57 66 11 12 59 91 100 100 100 100 100 100 100 100 100 82 100 100 100 100 100 99 100 100
0 0 0 0 0 0 0 0 0 0 0 0 64 35 98 31 86 73 98 65 78 100 99 80 100 100 100 100 100 100 100 100 100 100 100 100 100 100 100 79 74 100 100
0 0 0 0 0 0 0 0 0 0 0 0 0 9 4 0 41 99 100 64 11 100 99 100 100 100 100 100 100 100 100 100 100 100 100 94 100 100 100 100 100 100 100
0 0 0 0 0 0 0 2 0 0 0 0 0 0 0 0 0 62 100 100 68 100 100 96 100 100 100 100 100 100 100 100 100 100 100 100 100 100 100 100 100 100 100
0 0 0 0 0 0 0 0 0 2 1 3 2 1 3 0 23 24 100 98 100 100 100 100 100 100 100 100 100 100 100 100 100 100 100 100 100 100 100 100 100 100 100
0 0 0 0 0 0 0 0 87 62 93 100 92 54 0 11 94 100 100 100 100 100 100 100 100 100 100 100 100 100 100 100 100 100 100 99 100 100 100 100 100 100 100
0 0 0 18 0 0 0 0 0 36 100 100 100 100 100 100 100 100 100 100 100 100 100 100 100 100 100 100 100 100 100 100 100 100 100 100 100 100 100 100 100 100 100
0 84 1 0 0 0 0 2 21 21 82 33 80 100 100 100 100 100 100 100 100 100 100 100 100 100 100 100 81 100 100 100 100 100 100 100 100 100 100 100 100 100 100
0 0 0 0 1 48 83 90 100 100 100 100 100 100 100 100 100 100 100 100 100 100 100 100 100 97 100 100 100 100 100 100 100 100 100 100 100 100 100 100 100 97 23
2 26 39 1 0 0 36 8 59 100 100 100 100 100 100 100 100 100 100 100 100 100 100 100 100 100 100 100 100 100 100 100 100 100 100 89 100 100 78 22 100 74 23
100 100 99 91 5 11 12 0 41 54 51 34 73 100 100 100 100 100 100 100 100 100 100 100 100 100 100 100 100 100 100 100 100 100 95 78 97 38 92 66 98 40 5
44 95 87 6 16 4 50 32 40 25 61 53 64 100 100 100 100 100 100 100 100 100 100 100 100 100 100 100 100 100 100 100 100 100 73 5 24 62 34 60 86 94 97
62 100 67 32 78 22 3 6 73 92 99 100 96 100 100 100 100 100 100 100 100 100 100 100 100 100 100 100 100 100 100 100 100 100 87 63 87 72 96 90 61 85 92
77 87 18 25 40 54 77 89 72 99 100 100 100 100 100 100 100 100 100 100 100 100 100 100 100 100 100 100 100 100 100 100 100 100 100 100 100 100 100 100 47 41 5
99 21 84 100 82 62 53 37 28 79 100 100 100 100 100 100 100 100 100 100 100 100 100 100 100 100 100 100 100 100 100 100 100 100 100 100 100 100 78 94 39 22 96
54 71 10 5 54 93 93 100 100 100 100 100 100 100 100 100 100 100 96 100 100 100 100 100 100 100 100 99 100 99 71 100 76 100 100 100 90 100 45 52 100 65 5

GFSGL_prec_cloud_033.txt.gz
Cloud_Cover
0 0 0 0 0 0 0 0 0 0 0 90 100 85 9 0 0 0 4 2 0 0 0 0 0 0 1 0 0 5 41 5 19 5 16 52 5 1 16 100 89 94 85
0 0 0 0 0 0 0 0 0 4 99 100 8 0 2 77 95 38 5 0 0 1 0 0 0 0 0 0 0 0 5 5 8 29 10 36 5 0 5 100 37 79 89
0 0 0 0 3 0 0 0 0 1 0 0 0 0 0 3 16 4 0 0 0 0 0 0 0 0 0 0 0 5 5 5 5 92 5 11 50 3 7 96 5 65 38
0 0 0 0 0 0 0 0 0 0 0 0 0 0 0 0 0 0 0 0 0 0 0 0 0 0 0 0 0 2 1 4 5 30 14 75 92 15 53 100 50 100 84
0 0 0 0 0 0 0 0 0 0 0 0 0 0 0 0 0 0 0 0 0 0 0 0 0 0 0 0 0 3 1 5 5 5 5 95 18 47 100 100 89 100 28
14 1 0 0 0 5 3 0 0 0 0 0 0 0 0 0 0 0 0 0 0 0 0 0 0 0 0 3 5 5 6 20 4 5 44 12 4 45 21 54 100 25 100
5 97 92 32 8 5 38 5 5 2 0 0 0 0 0 0 4 5 2 2 0 30 58 99 23 99 8 0 0 94 100 85 48 20 96 100 24 22 14 11 7 6 99
3 1 1 31 29 2 5 2 5 5 4 0 0 0 0 0 0 0 2 55 91 98 48 14 4 0 0 0 99 99 78 86 42 38 100 100 100 100 95 34 14 17 100
1 0 0 0 2 5 4 0 5 5 5 5 1 0 0 0 0 6 43 22 75 96 82 18 18 57 43 18 81 100 100 100 100 94 97 100 100 100 100 55 96 77 100
5 2 0 0 0 0 3 0 0 0 3 5 2 0 0 0 0 0 48 100 100 97 8 5 5 93 81 100 100 100 100 100 100 100 100 100 100 100 100 88 71 94 100
2 2 0 0 0 0 0 0 0 0 0 0 0 0 0 0 0 49 74 24 16 5 4 47 62 77 100 100 100 100 100 100 100 100 100 100 100 100 85 94 92 100 100
0 0 0 0 0 0 0 0 0 0 0 0 0 0 0 0 0 10 6 62 5 5 56 97 76 100 36 100 100 100 100 100 100 100 100 100 100 32 97 97 98 100 100
0 0 0 0 0 0 0 0 0 0 0 0 0 0 0 0 0 34 26 5 0 1 5 10 67 79 100 100 100 100 100 100 100 100 100 100 100 96 100 100 100 100 100
0 0 0 0 0 0 0 0 0 0 0 0 0 0 0 0 0 0 1 12 69 42 75 11 57 41 100 100 100 100 100 100 100 100 100 100 100 100 99 100 100 100 100
0 0 0 0 0 0 0 0 0 0 0 0 0 0 0 0 0 0 0 0 9 37 100 100 100 100 100 100 100 100 100 100 100 100 100 100 100 100 100 100 100 100 100
0 0 0 0 0 0 0 0 38 15 26 100 99 56 3 56 23 63 100 93 76 93 100 100 100 100 100 100 100 100 100 100 100 100 100 100 100 100 100 100 100 100 100
0 0 0 0 0 0 0 0 0 33 100 100 100 100 100 97 100 100 100 100 100 88 99 100 100 100 100 100 100 100 100 100 100 100 100 100 100 100 100 100 100 100 100
0 44 1 0 0 0 0 0 0 0 0 29 75 73 94 100 100 100 100 100 100 100 100 100 100 100 100 100 100 100 100 100 100 100 100 100 100 100 100 100 100 100 100
0 0 0 0 0 2 0 0 1 13 37 14 0 31 65 43 70 97 100 100 100 100 100 100 100 100 100 100 100 100 100 100 100 100 100 100 100 100 100 100 100 100 100
1 20 1 0 0 0 0 2 5 15 31 46 18 9 1 3 1 27 94 100 100 100 100 100 100 100 100 100 100 100 100 100 100 100 100 100 100 100 100 100 100 100 100
0 6 45 0 0 0 0 0 0 0 18 22 15 17 100 18 14 36 57 94 100 100 100 100 100 100 100 100 100 100 100 100 100 100 100 100 100 100 100 100 100 100 100
0 0 3 27 9 0 0 0 0 0 4 4 28 44 100 30 49 99 76 86 100 100 100 100 100 100 100 100 100 100 100 100 100 100 100 100 100 100 100 100 100 100 100
30 1 17 51 65 27 42 28 45 98 98 79 56 90 98 33 48 46 40 68 99 100 100 100 100 100 100 100 100 100 100 100 100 100 100 100 100 100 100 100 100 100 100
97 85 99 99 95 100 99 92 95 98 100 100 93 92 98 100 89 40 47 93 100 100 100 100 100 100 100 100 100 100 100 100 100 100 100 100 100 100 100 100 100 100 100
49 99 100 100 100 96 100 96 90 100 100 100 100 100 100 100 100 95 39 95 100 100 100 100 100 100 100 100 100 100 100 100 100 100 100 100 100 100 100 100 100 100 100
100 100 100 100 82 80 62 80 100 100 100 100 100 100 100 100 100 98 90 100 99 100 100 100 100 100 100 100 100 100 100 100 100 100 100 100 100 100 100 100 89 88 100

GFSGL_prec_cloud_036.txt.gz
Cloud_Cover
0 0 5 5 0 0 0 0 0 0 0 0 12 98 17 0 0 5 26 4 5 0 0 0 0 0 0 0 0 0 0 0 4 4 19 68 100 100 84 32 7 5 5
0 5 5 1 0 0 0 0 0 0 0 0 17 87 2 0 0 0 0 5 0 0 0 0 0 0 0 0 0 0 0 0 1 5 0 51 89 100 6 12 85 48 40
0 4 2 0 0 0 0 0 0 0 0 4 5 5 1 0 0 0 0 0 0 0 0 0 0 0 0 0 0 0 0 0 0 1 3 18 87 5 17 6 2 5 85
0 0 0 0 0 0 0 0 0 0 0 0 0 0 0 0 0 0 0 0 0 0 0 0 0 0 0 0 0 0 5 0 0 5 7 41 60 24 93 20 5 2 9
0 0 0 0 0 0 0 0 0 0 0 0 0 0 0 0 0 0 0 0 0 0 0 3 2 0 0 0 0 0 0 0 5 15 26 79 19 89 100 40 20 100 23
0 0 0 0 0 0 0 0 0 0 0 0 0 0 0 0 0 0 3 1 2 2 1 2 0 0 0 3 0 1 0 16 10 14 42 100 90 18 65 100 9 100 28
0 0 0 1 0 0 0 0 4 0 0 2 5 0 0 0 0 0 0 0 0 0 0 0 0 0 5 5 5 67 14 100 100 100 100 100 100 100 100 100 100 16 19
0 0 5 2 5 5 14 46 5 8 5 2 1 5 5 0 0 0 0 0 0 0 9 31 5 17 22 5 5 10 100 100 87 100 100 100 91 100 100 100 97 89 85
1 2 5 1 0 0 1 1 4 3 1 1 2 4 5 4 1 0 0 0 0 0 2 4 4 3 12 88 20 36 100 96 100 100 100 100 100 83 100 100 86 45 99
0 2 5 5 0 0 0 0 0 10 3 0 0 1 0 2 5 5 5 5 0 2 5 2 4 5 80 100 63 16 100 100 99 100 100 100 100 100 100 100 100 100 100
5 5 5 30 33 5 0 0 0 0 1 7 3 0 0 0 0 0 0 0 0 0 2 0 2 3 3 10 70 35 100 100 100 100 100 98 100 100 100 100 100 100 100
2 2 5 5 5 5 4 0 0 0 1 0 2 0 0 0 8 7 14 50 4 62 5 5 4 56 2 1 22 5 100 100 100 100 100 100 100 100 100 100 100 100 100
0 0 0 0 0 0 0 0 0 0 0 0 2 8 8 1 7 28 32 35 57 100 90 47 42 79 8 57 0 4 69 100 100 100 100 100 100 100 100 100 100 100 100
0 0 0 0 0 0 0 0 0 0 1 0 28 26 1 2 1 0 2 17 56 43 22 36 100 84 48 100 91 31 34 100 100 100 100 100 100 100 100 100 100 100 100
0 0 0 0 0 0 0 0 5 0 0 8 5 0 0 2 28 49 32 12 1 0 0 0 20 70 100 49 42 71 79 100 100 100 100 100 100 100 100 100 100 100 100
0 0 0 0 0 0 0 0 6 54 93 100 100 80 55 79 100 100 100 44 68 28 6 61 74 93 67 41 76 52 100 100 100 100 100 100 100 100 100 100 100 100 100
0 0 0 0 18 0 0 0 0 64 100 100 100 100 100 97 100 100 100 100 75 77 65 72 49 91 100 100 99 73 100 100 100 100 100 100 100 100 100 100 100 100 100
0 4 0 0 0 5 2 0 0 1 0 5 73 60 96 100 100 100 100 99 84 82 45 92 93 100 100 100 100 100 100 100 100 100 100 100 100 100 100 100 100 100 100
0 0 0 0 0 0 0 0 0 0 0 0 0 0 3 2 29 100 100 100 100 99 100 100 100 100 100 100 100 100 100 100 100 100 100 100 100 100 100 100 100 100 100
0 0 0 0 0 0 0 0 0 0 0 0 0 0 0 4 0 0 0 36 83 58 89 89 87 100 100 100 100 100 100 100 100 100 100 100 100 100 100 100 100 100 100
0 0 0 0 0 0 0 0 0 0 0 0 1 17 100 2 11 48 28 0 13 68 30 49 97 77 100 100 100 100 100 100 100 100 100 100 100 100 100 100 100 100 100
68 82 85 39 0 24 30 0 2 2 0 2 53 25 100 33 72 46 36 26 15 2 13 14 26 100 100 100 100 100 100 100 100 100 100 100 100 100 100 100 100 100 100
59 85 60 30 50 60 3 32 81 96 100 100 99 93 59 16 56 67 37 7 4 2 4 99 44 72 84 100 100 100 100 100 100 100 100 100 100 100 100 100 100 100 100
44 32 57 99 91 15 80 81 100 100 100 99 88 71 35 40 30 12 27 22 47 15 1 8 76 71 78 100 100 100 100 100 100 100 100 100 100 100 100 100 100 100 100
93 98 100 77 27 47 63 100 100 100 100 100 100 97 79 68 61 24 4 14 17 21 13 56 96 29 88 100 100 100 100 100 100 100 100 100 100 100 100 100 100 100 100
96 92 88 92 28 46 100 100 100 95 100 100 100 100 100 100 100 100 96 87 22 11 60 99 49 22 77 98 100 100 100 100 100 100 100 100 100 100 100 100 100 100 100

GFSGL_prec_cloud_039.txt.gz
Cloud_Cover
0 0 0 0 0 0 0 0 0 0 0 0 0 0 88 54 2 0 0 0 0 0 0 0 0 0 0 0 0 0 0 0 0 0 0 0 2 4 9 14 98 100 100
0 0 0 0 0 0 0 0 0 0 0 0 0 0 0 5 0 0 0 0 0 0 0 0 0 0 0 0 0 0 0 0 0 0 0 0 0 59 18 40 78 86 100
0 0 0 0 8 0 0 0 0 0 0 0 0 0 0 0 0 0 0 0 0 0 0 0 0 0 0 0 0 0 0 0 0 0 0 1 1 5 99 46 87 81 93
0 0 0 0 0 4 1 0 0 0 0 0 0 0 0 0 0 0 0 0 0 0 0 0 0 0 0 0 0 0 0 0 0 5 42 49 98 36 79 67 81 100 100
0 0 0 0 5 4 0 0 0 0 0 0 0 0 0 0 0 0 0 0 0 0 0 0 0 0 0 0 0 0 5 5 2 98 100 100 98 100 100 100 100 100 100
0 0 0 0 0 0 0 0 0 0 0 0 0 0 0 0 2 0 0 0 0 0 0 0 0 0 0 0 1 15 91 4 99 100 100 100 59 5 65 81 100 100 100
0 0 0 0 0 0 0 0 0 0 0 0 0 0 0 4 3 0 0 0 0 0 0 0 0 0 2 3 5 3 45 0 100 100 100 100 98 89 74 100 85 100 97
0 0 0 0 0 0 0 0 0 0 0 0 0 2 5 5 1 0 0 0 0 0 0 0 0 5 26 9 5 5 16 65 100 100 100 100 100 100 100 99 90 86 53
0 0 0 5 5 5 5 4 5 5 5 5 5 2 1 4 5 5 4 4 4 4 4 0 0 5 25 72 16 22 40 76 100 100 95 100 100 51 67 85 80 75 100
5 8 34 17 5 5 2 3 0 0 1 5 5 3 0 0 0 0 10 5 5 5 5 5 0 0 0 2 5 1 0 4 9 100 100 100 100 98 16 74 100 100 100
0 5 15 5 5 5 4 4 2 2 0 0 0 1 5 0 0 22 6 0 0 2 0 0 1 5 9 50 27 8 3 28 5 48 100 100 42 91 74 95 100 100 100
4 5 4 4 5 4 5 5 5 5 4 1 4 10 1 0 41 42 50 66 41 56 12 11 39 18 0 2 30 3 35 83 66 30 100 100 55 92 92 100 98 100 100
0 0 5 5 1 2 5 5 5 5 5 5 12 17 29 22 13 74 70 57 67 85 55 10 8 70 100 100 100 99 94 55 100 100 100 96 100 66 89 100 100 100 100
0 0 0 0 0 0 0 2 1 0 0 6 11 0 0 3 0 24 11 35 70 41 0 0 3 2 42 86 82 57 96 100 100 96 99 100 100 100 100 100 100 100 100
0 0 0 0 2 0 0 0 0 0 0 0 8 9 6 6 20 60 53 52 11 35 77 65 19 28 31 29 44 39 21 100 100 100 100 100 100 100 100 100 100 100 100
0 0 0 0 0 0 0 6 99 79 98 100 92 76 94 99 100 100 100 100 100 100 67 25 15 42 86 96 80 99 98 100 100 100 100 100 100 100 100 100 100 100 100
0 0 0 0 0 0 0 0 20 100 100 100 75 83 79 100 100 100 100 100 100 83 12 4 20 22 68 89 100 100 100 100 100 100 100 100 100 100 100 100 100 100 100
59 30 0 0 0 0 0 0 7 28 24 7 75 14 98 100 100 100 100 86 10 60 74 47 70 86 97 100 100 100 100 74 89 95 100 100 100 100 100 100 100 100 100
100 100 54 0 0 0 1 12 6 37 8 0 9 32 43 56 100 100 100 36 99 96 92 58 23 38 47 50 32 65 81 100 100 100 93 100 100 100 100 100 100 100 100
67 32 70 3 1 1 3 7 5 5 0 0 0 0 0 4 1 0 0 0 4 14 24 44 73 99 100 100 91 71 52 64 100 100 100 100 100 100 100 100 100 100 100
0 0 0 0 0 0 0 0 0 0 0 0 0 18 100 0 0 0 0 0 7 25 32 37 30 24 29 36 43 100 100 100 100 100 100 100 100 100 100 100 100 100 100
28 14 8 5 5 2 0 0 0 0 0 0 0 10 100 13 0 0 0 0 0 0 11 26 54 37 85 97 71 66 97 91 99 100 100 100 100 100 100 100 100 100 100
100 18 81 0 0 0 2 34 40 75 90 96 80 41 90 80 48 25 18 42 61 41 13 24 28 36 96 90 60 13 21 47 49 75 100 100 100 100 100 100 100 100 100
100 100 100 100 29 62 99 100 100 100 100 100 99 87 84 97 100 99 100 33 14 92 34 24 13 4 22 100 100 91 4 3 20 4 36 100 58 83 100 100 100 100 100
40 100 100 100 100 98 100 100 100 100 100 100 100 100 100 100 100 98 58 36 52 36 68 77 98 92 26 4 38 0 44 8 16 14 21 31 73 100 100 100 100 100 100
100 61 100 100 87 100 93 99 100 100 100 100 100 100 100 100 100 89 67 56 35 26 29 41 19 24 90 91 58 9 8 18 100 100 93 82 99 100 100 100 100 100 100

GFSGL_prec_cloud_042.txt.gz
Cloud_Cover
0 0 0 0 0 0 0 0 0 0 0 0 0 0 0 0 70 5 0 0 0 0 0 0 0 0 0 0 0 0 0 0 0 0 0 0 0 0 0 47 22 17 100
0 0 0 0 0 0 0 0 0 0 0 0 0 0 0 0 0 1 0 0 0 0 0 0 0 0 0 0 0 0 0 0 0 0 0 0 0 0 0 7 79 61 62
0 0 0 0 0 0 0 0 0 0 0 0 0 0 0 0 0 0 0 0 0 0 0 0 0 0 0 0 0 0 0 0 1 5 14 58 100 92 90 90 74 33 95
0 0 0 0 0 0 0 0 1 5 0 0 0 0 0 0 0 0 0 0 0 0 0 0 0 0 0 0 0 0 0 4 5 5 92 93 50 25 44 19 72 98 100
0 0 0 0 0 0 0 0 0 5 2 0 0 0 0 0 0 0 0 0 2 0 0 0 0 0 0 0 0 0 0 0 1 89 100 100 100 100 52 5 76 5 58
0 0 0 0 0 0 0 0 1 5 4 0 0 0 0 0 0 0 0 4 0 0 0 0 0 0 0 0 0 0 0 0 0 0 100 100 97 100 64 3 12 47 100
0 0 0 0 0 0 0 2 5 5 0 0 0 0 0 0 0 0 3 5 0 0 0 0 1 5 4 10 5 2 4 5 5 48 32 98 98 96 34 5 94 96 97
0 0 0 0 0 0 0 0 1 0 1 0 0 0 0 0 1 7 21 0 0 0 0 0 0 0 2 45 56 69 85 16 43 11 4 14 97 100 68 76 81 46 100
0 0 1 5 5 4 5 5 2 0 0 0 0 4 9 19 34 5 0 0 0 0 5 5 3 5 4 5 4 4 10 1 22 97 31 38 58 100 100 89 30 29 100
4 2 1 40 93 18 37 5 4 0 0 0 5 5 5 5 0 0 16 0 0 0 0 1 2 3 7 8 10 16 8 27 15 5 40 19 9 98 97 49 64 92 20
88 13 5 5 100 100 100 41 2 4 0 3 5 0 0 0 3 22 16 0 0 19 3 0 0 0 12 60 89 96 60 9 26 81 68 91 88 24 5 27 31 75 92
8 88 99 100 100 92 100 100 84 5 54 26 4 1 0 0 49 62 36 62 17 90 84 71 68 66 84 95 100 90 96 98 100 100 100 100 100 100 100 99 100 100 100
11 9 7 84 84 87 78 11 5 5 16 5 5 14 5 4 1 84 86 40 41 41 17 10 10 2 10 55 100 100 95 100 100 100 100 100 100 100 100 99 100 100 100
0 0 0 0 0 2 4 3 2 3 2 0 32 14 5 3 0 21 51 88 88 68 33 16 8 39 97 95 97 98 99 98 97 100 91 100 100 100 100 100 100 100 100
0 0 0 0 12 0 42 36 2 0 1 2 1 0 3 11 37 79 52 30 52 67 94 90 60 48 57 56 56 56 70 96 98 98 100 100 100 100 100 100 100 100 100
0 0 3 2 17 9 39 100 98 82 70 98 96 52 23 79 100 100 100 100 100 100 100 69 37 51 45 40 38 33 54 56 56 63 86 100 100 100 100 100 100 100 100
0 0 0 30 14 14 6 21 87 66 96 51 8 86 51 14 48 100 100 100 100 85 49 55 51 48 60 71 79 67 79 56 96 100 87 100 100 67 100 100 100 100 100
0 0 0 0 0 7 28 42 5 0 4 1 62 100 99 100 100 100 100 93 48 52 51 19 17 21 30 81 88 94 73 45 18 6 26 43 52 100 76 100 100 100 100
0 0 0 24 1 24 33 52 38 99 100 100 82 60 92 100 100 100 100 25 89 52 86 9 19 43 95 100 100 100 100 100 100 100 100 100 89 67 98 100 100 100 100
6 61 97 97 100 98 63 34 92 100 100 100 100 100 100 61 19 5 50 11 2 0 12 27 32 55 42 57 71 97 86 88 100 95 100 100 100 100 100 100 100 100 100
74 100 99 98 100 100 100 95 100 100 100 100 88 99 100 89 42 8 10 9 9 10 18 30 38 45 83 57 99 100 100 64 100 100 98 84 100 100 100 100 100 100 100
21 57 0 4 3 7 55 65 86 63 61 60 58 76 100 59 63 70 70 85 82 67 32 34 46 54 62 99 98 92 87 98 100 100 76 34 38 73 80 100 100 100 100
53 26 27 7 17 29 50 67 80 90 98 92 65 95 98 100 100 100 100 100 91 100 100 100 99 95 76 100 100 100 92 82 74 93 100 89 99 100 96 91 88 100 100
0 45 25 64 27 31 63 85 98 100 100 100 100 100 98 100 100 91 64 46 24 30 97 100 100 100 100 100 100 100 100 100 42 11 22 70 78 71 22 7 8 22 71
6 44 98 25 64 61 70 100 100 100 100 100 100 100 97 95 100 100 64 57 72 97 90 67 53 70 46 100 100 5 3 53 65 0 0 10 18 8 7 5 5 5 5
100 100 100 100 100 88 79 100 100 100 100 100 100 100 100 100 100 100 100 97 92 87 94 100 100 100 72 96 80 7 0 2 11 6 51 90 69 73 54 28 15 44 42

GFSGL_prec_cloud_045.txt.gz
Cloud_Cover
0 0 0 0 0 0 0 0 0 0 0 0 0 0 0 0 0 0 1 4 3 0 0 1 0 0 0 0 0 0 0 0 0 0 0 1 5 24 82 3 1 83 59
0 0 0 0 0 0 0 0 0 0 0 0 0 0 0 0 0 0 0 0 0 2 0 6 0 0 0 0 0 0 0 0 0 3 0 2 24 99 100 100 77 69 100
0 0 0 0 0 0 0 0 0 0 0 0 0 0 0 0 0 0 0 0 0 0 0 0 0 0 0 4 1 0 0 0 0 0 5 53 96 28 56 79 94 100 93
0 0 0 0 0 0 0 0 0 0 0 0 2 0 0 0 0 0 0 0 0 0 0 0 0 0 0 0 0 0 0 0 0 0 0 1 100 92 98 44 97 92 60
0 0 0 0 0 0 0 0 0 0 0 4 5 5 0 0 0 0 0 0 0 0 2 2 0 0 0 0 0 0 0 0 0 0 0 6 100 100 94 24 41 84 100
0 0 0 0 0 0 0 0 0 0 0 0 0 1 0 0 0 0 0 0 0 0 5 0 0 0 0 0 0 0 0 0 0 0 0 0 48 100 100 99 32 14 100
0 0 0 0 0 0 0 0 0 0 0 0 0 4 1 0 0 0 0 0 3 5 0 0 0 0 0 3 4 5 5 5 5 5 1 4 2 45 39 95 100 22 66
0 0 0 0 0 0 0 8 23 0 0 0 0 2 1 0 0 0 0 45 65 0 0 0 0 0 0 0 0 0 4 5 5 5 4 24 7 11 5 6 88 68 100
0 0 0 3 5 0 0 0 0 19 15 0 2 5 0 0 0 55 40 3 0 0 0 0 2 4 4 4 5 0 5 15 100 95 8 0 4 5 5 5 24 65 70
1 2 0 8 5 4 4 5 5 0 4 0 8 1 0 0 9 26 20 3 0 2 4 5 5 2 35 89 32 51 51 33 91 84 30 5 0 3 37 100 100 100 100
6 0 1 72 88 99 30 38 5 0 0 0 5 2 0 5 46 70 10 0 0 0 0 0 1 0 5 23 59 93 94 66 99 100 100 100 100 100 100 100 100 100 100
12 0 5 4 63 47 22 14 8 5 1 5 1 5 3 5 23 62 18 62 0 0 0 1 0 0 48 100 100 98 100 100 100 100 100 100 100 100 100 100 69 41 66
5 3 11 2 3 84 93 94 5 5 17 7 12 100 100 93 6 77 54 30 34 10 1 6 2 46 96 98 98 98 100 100 100 100 100 100 100 69 98 99 100 100 97
54 92 100 100 96 69 58 34 100 94 77 98 93 54 25 51 9 17 71 69 81 96 70 27 75 88 100 100 100 100 60 64 79 100 100 100 100 100 100 100 100 100 100
0 0 1 40 96 100 100 100 98 74 40 5 5 8 5 21 14 59 46 47 53 100 100 100 90 100 100 100 59 60 64 97 100 78 84 91 87 85 90 96 100 100 100
0 0 4 1 18 38 100 100 100 99 96 100 98 58 99 85 100 100 100 100 100 100 100 100 100 100 100 100 60 44 45 84 84 78 84 80 73 65 69 74 54 96 100
0 0 0 32 32 77 89 100 21 38 60 93 87 52 28 98 100 100 100 100 100 100 100 100 100 100 38 18 32 32 69 78 62 100 99 84 63 78 99 100 100 100 100
0 8 0 0 11 51 55 42 0 0 0 3 69 54 95 92 85 100 100 100 100 100 100 96 57 10 28 88 100 100 100 98 98 100 100 98 100 100 100 100 100 100 59
0 0 0 17 44 55 79 88 44 65 76 82 63 100 100 100 100 100 100 100 100 100 83 4 14 85 100 96 95 100 100 83 100 100 97 100 100 100 100 100 94 97 55
0 1 3 10 20 80 100 100 100 100 100 100 100 100 100 100 100 100 100 75 18 9 15 24 27 38 46 89 98 84 100 100 100 100 91 98 82 100 100 100 100 96 100
0 0 0 0 5 58 99 100 100 100 100 100 100 100 100 100 100 91 100 100 100 100 100 100 90 100 100 100 100 100 100 100 100 100 73 99 53 19 40 97 60 100 100
0 0 0 21 35 49 37 74 94 100 100 100 100 100 100 100 100 100 100 100 100 100 100 100 100 100 100 100 100 100 99 99 75 100 100 100 100 91 100 79 95 100 72
0 0 17 43 73 88 99 100 100 100 100 100 100 100 100 100 100 96 100 94 100 100 100 100 100 100 100 100 100 100 100 100 99 82 100 100 100 100 100 100 100 100 100
0 9 52 73 69 98 100 100 100 100 92 100 100 100 100 100 100 100 100 100 100 100 100 100 91 56 100 99 100 100 97 59 98 55 39 99 100 100 99 43 33 12 8
35 51 69 85 100 100 100 100 100 100 100 97 90 100 100 100 100 100 100 100 100 100 100 100 100 100 98 81 67 60 43 0 0 43 11 19 61 52 83 45 7 6 5
100 100 100 100 100 100 100 100 100 100 100 100 100 100 100 97 96 100 100 99 98 98 100 92 85 77 91 100 100 100 100 70 100 100 100 100 100 100 90 100 100 100 100

GFSGL_prec_cloud_048.txt.gz
Cloud_Cover
0 0 0 0 0 0 0 0 0 0 0 0 0 0 0 0 0 0 0 0 3 1 0 0 0 0 0 0 0 0 0 0 0 0 0 0 6 20 8 90 100 100 100
0 0 0 0 0 0 0 0 0 0 0 0 0 0 0 0 0 0 0 0 0 0 0 0 0 0 0 0 0 0 0 0 0 0 0 0 10 100 100 68 90 78 100
0 0 0 0 0 0 0 0 0 0 0 0 0 0 0 0 0 1 0 0 0 0 0 0 0 0 0 0 0 0 0 0 0 0 0 0 3 5 5 5 85 100 100
0 0 0 0 0 0 0 0 0 0 0 0 0 0 0 0 5 5 5 0 0 0 0 0 0 5 0 0 0 0 0 0 0 0 0 0 3 0 5 2 15 75 100
0 0 0 0 0 0 0 0 0 0 0 0 0 0 0 2 5 7 5 5 0 0 0 0 4 0 0 0 0 0 0 0 0 0 0 0 5 5 8 5 5 5 24
0 0 0 0 0 0 0 0 0 0 0 0 0 0 0 0 5 0 5 0 0 0 0 1 3 0 3 1 0 0 0 5 5 5 6 4 26 48 64 5 5 3 4
0 0 0 0 0 0 0 0 0 0 0 0 0 0 0 0 0 1 0 0 0 0 0 5 0 0 1 0 32 12 5 0 0 1 1 4 5 5 0 0 9 100 80
0 0 0 0 0 0 0 0 0 0 0 0 0 0 0 0 0 0 5 0 0 0 2 2 0 0 0 1 0 2 5 5 6 5 1 4 2 3 0 4 90 100 100
0 0 0 0 0 0 0 0 0 0 0 0 0 0 0 0 0 0 6 0 0 5 5 0 0 1 5 5 4 5 7 99 76 71 61 3 2 0 7 94 100 100 100
0 0 0 0 0 0 0 0 0 13 1 0 3 5 1 0 6 5 25 0 0 5 5 0 0 5 5 5 1 0 19 33 28 0 9 19 22 34 72 100 100 100 100
0 0 0 0 4 5 3 4 0 2 22 43 30 4 5 5 3 4 30 4 1 8 16 2 0 1 13 31 31 25 30 84 98 100 100 100 100 100 100 90 71 98 100
5 3 0 0 5 85 86 5 5 5 14 20 28 40 29 14 34 41 10 64 1 5 2 4 3 0 25 44 93 100 100 100 100 100 100 100 100 100 100 100 100 100 100
50 60 50 1 2 5 58 5 6 23 5 24 38 37 22 6 22 73 60 24 23 22 9 0 5 49 55 85 100 100 100 100 100 100 100 100 100 94 90 91 54 87 97
70 100 100 100 2 2 85 9 39 54 40 7 45 8 5 98 100 92 76 85 88 66 25 12 40 98 100 100 100 100 100 100 100 100 100 100 100 100 64 54 44 9 45
81 47 90 96 28 0 58 71 76 99 70 31 36 16 28 63 33 60 43 29 38 59 73 97 100 100 100 100 100 100 100 100 100 100 100 97 66 26 29 4 34 30 78
5 5 7 14 15 29 62 69 99 98 100 100 99 55 80 79 100 100 100 100 100 100 100 100 100 100 100 100 100 100 54 23 36 83 95 100 100 100 99 43 46 94 94
5 5 11 19 46 100 100 100 97 99 100 100 100 100 100 100 100 100 100 100 100 100 100 99 100 100 100 100 59 27 23 11 13 69 99 100 100 100 100 100 100 100 100
0 71 1 0 0 93 100 100 50 13 80 100 100 99 93 100 100 100 100 70 98 88 98 100 100 99 55 9 10 4 13 93 100 100 100 72 100 100 100 100 86 84 99
5 0 0 17 53 82 100 98 47 9 2 30 69 96 100 100 100 100 100 100 100 100 100 100 98 53 27 95 97 100 100 100 100 100 100 100 100 100 86 45 51 83 81
0 26 31 21 100 100 100 100 52 29 9 10 12 28 47 48 100 100 100 100 100 100 100 53 57 62 89 90 99 100 100 100 100 100 100 98 99 94 67 54 31 54 100
0 0 10 7 84 100 100 100 100 93 69 87 100 100 100 100 100 100 100 100 100 100 100 100 100 100 100 100 100 100 100 100 90 100 100 100 100 100 99 73 100 58 62
0 0 0 13 47 98 100 100 100 96 100 100 100 100 100 100 100 100 100 100 100 100 100 100 100 100 100 100 100 100 100 100 100 100 100 97 93 100 100 100 98 96 100
5 5 23 65 89 99 100 100 100 100 100 100 100 100 100 100 100 100 100 100 100 100 100 100 100 100 100 100 100 100 97 89 38 89 99 100 100 100 94 64 88 100 100
63 99 82 100 100 100 100 100 100 100 95 100 100 100 100 100 100 100 100 100 100 100 100 100 100 100 91 88 62 30 42 54 33 0 29 63 78 99 97 58 37 54 63
70 100 100 100 100 100 100 100 100 100 100 100 100 100 100 100 100 100 100 100 100 100 100 100 100 98 99 98 76 76 100 100 74 45 0 2 2 4 8 28 67 13 5
100 100 100 100 100 100 100 100 100 100 100 100 100 100 100 100 100 100 84 66 40 24 16 11 0 2 12 12 11 44 79 87 55 91 16 2 4 34 100 92 96 5 23

GFSGL_prec_cloud_051.txt.gz
Cloud_Cover
0 0 0 0 0 0 0 0 0 0 0 0 0 0 0 0 0 0 0 0 0 0 0 0 0 0 0 0 0 0 0 0 0 0 0 0 0 0 8 81 100 75 48
0 0 0 0 0 0 0 0 0 0 0 0 0 0 0 0 0 0 0 0 0 0 0 0 0 0 0 0 0 0 0 0 0 0 0 0 0 0 0 5 35 93 22
0 0 0 0 0 0 0 0 0 0 0 0 0 0 0 2 2 1 0 0 7 5 0 0 0 0 0 0 0 0 0 0 0 0 0 0 4 0 5 4 2 5 5
0 0 0 0 0 0 0 0 0 0 0 0 0 0 0 5 5 4 4 20 64 5 5 0 0 0 0 0 0 0 0 0 0 0 0 0 5 5 39 12 5 4 5
0 0 0 0 0 0 0 0 0 0 0 0 0 0 0 0 0 4 5 29 14 5 2 0 0 0 2 0 0 0 0 0 0 0 3 1 4 4 5 5 2 4 2
0 0 0 0 0 0 0 0 0 0 0 0 0 0 0 0 5 5 5 5 5 4 5 0 0 0 8 1 0 0 0 0 5 0 0 1 5 5 4 1 5 24 5
0 0 0 0 0 0 0 0 0 0 0 0 0 0 0 0 0 0 5 5 5 0 2 0 0 0 4 0 14 28 32 8 0 1 4 4 0 4 4 54 80 78 53
0 0 0 0 0 0 0 0 0 0 0 0 0 0 0 0 0 0 1 0 0 0 0 0 0 0 3 0 0 0 2 5 6 8 0 3 1 0 16 60 76 99 100
0 0 0 0 0 0 0 0 0 0 0 0 5 5 4 3 5 4 6 0 0 2 5 0 0 0 5 2 0 0 4 5 5 3 3 0 0 5 25 71 99 100 100
0 0 0 0 0 0 0 0 0 0 0 0 0 0 3 2 8 0 39 2 0 5 64 5 0 2 4 5 1 0 0 5 5 16 70 67 65 8 27 99 100 100 100
0 0 0 0 0 0 0 0 0 1 0 3 0 0 0 0 0 31 26 5 0 4 83 18 0 0 16 36 53 0 0 16 42 72 85 59 98 99 100 100 90 100 100
0 0 0 0 0 0 0 0 0 5 20 20 24 14 4 21 28 66 40 75 6 5 0 1 2 4 32 45 52 5 19 95 82 70 99 100 100 100 100 96 97 51 100
0 0 0 0 0 0 2 8 15 16 0 9 2 0 0 5 11 71 64 33 60 13 20 18 6 34 59 69 85 75 96 92 100 100 100 98 100 100 100 86 23 3 0
5 5 0 0 0 0 0 5 5 5 5 5 5 5 5 5 5 4 3 35 70 44 98 9 22 74 97 81 57 73 100 100 100 100 100 92 99 79 3 5 0 0 0
4 56 5 5 3 4 2 4 5 4 21 68 88 5 5 26 78 5 15 6 5 14 15 90 100 100 100 100 100 97 100 100 100 100 98 78 13 0 1 3 3 3 32
9 18 31 99 98 100 100 74 98 90 100 100 99 55 5 79 95 100 100 100 100 100 98 100 100 100 100 100 100 100 100 100 58 27 7 0 3 36 13 25 63 41 96
68 5 74 100 100 100 100 100 67 47 100 100 100 100 100 96 100 100 100 100 100 100 100 100 100 100 100 100 100 100 99 3 15 0 1 7 46 100 99 100 100 67 81
24 96 100 100 100 100 97 19 2 5 2 50 100 99 100 100 100 100 100 100 100 100 100 100 96 76 100 100 92 0 5 0 12 29 78 81 94 100 100 98 25 68 72
45 35 15 19 10 52 100 100 54 15 27 96 100 100 100 100 100 100 100 100 91 100 100 100 100 97 100 25 21 47 68 100 81 63 74 100 100 100 100 80 60 82 79
65 17 44 5 79 100 100 100 100 72 47 58 100 100 96 100 100 95 100 100 86 59 98 100 100 100 100 84 79 64 69 72 96 100 100 100 100 99 100 94 100 84 92
100 87 76 47 41 100 100 100 100 65 76 68 83 57 99 35 100 100 100 100 100 100 100 100 100 100 100 100 100 97 100 100 100 100 100 100 100 58 72 78 95 100 96
100 100 93 5 16 95 100 100 100 63 91 100 100 100 96 100 100 99 100 100 100 100 92 69 58 44 90 100 100 97 85 87 86 57 98 100 100 100 100 99 100 84 88
100 100 60 12 5 81 100 95 92 98 98 100 100 100 98 100 100 100 100 100 100 98 81 92 100 100 100 100 97 73 49 62 9 0 2 76 100 100 100 35 11 52 99
100 100 97 88 90 97 100 93 76 75 79 100 100 100 100 100 100 100 100 100 100 100 100 100 100 99 92 68 15 0 0 4 4 0 0 5 59 100 100 29 19 0 6
76 98 100 100 100 100 100 100 100 100 100 100 100 100 100 100 100 100 100 100 100 99 89 76 43 22 15 1 0 0 37 91 40 68 0 0 0 33 68 96 63 16 2
100 100 100 100 100 100 100 100 100 100 99 94 100 100 100 100 100 100 95 66 45 24 2 0 0 0 0 0 0 19 0 13 34 85 9 0 4 12 18 26 47 80 77

GFSGL_prec_cloud_054.txt.gz
Cloud_Cover
0 0 0 0 0 0 0 0 0 0 0 0 0 0 0 0 0 0 0 0 15 11 2 0 0 0 0 0 0 0 0 0 0 0 0 0 0 0 0 0 3 4 33
0 0 0 0 0 0 0 0 0 0 0 0 0 0 0 0 0 0 0 0 0 0 2 4 0 0 0 0 0 0 0 0 0 0 0 0 0 0 0 0 5 13 4
0 0 0 0 0 0 0 0 0 0 0 0 0 0 0 0 0 0 0 0 0 0 5 5 0 0 0 0 0 0 0 0 0 0 0 0 0 0 2 5 2 19 6
0 0 0 0 0 0 0 0 0 0 0 0 0 0 0 0 0 0 0 0 0 2 5 5 0 0 0 0 4 0 0 0 0 0 0 0 0 1 0 0 1 5 7
0 0 0 0 0 0 0 0 0 0 0 0 0 0 0 0 0 0 0 0 0 5 0 0 0 0 0 0 5 0 0 0 0 0 0 3 0 0 0 0 0 42 100
0 0 0 0 0 0 0 0 0 0 0 0 0 0 0 0 0 0 0 0 0 5 0 0 0 0 0 1 0 2 0 0 0 0 0 0 0 0 0 0 0 0 7
0 0 0 0 0 0 0 0 0 0 0 0 0 0 0 0 0 0 0 0 0 3 0 0 0 0 0 0 12 25 8 1 19 0 0 0 0 0 0 1 0 0 10
4 0 0 0 0 0 0 0 0 0 0 0 0 0 0 0 0 0 0 0 0 0 0 0 0 0 0 0 0 0 0 3 2 0 2 4 7 0 7 50 33 19 36
4 0 0 0 0 0 0 0 0 0 0 0 0 0 0 0 0 0 5 0 0 0 4 5 5 5 5 5 0 0 0 30 7 0 0 0 1 0 31 25 87 58 22
1 1 0 0 0 0 0 0 0 0 0 0 0 0 0 0 0 0 41 0 2 5 0 0 0 4 5 40 5 0 0 0 5 0 0 29 99 91 58 35 80 100 93
91 5 0 0 0 0 0 0 0 0 0 0 0 0 0 0 0 0 47 0 0 5 2 1 0 0 3 55 42 2 1 15 3 45 100 78 85 66 62 92 100 100 100
97 4 0 0 0 0 0 0 7 1 0 0 0 0 0 0 13 58 23 75 2 4 0 0 4 4 0 5 44 5 0 57 67 100 74 52 57 71 81 80 59 70 98
5 0 0 0 0 0 0 11 2 17 0 0 0 0 0 0 0 56 67 25 36 12 0 0 1 5 17 66 91 10 73 37 57 88 98 100 84 62 66 70 37 0 4
5 6 3 13 12 0 3 0 0 0 0 0 0 0 0 0 0 0 1 8 65 44 2 6 0 50 95 95 96 96 93 90 59 98 100 100 96 100 88 32 0 0 0
18 18 30 8 21 26 9 21 9 5 20 3 5 2 0 0 4 5 5 5 5 4 0 12 22 59 98 99 84 99 100 100 97 100 100 100 87 80 5 0 0 0 0
28 31 2 0 61 25 65 21 88 76 100 100 100 55 5 52 81 31 77 100 100 95 8 15 91 87 95 100 100 100 100 100 100 99 100 40 3 0 0 0 0 0 4
100 95 39 26 68 60 28 35 0 86 100 100 100 100 100 99 100 100 100 100 100 83 32 95 97 100 100 99 100 100 100 74 74 100 18 0 0 0 0 1 0 4 2
43 90 94 100 77 89 95 48 99 100 100 100 100 100 99 100 100 100 100 89 79 100 100 100 100 100 100 100 100 100 99 91 36 8 0 0 0 13 31 52 0 89 100
99 95 94 21 17 26 15 100 100 100 100 100 100 100 100 100 100 100 100 70 88 97 100 100 100 100 100 100 100 100 100 24 5 0 0 7 11 32 92 66 28 82 94
65 78 36 90 100 100 100 100 100 100 100 100 100 100 100 100 100 100 100 100 100 99 98 100 100 100 100 100 100 91 23 22 14 40 73 96 98 80 72 92 100 100 36
98 63 32 26 38 100 100 100 100 100 100 100 100 100 100 100 100 100 100 100 100 100 86 58 64 70 80 93 63 92 44 64 100 100 100 100 100 70 100 44 47 100 100
100 85 15 49 75 6 64 100 100 100 100 100 100 98 100 94 88 78 78 73 86 92 97 100 98 99 100 100 99 45 27 36 35 29 20 26 69 100 100 96 56 56 5
100 100 94 39 100 48 35 87 100 100 95 84 53 26 20 7 36 62 75 72 70 86 100 100 100 47 10 15 46 85 16 1 0 0 0 1 67 100 100 73 27 44 45
100 100 100 92 80 90 100 100 100 95 100 99 80 60 56 50 58 58 74 92 51 45 30 83 100 98 84 100 100 94 1 0 0 0 0 0 2 35 96 95 46 79 70
9 38 100 100 100 96 100 100 100 100 100 100 100 100 92 78 70 63 56 50 33 62 100 100 100 100 86 10 0 0 44 8 28 45 0 0 2 17 22 56 75 96 100
100 98 100 100 100 100 100 100 100 100 100 100 100 100 100 100 100 100 100 100 100 100 100 98 69 15 0 0 0 6 0 0 7 38 9 8 12 19 32 39 87 95 79

GFSGL_prec_cloud_057.txt.gz
Cloud_Cover
0 0 0 0 0 0 0 0 0 0 0 0 0 0 0 0 0 0 0 32 0 0 0 11 4 0 0 0 0 0 0 0 0 0 0 0 0 0 0 0 2 5 4
0 0 0 0 0 0 0 0 0 0 0 0 0 0 0 0 0 0 0 0 8 0 0 0 0 0 0 0 0 0 0 0 0 0 0 0 0 0 0 0 0 1 5
0 0 0 0 0 0 0 0 0 0 0 0 0 0 0 0 0 0 0 0 0 0 0 0 0 0 0 0 0 0 0 0 0 0 0 0 0 0 0 0 4 5 100
0 0 0 0 0 0 0 0 0 0 0 0 0 0 0 0 0 0 0 0 0 0 0 0 0 0 0 0 0 0 0 0 0 0 0 0 0 0 0 0 0 1 7
0 0 0 0 0 0 0 0 0 0 0 0 0 0 0 0 0 0 0 0 0 0 0 0 0 0 0 0 0 0 0 3 0 0 0 0 0 0 0 0 0 0 1
0 0 0 0 0 0 0 0 0 0 0 0 0 0 0 0 0 0 0 0 0 0 0 0 0 0 0 0 0 0 0 1 5 0 0 2 0 0 0 0 0 0 2
1 0 0 0 0 0 0 0 0 0 0 0 0 0 0 0 0 0 0 0 0 0 0 0 0 0 0 0 0 1 0 0 1 5 5 0 0 0 0 4 0 0 1
3 0 0 0 0 0 0 0 0 0 0 0 0 0 0 0 0 0 0 0 0 0 0 0 0 0 0 0 2 4 3 4 1 0 3 5 0 0 5 0 5 13 16
5 0 0 0 0 0 0 0 0 0 0 0 0 0 0 0 0 0 0 0 0 0 0 0 0 0 0 0 0 1 5 20 5 3 0 0 0 0 7 59 42 55 26
0 5 5 0 0 0 0 0 0 0 0 0 0 0 0 0 1 0 0 0 0 0 0 0 0 0 0 0 0 1 0 4 52 34 4 2 47 10 23 6 30 73 100
5 36 5 0 1 0 0 0 0 0 0 0 0 0 0 0 0 0 0 0 0 0 0 0 0 0 2 1 1 0 0 10 0 4 5 29 91 65 26 83 49 19 60
5 5 5 3 4 1 0 0 0 0 0 0 0 0 0 0 1 25 0 5 0 0 0 0 0 0 0 3 9 5 5 47 3 29 72 50 35 83 48 33 14 69 18
4 5 5 5 5 4 0 0 0 0 0 0 0 0 0 0 0 17 7 1 12 7 0 10 8 0 0 65 38 5 73 49 33 95 78 93 34 68 61 100 25 5 5
5 5 5 3 5 0 2 26 5 0 0 0 0 0 0 0 0 0 1 3 59 42 0 0 0 17 95 68 24 37 14 10 97 99 97 100 75 51 97 58 15 5 5
0 2 5 4 51 9 0 0 0 0 13 0 0 0 0 0 0 0 0 0 0 0 0 0 0 0 0 4 27 77 99 80 89 95 90 71 93 100 48 81 5 0 0
99 95 66 18 50 33 2 0 78 67 100 100 82 54 38 83 71 5 95 61 42 7 3 0 0 0 7 22 23 57 41 44 99 100 77 100 100 94 54 2 0 0 0
100 100 99 72 85 34 5 12 0 44 100 100 100 100 100 97 100 100 100 100 100 87 40 5 6 14 25 39 6 75 100 100 90 99 98 45 99 96 5 0 0 0 0
100 100 100 97 99 90 100 56 54 29 0 0 73 54 98 100 100 100 100 100 100 30 44 28 41 64 100 85 65 92 92 79 100 86 98 100 51 6 0 3 0 0 0
100 100 100 99 100 100 99 71 5 5 10 29 46 100 100 100 100 100 100 100 81 88 63 99 98 100 81 51 89 76 100 88 98 82 100 37 37 1 13 14 2 1 17
100 100 100 100 90 100 94 93 98 100 97 100 100 100 100 100 100 100 100 100 28 90 77 99 100 94 60 92 100 100 100 100 100 100 71 16 32 61 14 18 31 52 52
100 100 100 100 100 100 100 92 89 100 64 100 100 100 100 100 74 100 100 100 100 100 100 100 98 70 89 46 98 100 100 100 100 50 61 94 100 100 66 97 57 32 22
100 100 100 100 100 100 100 100 100 100 100 100 100 100 100 100 100 100 100 100 100 100 100 99 100 91 97 47 71 100 100 100 100 100 77 89 57 81 100 100 56 14 3
100 100 100 100 88 99 89 99 100 100 93 71 86 100 65 100 100 100 100 100 100 100 100 100 88 19 55 29 45 92 84 77 39 8 3 0 8 39 18 24 27 2 18
100 100 100 100 99 45 59 100 99 98 100 54 100 100 100 99 100 92 81 93 91 80 82 52 79 100 100 95 65 12 4 9 1 2 2 0 0 0 32 75 22 6 35
100 100 100 100 100 92 86 38 61 64 86 100 100 100 100 95 70 96 100 100 100 100 100 100 90 75 64 38 12 9 42 5 21 59 5 5 2 0 4 29 78 97 68
100 100 100 98 94 96 100 100 91 63 100 93 100 100 100 100 100 100 100 100 100 100 100 100 100 100 92 65 10 5 5 5 5 5 4 0 28 10 21 7 15 30 83

GFSGL_prec_cloud_060.txt.gz
Cloud_Cover
0 0 0 0 0 0 0 0 0 0 0 7 2 0 0 0 0 0 0 3 1 0 0 0 0 0 0 0 0 0 0 0 0 0 0 0 0 0 0 0 2 2 0
0 0 0 0 0 0 0 0 0 0 0 0 0 0 0 0 0 0 0 0 0 0 0 0 0 0 0 0 0 0 0 0 0 0 0 0 0 0 0 0 1 10 5
0 0 0 0 0 0 0 0 0 0 0 0 0 0 0 0 0 0 0 0 0 0 0 0 0 0 0 0 0 0 0 0 0 0 0 0 0 0 0 0 0 1 16
0 0 0 0 0 0 0 0 0 0 0 0 0 0 0 0 0 0 0 0 0 0 0 0 0 0 0 0 0 0 0 0 0 0 0 0 0 0 0 0 0 0 1
0 0 0 0 0 0 0 0 0 0 0 0 0 0 0 0 0 0 0 0 0 0 0 0 0 0 0 0 0 0 0 0 0 0 0 20 4 0 0 0 3 4 5
0 0 0 0 0 0 0 0 0 0 0 0 0 0 0 0 0 0 0 0 0 0 0 0 0 0 0 0 0 0 0 4 5 5 4 0 0 11 6 0 0 0 17
0 0 0 0 0 0 0 0 0 0 0 0 0 0 0 0 0 0 0 0 0 0 0 0 0 0 0 0 0 0 0 0 5 5 19 25 4 0 0 4 0 0 0
0 0 0 0 0 0 0 0 0 0 0 0 0 0 0 0 0 0 0 0 0 0 0 0 0 0 0 0 0 0 0 0 2 5 67 54 82 45 5 1 0 0 0
0 0 0 0 0 0 0 0 0 0 0 0 0 0 0 0 0 0 0 0 0 0 0 0 0 0 0 0 0 0 0 0 0 2 14 62 82 89 46 52 2 4 25
0 0 0 0 0 0 0 0 0 0 0 0 0 0 0 0 0 0 0 0 0 0 0 0 0 0 0 0 0 0 0 0 0 4 5 5 41 5 61 41 16 13 46
5 5 0 0 0 0 0 0 0 0 0 0 0 0 0 0 0 0 0 0 0 0 0 0 0 0 0 0 0 0 0 3 2 5 5 5 6 39 66 37 30 25 0
5 5 2 0 2 16 0 0 0 0 0 0 0 0 0 0 0 30 0 0 0 0 0 0 0 0 0 0 0 0 0 37 0 0 0 1 5 5 13 20 5 2 96
2 5 5 4 5 5 0 0 5 0 0 0 0 0 0 0 0 2 3 0 0 0 0 10 12 0 0 50 0 0 58 4 0 19 81 47 99 27 6 5 5 100 53
4 5 5 5 2 5 1 0 0 0 0 1 2 0 0 0 0 0 3 1 45 21 0 2 0 0 90 18 8 22 0 5 5 15 82 16 96 44 16 7 100 15 58
0 3 5 5 5 0 1 6 1 0 0 0 0 0 0 0 0 0 0 0 0 0 0 0 2 25 32 61 18 0 0 2 5 5 86 82 14 5 9 98 15 10 82
0 2 5 5 5 4 0 84 92 61 47 13 56 0 13 79 100 82 72 0 0 2 3 13 72 100 100 58 55 18 0 16 5 45 42 35 42 41 100 100 100 100 100
30 54 4 25 5 5 5 36 75 67 100 100 100 100 73 97 100 100 100 100 34 79 5 99 42 99 98 33 75 44 31 65 67 98 99 100 100 38 85 100 100 76 5
100 44 24 4 67 11 12 100 31 7 6 1 87 34 100 100 100 100 100 86 9 93 100 100 78 70 6 25 5 30 38 8 64 48 52 21 75 69 57 8 4 4 0
100 74 74 66 76 100 71 99 100 47 78 71 6 54 90 100 100 100 100 81 64 100 100 100 98 100 97 47 33 98 100 100 100 55 98 94 99 47 94 1 0 0 17
100 100 100 100 100 24 93 100 100 100 98 100 95 54 23 27 48 56 70 100 98 100 91 100 100 100 100 100 99 69 100 100 100 100 100 100 10 99 79 30 0 1 6
100 100 100 100 100 100 100 100 100 100 100 100 100 100 77 100 100 100 100 100 100 66 97 34 99 87 100 100 100 90 100 100 100 100 87 100 77 88 28 0 34 4 51
100 100 100 100 100 100 100 100 100 100 100 100 100 100 100 100 100 100 81 100 99 100 100 100 94 100 100 100 100 100 100 100 100 100 100 100 100 100 9 2 9 0 0
100 100 100 100 100 100 100 100 100 100 97 94 100 90 100 100 100 100 100 100 100 100 100 100 100 100 100 100 100 100 100 100 100 100 100 100 86 64 68 3 5 5 0
83 77 77 100 100 100 100 100 100 100 100 100 100 100 100 100 100 100 100 100 94 100 100 100 100 100 100 100 100 100 100 100 100 100 97 100 100 67 16 91 99 96 55
85 100 75 84 100 81 54 87 98 100 100 100 100 100 100 100 100 100 100 100 100 100 100 100 100 100 100 100 78 100 90 83 92 94 96 68 96 5 19 34 83 17 6
100 100 100 100 100 100 100 100 100 100 100 100 100 100 100 100 100 100 100 100 100 100 99 100 100 100 92 100 96 99 32 0 2 5 5 5 10 90 97 28 2 5 4

GFSGL_prec_cloud_063.txt.gz
Cloud_Cover
0 0 0 0 0 0 0 0 0 0 0 0 0 0 0 0 0 0 0 0 0 0 0 0 0 0 0 0 0 0 0 0 0 0 0 0 0 0 0 0 0 5 65
0 0 0 0 0 0 0 0 0 0 0 0 0 0 0 0 0 0 0 0 0 0 0 0 0 0 0 0 0 0 0 0 0 0 0 0 0 0 0 0 0 0 9
0 0 0 0 0 0 0 0 0 0 0 0 0 0 0 0 0 0 0 0 0 0 0 0 0 0 0 0 0 0 0 0 0 0 0 0 4 2 0 0 0 0 0
0 0 0 0 0 0 0 0 0 0 0 0 0 0 0 0 0 0 0 0 0 0 0 0 0 0 0 0 0 0 0 0 0 0 0 0 0 0 3 5 0 0 0
0 0 0 0 0 0 0 0 0 0 0 0 0 0 0 0 0 0 0 0 0 0 0 0 0 0 0 0 0 0 0 0 0 1 0 0 3 0 0 0 1 0 0
0 0 0 0 0 0 0 0 0 0 0 0 0 0 0 0 0 0 0 0 0 0 0 0 0 0 0 0 0 0 0 0 0 5 4 5 5 5 5 5 4 0 8
5 5 0 0 0 0 0 0 0 0 0 0 0 0 0 0 0 0 0 0 0 0 0 0 0 0 0 0 0 0 0 0 5 5 5 13 70 94 100 100 58 5 5
23 15 49 0 0 0 0 0 0 0 0 0 0 0 0 0 0 0 0 0 0 0 0 0 0 0 0 0 0 0 0 0 1 0 0 1 0 34 100 85 47 96 12
100 100 100 24 0 0 0 0 0 0 0 0 0 0 0 0 0 0 0 0 0 0 0 0 0 0 0 0 0 0 0 0 0 0 0 0 0 6 60 78 87 100 100
100 100 90 12 2 0 0 0 0 0 0 0 0 0 0 0 0 0 0 0 0 0 0 0 0 0 0 0 0 0 0 0 0 0 0 1 28 3 3 2 5 93 45
100 100 100 45 5 5 0 0 0 0 0 0 0 0 0 0 0 0 0 0 0 0 0 0 0 0 0 0 0 0 0 0 0 0 0 0 0 0 0 5 17 43 22
100 100 100 37 5 3 0 0 0 0 0 0 0 4 0 0 0 22 0 12 0 0 0 0 0 0 0 0 0 0 0 0 0 0 0 0 0 0 3 10 20 53 51
93 100 99 7 66 58 0 3 5 0 0 0 0 2 3 0 0 12 25 0 0 0 0 0 0 0 0 0 0 0 2 7 5 0 0 0 2 28 84 6 21 24 52
100 44 99 62 9 95 5 1 0 0 0 0 4 19 17 4 1 0 14 19 33 14 0 4 0 0 20 17 0 4 5 5 5 5 5 3 5 42 17 40 33 35 24
96 20 1 0 5 5 5 5 4 5 0 0 0 0 19 13 0 0 0 0 0 0 0 0 0 0 0 0 6 14 5 13 44 10 5 8 13 11 5 5 12 46 16
100 96 0 0 4 5 5 19 94 78 25 2 0 0 0 63 0 0 22 20 16 55 8 0 0 0 0 0 51 36 26 5 91 18 88 37 18 28 52 71 46 9 7
100 92 71 24 0 5 5 5 0 69 100 100 92 10 8 95 100 99 83 52 92 77 0 0 0 0 0 3 5 5 5 1 26 71 100 100 100 99 99 72 26 55 20
71 61 72 100 100 21 2 5 5 0 4 100 88 98 100 100 100 100 100 87 88 61 5 5 1 4 1 1 0 0 8 19 100 100 100 100 100 100 51 59 88 84 20
88 82 44 70 32 40 37 3 5 5 5 12 100 100 100 100 100 100 100 26 66 64 66 59 99 100 100 100 100 100 100 65 100 100 100 96 100 97 92 100 100 100 100
100 88 98 100 100 94 10 8 17 9 63 100 98 100 100 100 100 100 100 100 63 11 89 69 100 100 100 100 100 100 100 87 100 100 61 99 98 100 100 100 100 100 100
80 100 100 70 71 72 100 3 40 54 82 100 98 100 100 100 100 100 100 100 56 77 27 100 100 100 100 100 100 100 100 100 100 100 93 91 100 100 100 100 100 100 100
100 100 100 99 100 100 92 99 100 100 100 100 100 100 100 100 100 100 100 100 100 100 73 46 100 100 100 100 100 100 100 100 99 98 97 72 100 88 99 100 100 50 82
100 100 100 100 100 100 100 100 100 100 100 100 100 100 100 100 100 100 100 100 100 100 100 88 97 100 100 100 100 100 100 100 100 100 100 97 88 100 100 100 70 33 5
100 100 100 100 100 100 100 100 100 100 100 100 100 100 100 100 100 100 100 100 100 100 100 100 100 100 100 97 81 100 100 100 100 100 53 75 100 95 98 50 1 0 1
100 100 100 100 100 100 100 100 100 100 100 100 100 100 100 100 100 100 100 100 100 100 100 100 100 100 100 100 100 96 100 44 98 76 55 94 76 17 4 0 3 5 5
100 100 100 100 100 100 100 100 100 100 100 100 100 100 100 100 100 100 100 100 100 100 100 100 100 100 100 100 100 98 74 16 35 100 83 18 51 25 2 3 2 10 18

GFSGL_prec_cloud_066.txt.gz
Cloud_Cover
0 0 0 0 0 0 0 0 0 0 0 0 0 0 0 0 0 0 0 0 0 0 0 0 0 0 0 0 0 0 0 0 0 0 0 0 0 0 0 0 0 3 70
0 0 0 0 0 0 0 0 0 0 0 0 0 0 0 0 0 0 0 0 0 0 0 0 0 0 0 0 0 0 0 0 0 0 0 0 0 0 0 0 0 0 0
0 0 0 0 0 0 0 0 0 0 0 0 0 0 0 0 0 0 0 0 0 0 0 0 0 0 0 0 0 0 0 0 0 0 0 0 0 0 0 0 0 0 0
2 0 0 0 0 0 0 0 0 0 0 0 0 0 0 0 0 0 0 0 0 0 0 0 0 0 0 0 0 0 0 0 0 0 0 4 0 0 0 0 0 0 0
58 0 0 0 0 0 0 0 0 0 0 0 0 0 0 0 0 0 0 0 0 0 0 0 0 0 0 0 0 0 0 0 0 0 4 0 0 0 5 5 7 5 4
5 6 6 0 0 0 0 0 0 0 0 0 0 0 0 0 0 0 0 0 0 0 0 0 0 0 0 0 0 0 0 0 0 0 0 0 0 0 5 56 52 5 9
100 100 100 12 0 0 0 0 0 0 0 0 0 0 0 0 0 0 0 0 0 0 0 0 0 0 0 0 0 0 0 2 0 0 0 0 0 0 0 0 0 9 7
100 100 100 45 3 0 0 0 0 0 0 0 0 0 0 0 0 0 0 0 0 0 0 0 0 0 0 0 0 0 0 0 0 0 0 0 0 0 0 0 1 5 27
100 100 100 100 5 0 4 64 0 0 0 0 0 0 0 0 0 0 0 0 0 0 0 0 0 0 0 0 0 0 0 0 0 0 0 0 0 0 0 0 6 32 30
100 100 100 100 97 45 44 100 100 0 0 0 0 0 0 0 0 0 6 0 0 0 0 0 0 0 0 0 0 0 0 0 0 2 5 14 55 6 14 11 5 29 10
100 100 100 100 100 100 100 88 100 54 0 0 0 0 0 0 0 0 7 0 0 0 0 0 0 0 0 0 8 0 0 1 27 19 11 5 5 9 6 4 2 2 22
100 100 100 100 100 100 100 100 91 87 0 0 0 0 0 0 0 8 16 47 0 0 0 0 0 0 3 22 47 6 6 15 38 100 84 53 52 47 5 5 6 17 77
100 100 100 100 100 100 100 100 87 20 1 0 0 0 0 10 0 35 31 23 7 0 0 0 0 0 0 13 0 0 0 5 33 53 20 74 92 73 81 69 75 47 81
100 100 100 100 100 100 100 94 5 29 5 1 0 0 0 0 0 0 0 37 62 33 0 0 0 0 0 0 0 3 0 0 0 2 5 5 53 96 95 99 81 81 98
100 100 100 100 100 100 100 100 98 100 55 4 0 0 2 4 0 0 0 0 0 8 0 14 50 15 6 9 64 60 97 100 100 100 18 0 5 17 26 29 99 100 58
100 100 100 100 100 100 100 100 100 100 100 12 0 0 0 0 4 0 17 96 87 77 82 78 65 43 81 100 100 100 100 100 100 100 100 94 12 28 28 84 100 100 24
100 100 100 100 100 100 100 100 100 100 100 100 95 23 9 4 100 81 40 100 100 100 36 89 59 65 97 100 100 100 100 100 100 100 100 100 100 99 97 99 97 74 100
78 98 100 100 100 100 100 97 95 100 99 28 98 79 98 100 100 100 100 93 83 100 80 49 25 40 71 100 100 100 100 100 100 100 100 100 100 100 100 100 88 5 14
30 42 91 100 100 100 100 100 100 99 95 38 98 100 100 100 100 100 100 17 0 8 77 33 15 74 100 100 100 100 100 100 100 100 100 100 100 100 100 100 99 70 57
32 84 100 100 100 100 100 67 55 37 73 57 25 7 100 100 99 100 100 100 70 18 46 86 100 72 100 100 100 100 100 100 100 100 100 100 100 100 100 100 100 55 81
82 100 100 100 100 100 100 76 48 4 100 100 100 100 100 100 78 100 100 100 100 100 96 100 83 29 100 100 100 100 100 100 100 100 100 100 100 100 100 100 100 100 100
93 100 100 100 100 100 85 100 34 2 68 100 100 100 100 100 100 100 100 100 100 100 100 100 76 79 79 95 100 100 100 100 100 100 100 100 100 100 100 100 100 100 99
28 100 100 100 100 100 100 100 100 100 100 100 100 100 100 100 100 100 100 100 100 100 94 100 43 69 12 66 100 100 100 100 100 100 100 100 100 100 100 100 100 100 40
92 100 100 100 100 100 100 100 100 100 100 100 100 100 100 100 100 100 100 100 100 100 100 98 100 92 100 94 100 100 100 100 100 100 100 100 100 100 100 96 90 96 5
96 100 100 100 100 100 100 100 100 100 100 100 100 100 100 100 100 100 100 100 100 100 100 100 100 100 100 100 100 100 100 100 100 100 100 100 100 100 100 93 97 5 5
100 100 100 100 100 100 100 100 100 100 100 100 100 100 100 100 100 100 100 100 100 100 100 100 100 100 100 100 100 100 100 100 100 100 100 100 100 100 98 78 1 1 6

GFSGL_prec_cloud_069.txt.gz
Cloud_Cover
0 0 0 0 0 0 0 0 0 0 0 0 0 0 0 0 0 0 0 0 0 0 0 0 0 0 0 0 0 0 0 0 0 0 0 0 0 0 0 0 0 0 0
0 0 0 0 0 0 0 0 0 0 0 0 0 0 0 0 0 0 0 0 0 0 0 0 0 0 0 0 0 0 0 0 0 0 4 5 0 0 0 0 0 0 0
0 0 0 0 0 0 0 0 0 0 0 0 0 0 0 0 0 0 0 0 0 0 0 0 0 0 0 0 0 0 0 0 0 0 0 5 5 0 0 2 5 4 5
0 0 0 0 0 0 0 0 0 0 0 0 0 0 0 0 0 0 0 0 0 0 0 0 0 0 0 0 0 0 0 0 0 2 1 0 1 0 0 0 0 5 5
0 0 0 0 0 0 0 0 0 0 0 0 0 0 0 0 0 0 0 0 0 0 0 0 0 0 0 0 0 0 0 0 0 2 9 5 0 0 0 0 6 1 36
5 0 0 0 0 0 0 0 0 0 0 0 0 0 0 0 0 0 0 0 0 0 0 0 0 0 0 0 0 0 0 0 0 5 0 3 0 5 0 0 0 0 17
12 3 0 5 20 50 47 0 0 0 0 0 0 0 0 0 0 0 0 0 0 0 0 0 0 0 0 0 0 3 0 0 0 0 0 5 3 5 3 0 0 7 11
68 10 4 5 71 20 50 90 0 0 0 0 0 0 0 0 0 0 0 0 0 0 0 0 0 0 0 0 0 0 0 0 0 2 13 5 5 0 3 1 0 1 17
8 74 86 94 5 5 5 6 13 0 0 0 0 0 0 0 0 0 0 0 0 0 0 0 0 0 0 1 0 0 0 0 3 5 5 4 0 4 2 0 12 73 22
100 100 100 100 100 52 100 100 82 43 38 9 0 0 0 0 0 4 15 0 0 0 0 0 0 0 0 0 1 0 0 0 0 4 36 28 47 8 92 70 8 22 34
100 100 96 100 100 100 100 99 100 66 43 70 78 1 0 0 0 0 7 0 0 0 0 0 0 0 0 12 24 0 0 0 0 4 23 55 5 5 5 41 93 92 60
100 100 100 100 100 100 100 100 96 96 85 5 76 60 0 0 0 6 2 38 0 0 0 0 0 0 0 3 35 14 53 89 47 72 88 46 16 13 8 35 77 97 23
100 100 100 100 100 100 100 99 85 81 100 64 43 64 5 0 0 8 8 23 11 0 0 0 0 0 0 13 10 5 64 99 92 31 77 100 98 98 91 29 5 88 64
100 91 100 100 100 100 100 100 100 100 100 16 88 33 80 2 0 0 6 40 63 44 0 3 0 4 1 8 83 100 100 100 100 100 32 8 100 100 100 100 100 99 100
92 100 100 100 100 100 90 88 98 100 100 100 100 100 100 35 1 0 0 0 0 11 6 41 67 68 65 66 96 100 100 100 100 100 100 100 72 100 100 100 100 100 100
100 100 100 100 100 100 100 100 99 100 100 100 100 100 100 93 5 10 60 89 97 98 90 100 100 100 96 52 72 98 100 100 100 100 100 100 96 100 100 100 100 100 92
100 100 100 100 100 100 100 100 100 100 100 100 92 100 100 100 94 88 100 100 100 100 40 98 100 100 100 99 66 70 100 100 100 100 100 100 100 100 100 100 100 100 100
74 100 100 100 100 100 100 100 100 100 100 100 94 100 100 100 100 100 100 100 100 100 99 100 100 100 80 66 61 100 100 100 40 100 100 100 100 100 100 100 100 100 100
50 95 100 74 91 100 100 100 100 100 100 88 100 100 100 100 100 100 100 24 84 83 100 100 100 100 90 76 38 100 100 100 100 100 100 100 100 100 100 100 100 100 100
98 98 100 100 100 100 100 100 100 100 100 100 100 100 100 100 97 73 99 85 84 95 99 100 100 100 100 91 99 100 100 100 100 100 100 100 100 100 100 100 100 100 100
100 93 96 100 100 100 100 100 100 100 100 100 100 100 100 100 100 100 100 100 94 100 100 100 100 100 100 100 84 100 100 100 100 100 100 100 100 100 100 100 100 100 100
73 96 100 100 100 99 100 100 100 100 100 100 100 100 100 100 100 100 100 100 100 100 100 100 100 100 100 100 100 93 100 100 99 98 100 100 100 100 100 100 100 100 100
100 100 100 97 100 98 100 100 100 100 100 100 100 100 100 100 100 100 100 100 100 100 100 100 100 100 100 100 100 100 100 98 84 100 100 100 100 100 100 100 100 100 100
100 100 100 100 85 100 100 100 100 100 100 100 100 100 100 100 100 100 100 100 100 100 100 100 100 100 100 100 99 94 77 60 33 13 30 100 100 100 100 100 100 100 100
100 100 100 100 95 100 100 100 100 100 100 100 100 100 100 100 100 100 100 100 100 100 100 100 100 100 100 100 100 100 99 100 100 80 100 100 99 100 100 100 100 100 100
100 100 100 100 100 100 100 100 100 100 100 100 100 100 100 100 100 100 100 100 100 100 100 100 100 100 100 100 100 100 100 98 100 100 100 100 100 100 100 100 100 100 100

GFSGL_prec_cloud_072.txt.gz
Cloud_Cover
62 4 0 0 0 0 0 0 0 0 0 0 0 0 0 0 0 0 0 0 0 0 0 0 0 0 0 0 0 0 0 0 0 0 0 0 0 3 5 6 7 4 2
100 98 35 0 0 0 0 0 0 0 0 0 0 0 0 0 0 0 0 0 0 0 0 0 0 0 0 0 0 0 0 0 0 0 0 1 0 5 1 5 24 70 41
7 100 100 26 0 0 0 0 0 0 0 0 0 0 0 0 0 0 0 0 0 0 0 0 0 0 0 0 0 0 0 0 0 0 0 0 0 0 0 0 1 0 6
5 32 100 100 2 0 0 0 0 0 0 0 0 0 0 0 0 0 0 0 0 0 0 0 0 0 0 0 0 0 0 0 0 2 0 5 4 3 0 0 0 0 0
54 3 0 2 40 6 0 0 0 0 0 0 0 0 0 0 0 0 0 0 0 0 0 0 0 0 0 0 0 0 0 0 0 0 5 5 4 5 4 3 6 5 20
100 20 0 5 0 22 4 0 0 0 0 0 0 0 0 0 0 0 0 0 0 0 0 0 0 0 4 1 0 0 0 0 0 0 1 1 1 0 0 5 5 7 49
100 49 5 1 4 0 0 0 0 0 0 0 0 0 0 0 0 0 0 0 0 0 0 0 0 0 4 0 5 16 16 0 8 0 1 1 0 5 0 1 4 7 18
97 100 80 4 5 0 0 0 0 0 0 0 0 0 0 0 0 0 0 0 0 0 0 0 0 0 0 0 0 0 0 0 0 0 5 5 0 0 5 5 5 11 33
96 50 27 5 3 0 0 0 0 1 0 0 0 0 0 0 0 0 0 0 0 0 0 0 0 0 0 11 0 0 0 0 0 7 5 5 3 0 10 11 8 52 30
100 82 84 80 100 60 3 0 1 4 0 0 0 0 0 0 0 0 2 0 0 0 0 0 0 0 0 19 0 0 0 1 2 5 5 35 53 6 27 5 5 28 38
100 99 74 99 100 100 100 78 24 18 91 11 0 0 0 0 0 0 0 0 0 0 0 0 0 1 2 25 26 0 5 7 5 5 5 22 7 5 5 8 5 10 61
99 98 100 96 100 100 100 100 48 88 100 85 30 8 1 24 7 0 0 35 0 0 0 0 0 0 18 20 40 9 19 94 5 4 4 3 92 100 83 99 100 24 54
100 100 80 100 92 93 99 100 100 70 81 100 100 62 49 35 83 11 0 0 1 0 0 0 0 0 0 63 19 10 71 81 100 100 100 100 90 23 100 100 100 31 13
64 97 100 91 100 100 100 98 96 100 100 74 100 100 84 98 27 67 3 4 42 24 0 1 0 8 9 4 13 23 96 100 100 76 96 100 100 100 100 100 100 100 100
64 57 100 100 100 100 95 94 82 100 100 99 97 84 93 94 58 8 29 4 5 8 26 22 34 53 61 47 55 44 10 95 100 100 100 100 100 100 100 100 100 100 100
88 95 99 90 100 100 100 100 100 69 99 100 100 93 12 82 96 96 100 100 100 100 87 88 100 95 100 100 100 100 100 48 30 100 100 100 100 100 100 100 100 100 100
77 96 93 100 100 100 100 100 100 95 94 100 100 100 100 94 89 98 100 100 100 100 100 100 100 100 100 76 100 100 91 51 77 100 100 100 100 100 100 100 100 100 100
100 79 87 100 100 100 100 100 100 100 100 98 100 100 99 100 100 100 100 100 100 100 100 100 99 100 98 100 100 100 100 90 48 67 100 100 100 100 100 100 100 100 100
100 95 96 100 100 100 100 100 100 100 100 100 100 100 100 100 100 100 100 100 100 98 100 100 100 93 97 100 100 100 100 100 79 98 100 100 99 86 100 99 99 100 97
100 100 100 100 100 100 100 100 100 100 100 100 100 99 99 100 100 100 100 83 100 100 100 99 62 98 100 100 100 100 100 100 100 100 100 100 100 83 100 100 100 100 100
100 100 100 100 100 100 100 100 100 100 100 100 100 85 100 100 100 91 95 100 80 97 100 99 98 100 100 100 100 100 100 100 100 100 100 100 100 100 100 100 100 100 100
100 100 100 100 100 100 100 100 100 100 100 100 100 100 100 100 99 100 100 98 100 100 100 100 100 100 100 100 100 100 100 100 100 100 100 100 100 91 91 100 100 100 100
100 100 100 100 100 100 100 100 100 100 100 100 100 100 100 100 100 100 100 100 100 100 100 100 100 100 100 100 100 100 100 100 100 100 99 99 100 96 35 86 100 100 100
100 100 100 100 100 100 100 100 100 100 100 100 100 100 100 100 100 100 100 100 100 100 100 100 100 100 100 100 100 100 100 100 100 100 100 100 100 100 96 70 46 93 100
100 100 100 100 100 100 100 100 100 100 100 100 100 100 100 100 100 100 100 100 100 100 100 100 100 100 100 100 100 99 100 100 100 100 100 100 100 97 100 86 38 87 91
100 100 100 100 100 100 100 100 100 100 100 100 100 100 100 100 100 100 100 100 100 100 100 100 100 100 100 100 100 100 100 100 100 100 100 100 100 100 100 100 100 100 100

GFSGL_prec_cloud_075.txt.gz
Cloud_Cover
54 30 18 0 0 0 0 0 0 0 0 0 0 0 0 0 0 0 0 0 0 0 0 0 0 0 0 0 0 0 0 0 0 0 0 0 0 0 0 1 5 34 86
100 98 30 99 14 0 0 0 0 0 0 0 0 0 0 0 0 0 0 0 1 0 0 0 0 0 0 0 0 0 0 0 0 0 0 0 0 0 0 0 1 4 4
100 68 78 100 100 38 0 0 0 0 0 0 0 0 0 0 0 0 0 0 0 0 0 0 0 0 0 0 0 0 0 0 0 5 4 3 3 0 4 2 0 0 0
6 18 23 79 77 100 57 0 0 0 0 0 0 0 0 0 0 0 0 0 0 0 0 0 0 0 0 0 0 0 0 0 5 3 0 0 2 4 5 4 4 3 0
66 74 29 5 38 100 97 20 0 0 0 0 0 0 0 0 0 0 0 0 0 0 0 0 0 0 0 0 0 0 0 0 2 0 0 0 0 0 5 5 0 0 0
100 100 5 78 5 5 31 40 0 0 0 0 0 0 0 0 0 0 0 0 0 0 0 0 0 0 10 1 0 0 0 0 0 0 0 0 0 0 5 5 4 0 5
99 100 99 96 99 34 3 0 0 0 0 0 0 0 0 0 0 0 0 0 0 0 0 0 0 0 0 0 40 25 34 2 5 0 0 0 0 0 5 5 2 5 5
100 100 100 100 100 90 26 4 0 0 0 0 0 0 0 0 0 0 0 0 0 0 0 0 0 0 0 0 0 0 0 0 2 1 0 0 0 0 5 5 7 9 8
100 100 96 100 100 100 93 48 39 39 4 0 0 0 0 0 0 0 6 0 0 0 0 0 0 0 0 0 0 0 0 0 0 0 0 0 0 0 32 5 4 5 5
98 100 100 98 100 99 100 62 69 76 26 4 0 0 0 0 0 0 6 0 0 0 0 0 0 0 0 0 3 2 2 1 0 0 0 35 55 3 41 84 4 5 4
5 90 100 100 98 100 94 98 53 57 66 75 55 14 1 0 0 0 0 0 0 0 0 0 0 0 2 24 26 5 5 7 4 4 0 5 7 5 5 4 32 27 0
0 7 28 80 94 100 96 100 100 100 99 98 100 84 25 16 9 4 0 43 0 0 0 0 0 0 7 32 52 5 5 70 5 6 6 91 98 80 82 100 50 50 7
0 0 2 13 100 100 85 92 100 64 43 59 98 79 74 6 13 19 0 0 2 0 0 0 0 0 14 66 58 5 73 7 94 100 100 89 29 99 100 100 100 100 37
5 0 5 16 99 100 100 100 100 100 100 100 90 68 46 92 10 38 28 3 49 27 0 4 0 9 9 12 21 34 1 3 44 100 100 91 98 100 100 100 100 100 42
4 0 2 21 18 100 95 63 100 100 100 88 77 94 100 62 44 48 16 54 4 3 0 6 23 50 70 73 57 57 61 27 26 10 21 97 100 100 100 100 100 96 100
41 52 10 3 53 97 64 76 16 100 99 79 99 91 46 100 98 60 100 100 100 100 56 66 45 43 80 92 74 100 97 83 19 20 4 68 100 100 100 100 100 100 91
84 60 69 8 5 33 100 93 100 52 64 100 98 100 100 100 100 100 100 100 100 100 68 94 80 100 100 98 88 100 100 96 100 77 1 5 33 100 100 100 100 100 99
94 73 87 31 20 50 59 94 100 100 94 100 100 96 96 100 100 100 100 100 100 100 100 75 91 96 95 94 85 65 100 100 100 100 100 100 100 100 100 100 100 100 90
80 43 57 84 66 67 95 96 90 100 100 80 63 100 99 100 100 100 100 100 100 100 100 100 68 70 100 100 86 72 100 100 100 100 100 100 100 100 100 100 100 100 78
94 99 99 99 100 100 100 100 100 100 100 99 98 100 100 90 99 97 100 100 100 100 100 100 42 48 52 98 100 100 100 100 92 100 100 100 100 100 100 100 100 100 100
100 100 100 100 100 100 100 100 100 100 100 100 100 100 100 100 100 100 100 100 100 100 100 100 93 98 90 80 98 100 100 100 100 100 100 100 100 100 100 100 100 100 100
100 100 100 100 100 100 100 100 100 100 100 100 100 100 99 86 97 100 88 100 96 86 97 100 100 100 100 100 100 100 100 100 100 100 100 100 100 100 100 100 100 100 100
100 100 100 100 100 100 100 100 100 100 100 100 100 100 100 88 90 92 98 100 100 100 100 100 100 100 100 100 100 100 100 100 100 100 100 100 100 100 100 100 100 100 100
100 100 100 100 100 100 100 100 100 100 100 100 100 100 100 100 100 100 100 100 100 100 100 100 100 100 100 100 100 100 100 100 100 100 100 100 100 100 100 100 100 100 95
100 100 100 100 100 100 100 100 100 100 100 100 100 100 100 100 100 100 100 100 100 100 100 100 100 100 100 100 100 100 100 100 100 100 100 100 100 100 100 100 100 92 88
100 100 100 100 100 100 100 100 100 100 100 100 100 100 100 100 100 100 100 100 100 100 100 100 100 100 100 100 100 100 100 100 100 100 100 98 100 100 98 100 100 100 100

GFSGL_prec_cloud_078.txt.gz
Cloud_Cover
40 100 76 30 0 0 0 0 0 0 0 0 0 1 98 54 1 0 0 9 9 2 0 0 0 0 0 0 0 0 0 0 1 0 0 0 0 0 0 1 5 5 5
39 72 100 99 78 6 0 0 0 0 0 0 0 4 2 3 4 5 0 0 2 0 0 0 0 0 0 0 0 0 0 1 5 5 1 0 0 0 0 0 0 0 0
51 14 74 100 19 54 0 0 0 0 0 0 0 0 0 0 5 0 0 0 0 0 3 1 0 0 0 0 0 0 0 5 5 2 2 1 0 0 0 0 0 0 0
13 6 0 56 3 14 13 0 0 0 0 0 0 0 0 3 0 2 0 2 4 0 0 2 0 0 0 0 0 0 0 4 0 2 5 5 5 0 0 0 0 0 0
27 34 13 2 1 1 0 42 0 0 0 0 0 0 0 0 2 1 0 0 2 0 0 0 0 0 0 0 0 0 0 0 0 0 4 4 5 1 4 1 0 0 0
43 24 78 71 44 14 1 5 0 0 0 0 0 0 0 0 0 0 0 1 0 0 0 0 0 0 0 1 0 0 0 0 0 0 0 4 5 2 2 5 1 3 5
100 97 64 66 100 100 100 43 6 0 0 0 0 0 0 0 0 0 0 0 0 0 0 0 0 0 0 0 45 23 18 1 13 0 0 1 5 1 3 0 0 0 0
100 100 100 100 100 95 100 100 94 47 22 1 0 0 0 0 0 0 0 0 0 0 0 0 0 0 0 0 0 0 0 0 2 1 0 2 12 5 5 0 0 1 4
100 100 100 100 100 100 100 40 100 100 100 74 14 8 9 0 0 0 3 0 0 0 0 0 0 0 0 0 0 0 0 0 0 0 0 1 7 39 64 7 43 7 5
10 59 98 100 100 100 96 97 100 66 69 95 96 45 16 7 0 0 11 0 0 0 0 0 0 0 0 0 0 0 0 0 0 0 0 6 44 5 36 21 5 32 31
0 1 60 92 97 97 100 100 94 100 97 45 33 50 83 48 20 0 0 0 0 0 0 0 0 0 0 0 2 0 0 4 0 0 0 2 4 4 11 94 76 89 20
0 0 0 31 100 99 97 95 100 100 97 100 52 9 47 43 52 8 0 74 1 0 0 0 0 0 0 0 39 0 3 58 1 5 5 6 5 5 61 30 52 12 63
0 0 0 0 0 3 18 99 43 69 94 72 89 26 46 69 90 17 0 0 11 6 0 0 0 0 0 65 38 0 73 3 1 5 12 97 78 5 33 95 62 11 69
0 0 0 0 0 0 0 0 88 56 28 96 72 61 29 91 68 100 71 13 59 38 0 0 0 1 25 17 20 35 0 0 0 0 6 100 100 100 98 99 85 30 20
0 0 0 0 0 0 0 0 0 2 9 8 43 81 22 15 81 100 94 78 35 28 34 9 3 0 0 16 33 18 10 18 0 0 0 0 7 64 100 98 24 14 38
73 0 0 0 0 0 0 0 0 6 16 5 21 63 98 29 50 94 86 100 100 100 100 41 5 4 1 12 45 53 34 2 1 6 0 0 0 0 7 100 90 71 100
100 93 17 0 0 0 0 0 0 0 5 54 7 74 100 98 100 100 100 100 100 100 100 100 64 8 39 68 51 71 57 37 46 22 31 25 5 31 20 39 100 100 98
64 68 81 46 0 0 0 0 0 0 0 78 75 45 100 98 99 100 100 100 100 100 100 100 54 28 55 99 84 57 99 100 100 43 99 56 54 40 100 55 70 100 100
100 99 92 100 50 13 0 0 0 0 0 0 7 58 37 68 100 100 100 100 100 92 72 100 100 100 89 95 96 100 69 72 86 99 100 100 100 100 100 65 51 97 100
100 100 100 94 55 50 25 4 0 0 0 0 4 66 100 61 100 100 87 100 100 99 100 100 100 100 99 98 100 100 100 100 45 47 100 100 100 100 100 100 100 91 33
100 100 100 100 100 82 76 69 85 46 32 73 3 34 5 70 96 81 100 91 100 97 99 100 100 91 100 100 100 100 100 100 66 77 100 100 100 100 100 100 100 100 100
100 100 100 100 100 100 100 100 100 100 100 100 54 1 5 10 85 100 100 100 57 67 100 79 65 100 100 100 100 100 100 100 100 100 100 100 100 100 100 100 100 100 100
100 94 100 100 100 100 100 100 100 100 100 100 100 100 75 22 89 100 100 100 100 81 100 100 100 99 99 100 100 100 100 100 100 100 100 100 100 100 100 100 100 100 100
100 100 100 100 100 100 100 100 100 100 100 100 100 100 100 100 100 100 100 100 100 100 100 100 100 100 100 100 100 100 100 100 100 100 100 100 100 100 100 100 100 100 100
100 100 100 100 100 100 100 100 100 100 100 100 100 100 100 100 100 100 100 100 100 100 100 100 100 100 100 100 100 100 100 100 100 100 100 100 100 100 100 100 100 100 100
100 100 100 100 100 100 100 100 100 100 100 100 100 100 100 100 100 100 100 100 100 100 100 100 100 100 100 100 100 100 100 100 100 100 91 99 100 100 100 100 100 100 100

GFSGL_prec_cloud_081.txt.gz
Cloud_Cover
0 5 22 92 59 6 0 0 0 0 0 0 22 72 100 100 69 97 7 85 48 39 2 61 10 0 0 46 33 0 5 0 0 0 0 0 0 0 0 0 0 0 0
29 6 0 62 41 98 5 0 0 0 0 0 0 2 8 18 93 14 1 1 1 15 0 0 0 0 0 0 0 0 0 0 0 0 0 0 0 0 0 0 0 0 0
67 64 4 36 5 19 13 1 0 0 0 0 0 2 5 5 36 98 59 26 29 11 13 26 1 0 0 0 0 0 0 7 1 0 0 0 0 0 0 0 0 0 0
97 17 16 6 4 1 23 38 4 0 0 0 0 0 0 0 1 16 32 42 98 25 1 0 0 0 0 0 0 0 0 0 0 0 0 0 0 0 0 0 0 0 0
38 100 73 6 4 31 42 12 4 1 0 0 0 0 0 0 0 0 0 5 2 0 46 17 0 0 0 0 0 2 1 0 0 0 5 0 1 0 0 0 0 0 0
91 29 29 100 100 100 38 31 8 1 0 0 0 0 0 0 0 0 0 0 0 0 0 0 0 3 0 0 0 0 0 0 3 0 4 0 0 0 0 0 0 4 2
100 94 27 42 100 100 52 97 100 21 22 1 0 0 0 0 0 0 0 0 0 0 0 0 0 0 0 0 0 0 0 0 3 5 0 2 5 0 4 5 2 8 5
100 89 100 100 79 88 100 100 100 77 20 3 27 8 0 0 0 0 0 0 0 0 0 0 0 0 0 0 0 0 0 0 0 0 0 0 5 16 81 99 99 26 30
14 86 100 100 95 86 93 64 74 92 100 75 39 35 1 0 0 0 1 0 0 0 0 0 0 0 0 0 0 0 0 0 0 0 0 4 17 98 15 5 8 49 68
0 0 15 46 95 86 100 79 62 100 63 8 16 72 96 0 0 0 10 0 0 0 0 0 0 0 0 0 0 0 0 0 0 0 0 5 38 7 26 64 34 5 5
0 0 0 1 0 36 94 100 35 100 94 94 43 9 46 4 0 6 1 21 5 0 0 0 0 0 0 0 0 0 0 4 0 0 0 0 0 5 6 34 43 25 27
0 0 0 0 0 0 14 99 100 100 40 84 85 95 100 93 51 19 0 74 3 0 0 0 0 0 0 0 0 0 0 34 0 0 2 0 0 0 5 28 83 100 100
0 0 0 0 0 0 0 3 100 100 60 100 100 80 100 100 100 92 27 18 36 20 0 0 0 2 0 65 12 0 60 2 0 0 0 2 5 5 5 13 58 5 18
4 0 0 0 0 0 0 0 0 14 99 66 100 100 100 100 100 100 100 77 100 100 89 58 1 0 65 37 20 30 0 0 0 0 0 0 1 5 37 14 6 5 5
0 1 0 0 0 0 0 0 0 0 6 100 100 92 100 87 53 99 100 100 100 100 100 100 98 39 0 0 0 0 39 23 2 0 0 0 0 0 15 99 100 93 1
43 0 0 0 0 0 0 0 0 0 0 0 46 100 100 100 50 14 90 100 100 100 100 100 100 100 71 62 54 4 0 18 20 36 29 8 0 0 0 0 0 3 5
100 83 17 1 0 0 0 0 0 0 0 0 0 0 3 6 26 3 97 100 100 100 100 100 100 100 100 100 84 100 100 100 100 100 100 100 100 92 1 4 10 4 4
98 92 29 17 18 2 0 0 0 0 0 0 0 7 0 0 2 7 87 95 16 82 86 100 100 100 100 100 100 100 100 100 83 73 97 72 36 10 58 100 100 26 58
7 10 53 80 43 15 19 39 7 0 0 0 0 0 0 0 0 3 99 41 14 97 94 90 100 99 100 100 100 99 63 14 38 79 19 4 5 33 6 11 99 100 100
5 3 9 18 73 99 74 52 40 8 0 0 0 0 0 0 0 2 5 20 50 100 99 94 93 100 63 88 100 100 100 100 63 7 100 100 100 96 100 100 99 94 100
27 30 82 72 72 91 97 97 82 67 90 38 0 0 0 0 0 0 0 5 6 93 100 45 24 34 97 100 100 100 100 100 100 100 100 100 100 100 100 100 100 100 100
20 38 38 84 100 100 100 100 66 100 100 100 77 27 4 1 0 0 0 1 38 6 12 95 87 94 100 98 100 100 99 100 100 100 100 94 99 100 100 100 100 100 100
5 7 38 72 79 83 100 98 74 100 100 100 100 100 91 46 36 1 0 0 9 23 58 81 86 83 64 100 100 100 100 100 100 100 100 100 100 100 100 100 100 100 100
17 99 98 100 100 100 100 100 100 100 100 100 100 100 100 100 100 100 98 100 100 96 89 99 100 100 97 96 100 100 100 100 100 100 100 100 100 100 100 100 100 100 100
43 100 100 100 100 100 100 100 100 100 100 100 100 100 100 100 100 100 100 100 100 100 100 100 100 100 100 100 100 100 100 100 100 100 100 100 100 100 100 100 100 100 100
96 67 99 100 100 100 100 100 100 100 100 100 100 100 100 100 100 100 100 100 100 100 100 100 100 100 100 100 100 100 100 100 100 100 100 100 100 100 100 100 100 100 100

GFSGL_prec_cloud_084.txt.gz
Cloud_Cover
0 2 0 0 0 1 98 7 5 0 11 72 100 100 100 9 34 97 26 61 84 3 0 3 71 0 0 33 0 0 0 0 0 6 1 0 0 0 0 0 0 0 0
0 0 0 0 0 0 0 99 69 5 0 0 1 31 0 10 5 100 84 5 5 10 0 0 0 0 0 0 20 84 65 0 0 0 0 0 0 0 0 0 0 0 0
25 0 0 0 0 0 0 4 14 45 0 0 0 0 0 0 0 24 98 5 6 45 13 1 0 0 0 0 0 0 0 0 0 10 1 0 0 0 0 0 0 0 0
100 100 100 66 1 0 0 0 0 0 3 5 2 0 0 0 0 0 0 48 73 3 4 4 0 0 0 0 0 0 0 0 0 0 0 0 0 0 0 2 0 0 0
73 100 100 100 79 64 40 0 0 0 0 0 1 1 0 0 0 0 0 0 0 0 0 6 15 2 0 0 0 0 0 0 0 0 0 0 0 3 0 0 0 0 0
100 46 54 100 100 54 3 39 6 1 0 0 0 0 0 0 0 0 0 0 0 0 0 0 0 28 99 76 0 0 0 0 0 0 0 0 0 3 0 1 3 8 6
100 100 100 100 84 83 22 4 5 47 59 2 1 0 0 0 0 0 0 0 0 0 0 0 0 0 0 0 0 0 0 0 0 0 0 0 5 9 5 3 11 53 81
100 100 95 84 84 79 48 95 48 24 49 93 4 0 0 0 0 0 0 0 0 0 0 0 0 0 0 0 0 0 0 0 0 0 0 1 22 5 97 35 6 30 100
100 100 100 91 83 66 53 75 100 100 89 74 7 5 0 0 0 0 0 0 0 0 0 0 0 0 0 0 0 0 0 0 0 0 0 3 5 30 18 37 55 28 86
100 100 100 100 24 95 61 66 93 100 94 21 37 49 4 0 0 0 4 0 0 0 0 0 0 0 0 0 0 0 0 0 0 0 0 1 9 95 32 94 100 99 68
100 100 100 100 76 4 2 4 5 45 88 78 30 5 5 46 5 6 2 2 0 0 0 0 0 0 0 0 0 0 0 1 0 0 0 0 0 4 49 85 22 27 100
0 5 27 8 3 56 71 0 0 5 12 72 74 100 21 6 95 48 93 100 67 58 4 0 0 24 8 60 73 12 0 0 0 0 0 0 0 1 5 5 12 50 74
0 0 0 0 0 0 2 6 0 0 0 0 25 66 98 100 81 100 100 100 84 100 100 67 47 21 18 21 3 18 45 53 41 2 0 0 0 0 5 5 5 5 32
0 0 0 0 0 0 0 0 0 0 0 0 0 10 78 100 68 100 98 100 100 100 100 100 100 73 80 59 20 0 0 0 0 0 0 0 0 0 0 0 5 5 4
0 0 0 0 0 0 0 0 0 0 0 0 0 0 22 100 77 62 95 97 100 100 100 100 100 100 99 27 1 0 0 0 0 0 0 0 0 0 0 0 6 51 40
19 2 0 0 0 0 0 0 0 0 0 0 0 0 0 17 100 100 58 91 100 100 100 100 100 100 100 100 100 100 91 40 25 6 0 0 0 0 0 0 0 1 0
8 0 0 0 0 0 0 0 0 0 0 0 0 0 0 0 0 82 68 29 100 100 100 100 100 100 100 100 100 100 69 100 99 20 5 1 32 35 3 75 8 15 14
0 0 0 0 0 0 0 0 0 0 0 0 0 2 0 0 0 0 0 84 99 75 25 98 97 100 100 100 100 100 100 100 100 100 100 98 45 2 1 2 14 38 26
0 2 0 0 0 0 0 0 0 0 0 0 0 0 0 0 0 0 12 0 3 99 32 4 21 13 100 100 100 14 84 100 100 100 100 100 100 8 16 5 0 22 32
0 4 0 0 1 4 0 22 32 2 0 0 0 0 8 23 0 0 0 0 0 1 47 24 2 4 5 74 100 81 41 66 100 100 100 100 100 96 87 64 12 17 14
5 2 0 0 4 7 15 81 100 69 15 5 1 0 0 0 0 0 0 0 0 2 0 0 0 2 22 93 96 100 100 77 100 100 100 100 100 100 100 100 84 94 100
5 1 0 1 3 5 5 9 58 47 70 59 33 18 4 0 3 0 0 6 10 2 11 16 54 100 94 95 100 100 100 100 100 100 100 100 100 72 97 100 100 100 99
5 5 5 5 5 24 14 10 21 10 53 100 100 95 77 87 70 64 48 1 99 100 72 55 91 50 10 24 56 100 100 96 99 100 100 100 100 100 100 100 100 100 100
5 20 33 40 78 93 100 100 98 30 58 99 100 100 100 100 100 100 100 100 56 39 25 98 70 68 96 90 100 100 100 100 100 100 99 100 100 100 100 100 100 100 100
30 57 90 100 32 89 100 100 100 100 100 100 98 100 100 100 100 100 100 100 100 100 100 42 94 98 100 100 100 100 100 100 100 94 93 100 100 100 100 100 100 100 100
34 93 100 72 62 27 99 100 100 100 100 100 100 100 100 100 100 100 100 100 100 100 100 100 100 100 100 100 100 100 100 100 100 100 100 100 100 100 100 100 100 100 100

GFSGL_prec_cloud_087.txt.gz
Cloud_Cover
100 100 7 0 0 0 0 3 2 55 5 5 16 78 81 88 38 5 1 0 29 5 2 0 0 0 0 0 0 0 0 0 0 0 41 0 0 0 0 0 0 0 0
100 87 12 0 0 69 99 1 5 5 10 5 2 3 7 0 0 5 3 0 2 1 5 4 0 0 0 0 0 0 0 0 0 0 0 0 0 0 0 0 0 0 0
100 100 100 100 100 100 100 98 1 0 1 5 5 5 3 1 0 0 0 1 2 5 5 3 2 0 0 0 0 0 0 0 0 0 0 0 0 0 0 0 0 0 0
100 100 86 100 100 100 100 100 58 1 0 0 0 0 0 0 0 0 0 0 0 4 3 0 1 0 0 0 0 0 0 0 0 0 0 0 0 0 0 0 0 0 0
100 100 80 100 100 100 100 100 100 90 81 73 2 1 0 0 0 0 0 0 0 0 0 0 0 0 0 30 1 0 0 0 0 0 0 0 0 0 0 0 0 0 0
100 100 100 100 100 100 100 100 100 94 72 10 5 9 23 1 0 0 0 0 0 0 0 0 0 0 0 3 63 0 0 0 0 0 0 0 0 0 0 0 0 5 5
100 100 100 100 100 100 100 100 100 100 97 16 8 71 7 97 64 1 0 0 0 0 0 0 0 0 0 0 0 0 0 0 0 0 0 3 1 0 0 5 16 5 5
100 100 100 100 100 100 100 100 100 100 100 100 13 5 38 5 5 5 30 2 5 3 0 0 0 0 0 0 0 0 0 0 0 0 0 5 5 4 5 5 5 14 94
100 100 100 100 100 100 100 100 100 100 100 100 24 6 10 5 3 1 17 83 46 5 5 0 0 0 0 0 0 0 0 0 0 0 2 5 5 2 93 52 78 97 95
100 94 100 100 100 100 100 100 100 100 91 97 100 100 100 60 22 36 44 69 98 6 0 1 0 0 0 0 0 0 0 0 0 0 0 4 34 19 28 80 100 45 8
72 100 100 100 100 100 100 100 100 100 100 100 85 100 95 46 58 100 100 27 20 61 5 5 2 33 17 1 18 0 0 0 0 0 0 0 0 3 23 28 72 97 56
0 82 100 100 100 100 100 100 100 100 100 100 79 99 92 100 100 95 100 96 82 99 84 67 62 100 100 100 41 0 0 0 0 0 0 0 0 0 0 2 5 5 5
0 0 100 100 100 100 100 100 100 100 100 100 95 21 37 10 38 100 79 24 100 99 99 68 100 96 64 36 84 14 0 0 0 0 0 0 0 5 0 0 5 5 5
0 0 0 0 0 0 82 100 100 94 92 100 100 100 16 1 0 0 0 1 93 100 99 100 100 100 60 98 86 10 6 0 0 0 0 0 0 0 0 4 5 5 17
0 0 0 0 0 0 0 0 54 100 100 100 92 86 58 4 2 0 0 0 0 48 97 93 100 100 47 52 90 100 48 19 4 0 0 0 0 0 0 0 0 0 2
0 0 0 0 0 0 0 0 0 0 0 0 0 0 0 0 0 0 0 0 76 100 88 42 32 100 100 44 10 98 100 100 77 6 3 4 35 48 10 0 0 0 0
0 0 0 0 0 0 0 0 0 0 0 0 0 0 0 0 0 0 0 0 15 100 59 0 4 6 100 99 11 41 88 79 93 95 9 11 32 94 99 96 85 90 9
0 0 0 0 0 0 0 0 0 0 0 0 0 0 0 0 0 0 0 84 0 73 21 0 0 4 5 100 54 5 15 98 58 60 89 94 99 100 100 100 100 100 100
0 0 0 0 0 0 0 0 0 0 0 0 0 0 0 0 0 0 0 0 0 0 0 0 2 5 0 6 29 29 19 8 37 27 67 91 100 100 100 100 100 100 100
0 0 0 0 0 0 0 0 0 0 0 0 0 0 0 0 0 0 0 0 0 0 0 0 13 0 0 0 13 59 84 94 100 100 94 90 100 100 100 100 100 100 100
2 3 0 0 0 0 0 0 0 0 5 0 0 0 0 0 0 0 0 0 0 0 0 0 0 0 7 57 100 100 100 100 100 100 100 100 100 100 100 100 100 100 100
4 5 5 4 5 3 1 0 5 7 13 13 5 5 5 5 5 3 2 16 2 0 0 0 26 36 48 100 100 100 87 85 100 100 99 90 100 100 100 100 100 100 100
0 0 0 0 0 0 0 0 5 87 100 100 100 71 17 7 5 30 100 67 31 29 4 17 7 6 92 100 100 100 64 62 70 97 100 100 100 100 100 100 100 100 100
0 0 0 0 0 0 2 5 5 58 100 100 100 100 100 99 61 27 100 100 81 48 100 92 96 40 26 94 100 100 92 100 100 100 99 100 100 100 100 100 100 100 100
0 1 0 0 0 4 2 5 5 52 100 100 100 100 100 100 100 99 100 100 100 98 100 100 100 100 60 75 100 100 100 100 100 100 100 100 100 100 100 100 100 100 100
64 17 5 5 5 2 0 5 6 78 100 100 100 100 100 100 100 100 100 100 100 100 100 100 100 100 100 100 100 100 100 100 88 100 100 100 100 100 100 100 100 100 100

GFSGL_prec_cloud_090.txt.gz
Cloud_Cover
100 100 100 100 98 62 100 100 100 97 61 99 48 77 4 68 98 0 5 0 1 5 5 11 4 0 0 0 0 0 0 0 0 0 0 0 3 0 0 0 0 0 11
100 100 100 100 100 100 100 100 100 100 100 18 5 9 6 8 5 0 1 5 4 4 5 5 0 0 0 0 0 0 0 0 0 0 0 0 0 0 0 0 1 7 7
100 100 100 100 100 100 100 100 100 100 100 78 89 41 2 0 0 0 0 4 1 1 4 0 0 0 0 0 0 0 0 0 0 0 0 0 0 0 0 1 5 5 2
100 100 100 100 100 100 100 100 100 100 100 100 100 66 41 90 90 7 0 0 0 0 0 0 0 0 0 0 0 0 0 0 0 0 0 0 0 0 0 0 0 1 0
100 100 100 100 58 84 100 100 100 100 100 100 100 100 27 39 93 18 67 5 0 0 0 0 0 0 0 0 0 0 0 0 0 0 0 0 0 0 0 3 0 0 0
100 100 100 100 100 100 100 100 100 69 100 100 100 95 97 8 5 43 71 70 5 7 3 0 0 0 0 0 0 0 0 0 0 0 0 0 0 0 0 0 0 3 5
100 100 100 100 100 99 100 100 100 100 100 100 100 100 39 95 5 5 4 100 100 82 35 52 13 0 0 0 0 0 0 0 0 0 0 0 4 0 0 2 5 10 9
100 100 100 100 100 100 100 100 100 100 100 100 100 100 100 90 12 5 7 23 77 92 93 38 5 31 1 0 0 0 0 0 0 0 0 0 4 0 5 9 20 99 93
100 100 100 100 100 100 100 100 100 100 100 100 100 100 100 99 98 89 39 12 84 27 1 53 32 5 41 0 0 0 0 0 0 0 0 3 0 5 14 5 3 7 11
19 99 100 100 100 100 100 100 100 100 100 100 100 100 84 100 100 100 92 34 37 23 6 2 24 32 8 16 1 0 0 0 0 0 0 1 20 0 6 49 27 5 99
82 0 77 100 100 100 100 100 100 100 100 100 100 100 85 100 100 100 100 41 37 68 82 70 57 99 100 100 100 53 0 0 0 0 0 0 1 5 5 5 21 99 68
28 2 0 1 100 100 100 100 100 100 100 100 100 100 100 100 100 100 100 100 100 92 14 32 43 100 100 100 95 100 81 38 10 17 0 0 0 0 2 0 5 5 6
0 0 0 0 0 7 78 100 100 100 100 100 100 100 100 98 100 100 48 5 5 26 98 36 68 99 64 43 100 100 100 86 13 5 0 0 0 0 0 0 0 4 44
0 0 0 0 0 0 0 99 100 100 100 100 100 100 99 95 100 100 100 52 5 23 5 15 86 31 27 41 72 98 93 8 11 33 30 2 0 0 0 0 0 0 0
0 0 0 0 0 0 0 0 97 100 100 100 100 100 100 100 100 100 100 99 10 21 94 5 0 2 0 4 5 16 35 50 100 100 35 60 20 8 2 0 0 2 28
0 0 0 0 0 0 0 0 0 12 97 100 100 100 100 100 90 100 93 100 45 100 30 42 5 0 0 0 0 5 5 5 13 99 84 39 50 71 27 38 20 58 99
0 0 0 0 0 0 0 0 0 0 0 0 6 99 100 100 100 100 46 37 41 78 16 53 90 0 0 0 0 4 31 5 5 42 84 74 50 36 52 77 70 62 93
0 0 0 0 0 0 0 0 0 0 0 0 0 0 0 24 3 0 30 88 86 36 4 2 0 0 0 0 13 51 34 75 37 13 76 54 37 55 64 57 22 24 29
0 0 0 0 0 0 0 0 0 0 0 0 0 0 0 0 0 0 0 0 0 0 0 0 0 0 0 2 2 3 21 84 97 98 89 98 100 100 84 52 27 80 72
5 5 3 0 0 4 0 0 0 0 0 0 0 0 0 0 0 0 0 0 0 0 0 0 0 0 25 27 57 61 42 26 89 100 100 100 64 100 68 99 100 92 69
5 5 5 5 5 5 5 5 2 0 0 3 2 0 0 2 2 1 0 0 0 0 0 0 5 8 1 0 6 56 100 100 100 100 90 91 100 100 100 82 74 100 100
9 5 10 5 5 5 17 5 5 0 5 5 11 64 77 39 71 84 25 6 5 5 5 15 65 69 48 51 100 63 63 47 35 34 90 75 100 100 100 100 91 90 99
100 81 46 12 5 4 7 4 5 1 5 5 13 45 81 100 100 100 100 100 43 29 12 52 100 63 71 33 96 100 100 100 73 63 76 100 97 100 100 98 100 100 100
20 17 8 7 11 8 5 5 5 0 5 50 100 100 100 100 100 100 100 100 100 62 57 100 100 100 49 83 100 100 100 100 100 98 99 100 100 100 100 100 100 100 100
0 0 0 0 0 0 0 0 0 0 3 9 55 85 100 100 100 100 100 100 100 100 96 87 100 100 100 100 100 100 100 100 100 100 100 100 100 100 100 100 98 100 100
1 0 2 2 2 0 3 2 0 9 4 93 98 87 100 100 100 100 100 100 100 100 100 100 100 98 100 100 100 100 100 100 100 100 100 100 100 100 100 100 100 100 100

GFSGL_prec_cloud_093.txt.gz
Cloud_Cover
40 24 13 100 100 100 100 100 100 100 100 84 45 20 27 99 98 24 25 5 3 0 1 4 0 1 0 0 0 0 0 0 0 0 0 0 0 0 5 10 20 23 15
100 98 97 100 100 100 100 100 100 100 100 100 100 81 32 73 100 82 75 5 4 3 0 0 0 0 0 0 0 0 0 0 0 0 0 0 0 0 1 5 5 1 5
100 100 100 100 97 97 100 100 100 100 100 100 100 100 100 99 71 92 86 77 100 71 6 0 0 3 1 0 0 0 0 0 0 0 0 0 0 0 5 5 5 1 0
100 100 100 100 69 65 100 91 100 100 100 99 100 100 100 100 96 70 58 63 71 65 68 44 3 2 0 16 1 0 0 0 0 0 0 0 0 0 0 0 0 4 0
100 100 100 100 97 100 100 96 95 100 100 100 100 100 100 100 100 99 21 33 74 91 14 100 93 8 0 0 0 0 0 0 0 0 0 0 0 0 0 0 0 0 0
100 100 100 100 100 98 97 79 100 100 100 100 100 100 100 100 100 100 96 5 5 71 92 100 95 28 5 4 0 0 1 0 0 0 0 0 1 0 0 0 0 0 3
100 100 100 100 100 100 100 88 100 100 100 100 100 100 100 100 100 100 100 42 21 22 55 85 69 93 47 6 4 2 0 1 2 0 0 0 4 0 0 0 0 0 2
100 100 100 100 100 100 100 100 100 100 100 100 100 100 100 100 100 100 100 100 78 19 4 9 25 8 48 95 5 2 0 0 0 0 0 0 0 0 1 1 0 5 5
100 100 100 100 100 100 100 100 100 100 100 100 100 100 100 100 100 100 100 100 100 94 32 95 5 4 10 51 24 0 4 0 0 3 0 0 0 0 4 5 9 73 82
100 100 100 100 100 100 100 100 100 100 100 100 100 100 100 100 100 100 92 98 95 8 5 93 99 100 100 100 100 100 42 0 0 0 0 0 38 2 7 78 35 79 10
100 100 100 100 100 100 100 100 100 100 100 100 100 100 100 100 100 100 100 100 98 14 50 82 80 100 100 100 100 100 94 97 91 100 50 0 0 0 0 4 5 58 100
5 94 100 100 100 100 100 100 100 100 100 100 100 100 100 100 100 100 100 100 100 86 5 62 93 100 100 100 87 44 100 100 100 100 100 94 10 5 0 0 0 4 11
48 100 100 100 100 100 100 100 100 100 100 100 100 100 100 100 100 100 100 100 98 98 92 90 88 75 21 5 1 0 18 39 97 60 86 97 91 11 23 0 0 5 5
0 97 100 100 100 100 100 100 100 87 96 100 100 100 100 100 100 100 100 100 58 66 6 28 47 7 5 6 20 5 5 15 35 100 100 100 84 25 28 42 26 0 3
0 1 87 100 100 100 100 100 71 20 4 99 100 100 100 100 100 100 100 100 100 97 99 71 97 100 50 11 28 5 3 0 3 54 100 100 100 80 82 71 31 6 57
0 0 0 21 72 80 60 6 35 6 5 4 5 29 100 100 100 100 100 100 100 100 89 69 99 46 33 5 5 5 17 40 48 57 95 100 100 100 100 96 97 81 72
0 0 0 0 0 0 0 0 0 0 0 0 0 0 0 0 1 21 6 100 100 100 100 100 100 70 90 86 19 8 5 0 6 68 62 47 97 100 100 100 100 87 69
0 0 0 0 0 0 0 0 0 0 0 0 0 0 0 0 0 0 91 100 100 100 100 100 100 100 100 100 31 40 40 69 29 78 100 100 100 100 100 100 100 93 100
0 0 0 0 0 0 0 0 0 0 0 0 0 0 0 0 0 0 0 1 52 100 100 100 100 100 100 100 93 20 5 3 57 76 23 63 95 90 100 100 100 72 82
4 0 0 0 0 0 0 0 0 0 0 0 0 0 4 1 2 1 0 0 0 0 0 5 18 24 66 97 66 43 15 28 22 56 51 42 86 42 51 100 100 100 95
3 3 5 5 0 0 1 3 3 4 5 0 1 2 5 5 5 6 8 24 87 97 55 34 18 6 6 50 77 0 19 35 88 100 100 100 53 53 36 62 96 98 100
64 22 6 5 5 5 4 4 5 4 5 1 1 0 5 5 5 5 6 8 30 99 100 100 96 84 69 75 100 100 100 72 62 100 100 100 100 100 100 100 100 100 99
17 62 91 77 29 5 5 5 5 5 5 5 5 5 5 5 13 19 21 18 77 95 94 100 100 97 29 43 66 100 100 81 48 57 100 100 100 100 100 100 100 100 100
5 25 63 48 35 41 7 5 5 5 5 4 2 5 5 52 88 98 100 100 96 93 100 100 100 79 93 100 98 52 100 100 100 84 100 100 100 100 100 100 100 100 100
5 4 5 8 32 30 16 8 5 5 4 5 5 5 47 100 100 100 100 100 100 100 100 100 100 100 100 100 100 100 100 100 98 100 100 100 100 100 100 100 100 100 100
5 5 5 1 0 0 0 5 12 8 11 12 3 1 6 90 100 100 100 100 100 100 100 100 100 100 100 100 100 100 100 100 100 100 100 100 100 100 100 100 100 100 100

GFSGL_prec_cloud_096.txt.gz
Cloud_Cover
20 5 5 96 100 100 100 99 100 69 100 100 100 100 77 100 49 13 84 100 93 82 95 80 4 4 14 0 0 0 0 0 0 0 0 0 0 0 0 3 8 29 5
39 5 5 5 95 100 100 100 99 98 100 100 100 100 100 100 96 6 49 98 78 76 100 46 34 5 65 3 0 0 0 0 0 0 0 0 0 0 0 0 0 1 0
100 84 99 100 99 100 100 100 100 100 85 100 100 100 100 100 100 96 44 84 67 72 98 100 97 57 21 3 3 0 0 5 0 0 2 1 0 0 0 0 0 0 0
100 95 100 100 100 100 64 100 100 99 43 100 95 57 100 100 100 100 100 33 48 94 58 66 100 69 17 59 3 5 5 3 1 5 5 3 0 0 0 0 0 0 0
100 100 100 100 100 100 100 70 100 100 98 100 100 86 99 100 100 100 100 90 5 46 8 73 71 70 26 31 7 5 5 5 0 1 2 0 0 0 0 0 0 0 0
100 100 100 100 100 84 100 98 87 100 98 91 96 100 100 100 100 100 100 100 100 100 32 4 5 9 21 29 16 6 11 5 5 5 5 1 0 0 0 0 0 0 0
100 100 100 100 100 100 100 100 64 87 72 6 98 97 100 100 100 100 100 94 100 100 100 57 2 5 6 5 4 29 30 7 20 6 5 4 0 0 0 0 0 0 0
100 100 100 100 100 100 100 100 94 95 58 38 65 100 100 98 100 100 100 100 100 94 100 98 30 90 78 63 26 5 3 59 4 7 1 0 4 0 0 0 0 0 0
95 98 100 100 100 100 99 98 100 98 100 85 85 98 96 85 100 100 100 100 100 100 100 100 100 100 100 100 61 56 49 14 5 1 11 16 2 0 10 0 1 23 0
100 100 100 100 100 100 100 99 100 100 100 100 100 100 100 100 100 100 100 95 100 100 98 8 98 89 100 100 99 100 93 59 38 5 1 1 5 4 9 6 5 5 6
100 100 100 100 100 100 100 100 100 100 100 100 100 100 100 100 100 100 100 100 100 100 56 41 22 100 92 100 100 6 5 16 0 0 4 4 5 5 0 1 1 5 4
100 100 100 100 100 100 100 100 100 100 100 100 100 100 100 100 100 100 100 100 100 100 100 100 100 77 95 68 58 60 63 94 21 19 5 5 5 4 2 1 3 17 5
100 100 100 100 100 100 100 100 100 100 100 100 100 100 100 100 100 100 100 100 100 100 77 72 21 99 100 76 22 5 7 5 11 32 50 36 39 22 25 5 5 5 0
38 100 100 100 100 100 100 100 100 100 100 100 100 100 100 100 100 100 100 100 100 100 100 100 72 10 6 23 17 34 51 6 49 70 100 93 93 100 100 100 97 55 66
0 18 100 100 100 100 100 100 96 38 95 100 100 100 100 100 100 100 100 100 100 100 100 100 100 100 97 84 56 5 4 0 0 9 100 100 100 100 36 100 87 34 100
7 3 3 98 100 100 100 100 58 5 0 84 100 100 100 100 100 100 100 100 100 100 100 100 100 100 89 97 100 44 5 5 47 100 100 95 100 100 100 100 100 100 100
11 0 0 0 3 8 8 15 1 0 2 0 0 35 100 100 100 100 100 100 100 100 100 100 100 100 100 100 97 98 100 87 77 88 94 75 71 79 100 100 100 100 88
0 0 0 0 0 0 0 3 4 0 0 0 0 0 5 82 100 100 100 100 100 100 100 100 100 99 100 100 100 100 100 100 94 29 6 5 53 92 53 66 97 94 84
0 0 0 0 0 0 0 0 0 0 0 0 0 0 0 5 100 100 96 99 91 79 99 60 46 11 4 66 37 25 66 56 100 100 71 94 100 100 99 100 100 97 100
5 1 0 0 0 0 0 0 0 0 0 0 0 0 0 0 2 4 32 96 100 100 47 69 64 56 36 34 24 14 10 63 93 100 93 65 31 58 100 100 100 100 100
0 3 0 0 0 2 5 5 5 5 0 0 0 0 2 3 5 5 5 5 6 16 33 78 100 100 100 99 65 85 99 30 81 100 30 5 91 100 100 100 100 100 100
5 3 5 4 5 2 0 0 0 0 0 0 0 0 0 5 5 6 22 33 38 41 70 94 96 100 100 100 98 94 100 83 99 94 98 100 100 87 51 57 98 100 100
100 100 92 87 52 12 5 3 0 0 1 2 3 4 5 5 5 32 67 88 100 100 100 98 100 99 100 100 100 100 100 100 100 100 100 100 100 100 100 68 91 100 100
100 100 100 100 51 86 96 87 78 23 5 5 5 5 5 4 5 14 58 71 89 100 100 100 100 100 100 100 100 100 100 100 100 100 100 100 100 100 100 100 100 100 100
100 98 98 100 100 100 100 100 54 31 8 5 5 5 5 5 5 3 9 45 83 100 100 100 100 100 100 100 100 100 100 100 100 100 100 100 100 100 100 100 100 100 100
97 27 20 13 57 45 51 34 5 10 7 4 4 3 4 3 2 0 36 60 78 100 100 100 100 100 100 100 100 100 100 100 100 100 100 100 100 100 100 100 100 100 100

GFSGL_prec_cloud_099.txt.gz
Cloud_Cover
38 86 14 1 5 9 100 100 100 95 64 6 15 86 100 100 83 14 32 100 100 100 100 100 100 100 51 0 0 0 0 0 0 0 0 0 4 0 0 0 5 34 29
100 93 76 5 7 9 56 100 100 100 100 100 78 14 8 100 100 78 53 74 100 88 100 100 100 100 99 98 5 5 5 5 5 4 0 0 2 2 1 1 5 27 8
44 73 100 100 53 100 100 97 82 95 100 100 89 7 54 93 100 100 7 5 99 97 90 62 100 99 92 98 86 6 5 5 5 5 3 0 0 0 0 0 0 0 1
89 71 92 100 100 81 52 66 100 57 41 62 55 66 5 54 100 100 100 38 33 15 99 84 97 27 63 11 98 49 5 7 7 26 8 5 4 0 0 0 0 0 0
100 100 100 100 100 74 45 58 100 100 39 90 77 13 100 91 100 100 90 77 91 94 77 77 46 32 9 1 4 99 14 5 14 58 73 34 4 0 0 0 0 0 0
100 100 100 100 100 100 84 94 92 100 100 57 58 28 75 100 99 100 100 75 98 76 100 100 5 5 38 39 14 15 42 5 5 10 11 41 7 3 0 0 0 0 0
100 100 100 100 100 100 100 98 100 100 100 89 92 66 86 91 90 100 100 97 88 75 20 53 7 9 28 20 15 0 62 22 60 4 48 59 19 11 10 7 7 11 0
100 100 100 100 100 100 100 100 99 83 88 99 93 69 18 51 100 99 100 100 99 100 100 100 100 100 100 76 55 47 33 18 42 67 38 35 47 61 84 58 64 36 11
100 100 100 100 100 100 100 100 100 90 84 92 80 73 53 72 57 95 91 100 100 100 100 86 50 41 49 48 48 21 7 47 37 3 20 18 2 3 54 66 36 96 11
100 100 100 100 100 100 100 100 83 100 100 99 98 91 32 99 88 80 40 96 97 100 100 82 100 82 11 19 5 5 5 3 0 0 0 0 37 10 30 29 32 93 81
100 100 100 100 100 100 77 99 100 100 100 100 100 97 100 100 100 92 100 100 99 94 100 100 92 100 99 59 95 20 6 18 5 4 0 0 0 16 100 24 32 91 83
100 100 100 100 100 100 100 90 100 100 100 100 100 100 100 100 100 100 100 100 100 100 100 98 100 100 100 36 55 39 91 54 9 5 5 4 5 2 0 45 58 6 61
100 100 100 100 100 100 100 100 100 100 100 100 100 100 100 100 100 100 100 100 100 99 100 100 98 100 90 100 55 7 10 16 5 75 97 54 71 38 18 31 59 20 24
100 100 100 100 100 100 100 100 100 100 100 100 100 100 100 100 100 100 100 100 100 100 100 100 100 100 96 97 100 62 5 24 56 5 77 100 100 98 63 86 96 94 94
2 8 95 100 100 100 100 100 100 100 100 100 100 100 100 100 100 100 100 100 100 100 100 100 100 100 100 99 90 98 23 7 18 43 81 28 90 68 12 20 31 23 92
4 21 0 11 10 2 6 63 98 100 100 100 100 100 100 100 100 100 100 100 100 100 100 100 100 100 100 100 100 100 100 97 100 100 100 68 100 22 10 5 0 34 55
89 100 16 76 96 27 5 0 0 1 100 100 100 100 100 100 100 100 100 100 100 100 100 100 100 100 100 100 100 100 100 100 83 100 100 83 16 6 47 15 70 4 1
93 72 12 52 100 93 48 72 34 28 0 4 54 24 57 88 100 100 100 100 100 100 63 20 88 100 100 100 100 100 100 100 100 100 100 100 100 100 100 79 59 100 96
36 5 0 1 5 0 0 0 0 0 0 0 0 0 0 0 0 4 76 100 100 100 91 4 0 0 29 66 100 100 77 68 100 100 100 100 100 100 100 90 56 14 92
32 84 6 0 0 0 0 0 0 0 0 0 0 0 0 0 0 0 0 20 100 100 100 94 13 5 5 5 5 4 5 8 16 44 98 64 38 100 100 99 100 100 100
73 80 20 5 5 2 0 0 0 0 0 0 0 4 0 0 0 0 0 0 5 5 4 4 5 4 0 5 5 5 5 5 5 7 6 6 6 10 23 13 26 75 92
90 70 100 70 17 10 5 4 2 0 0 0 0 0 0 0 0 0 1 5 5 2 3 1 1 2 1 9 49 54 88 65 97 90 98 97 81 73 60 75 47 45 88
41 96 96 66 85 97 97 100 28 5 5 4 0 0 0 0 0 0 5 5 4 2 3 4 20 8 19 92 100 100 100 100 100 100 100 100 100 100 100 100 100 100 74
69 100 50 5 5 5 1 0 1 5 0 4 4 0 5 1 4 4 5 5 5 4 8 56 98 98 99 100 100 100 100 100 100 100 100 100 100 100 100 100 100 100 100
96 100 100 92 99 100 100 100 100 94 8 17 20 5 6 46 80 17 6 5 5 5 5 21 65 91 100 100 100 100 100 100 100 100 100 100 100 100 100 100 100 100 100
99 100 100 100 99 100 100 94 85 96 93 94 14 5 5 6 31 38 28 14 5 5 5 8 71 100 100 100 100 100 100 100 100 100 100 100 100 100 100 100 100 100 100

GFSGL_prec_cloud_102.txt.gz
Cloud_Cover
100 45 6 26 5 44 11 30 100 100 100 97 100 89 85 100 37 9 5 30 100 100 100 100 100 100 100 17 0 0 0 0 0 0 0 1 0 0 4 5 32 5 28
16 90 10 50 12 39 98 92 100 100 100 100 100 98 95 52 100 68 5 8 32 100 100 100 100 100 100 98 5 5 5 5 0 0 0 0 0 0 5 5 5 5 33
95 14 20 5 3 14 5 69 18 100 66 15 94 100 46 49 100 100 87 22 17 43 50 98 100 80 87 100 100 53 5 40 27 22 2 2 2 0 0 0 5 12 69
100 86 30 8 44 32 10 19 29 4 86 84 4 38 64 45 28 100 100 80 46 12 9 23 49 69 15 5 92 100 12 5 13 35 17 24 28 12 5 5 5 84 72
100 100 95 93 14 11 25 26 15 26 5 100 100 23 5 45 70 30 72 80 100 74 83 63 20 28 9 11 23 81 45 94 56 22 72 25 38 11 54 20 94 23 100
100 100 100 100 68 98 74 100 73 56 40 100 100 84 6 7 52 97 88 54 76 100 49 75 86 1 25 23 2 12 46 10 36 7 5 8 5 5 3 5 33 84 6
100 100 100 100 100 100 100 100 100 82 86 84 100 98 44 30 96 99 99 8 19 44 98 86 79 29 42 0 0 0 62 12 77 8 5 12 11 12 8 27 24 21 10
95 100 100 100 100 100 100 100 100 100 100 100 80 79 5 7 86 96 29 25 72 86 96 100 100 20 11 10 0 0 15 49 93 75 69 37 34 21 5 11 13 21 60
100 100 100 100 100 100 100 100 100 100 100 100 90 33 73 79 87 41 46 45 82 71 84 100 100 100 48 8 5 0 0 3 30 0 8 1 0 4 32 2 6 56 35
100 100 100 100 100 100 100 98 100 100 100 100 92 64 46 30 98 80 19 5 8 68 94 100 73 99 100 100 87 5 5 5 2 2 0 0 0 0 5 7 57 42 100
100 100 100 100 100 100 100 98 100 100 100 100 100 97 100 100 100 96 71 99 81 40 41 82 63 50 87 79 99 99 31 21 45 5 4 5 5 33 81 94 70 74 52
100 100 100 100 100 100 100 100 100 100 100 100 100 100 100 100 100 100 100 100 98 94 96 100 100 68 39 44 74 79 94 99 89 38 58 5 5 5 5 5 14 23 21
100 100 100 100 100 100 100 100 100 100 97 100 100 100 100 100 100 100 100 100 100 100 100 100 100 100 90 78 91 81 87 99 100 100 81 5 2 2 5 12 26 0 5
100 100 100 100 100 100 100 100 100 100 100 100 100 100 100 100 98 100 100 100 100 100 100 100 100 100 100 97 95 100 69 94 100 95 97 7 5 4 1 5 5 80 0
24 75 100 100 100 100 100 100 100 100 100 100 100 100 100 100 92 5 68 100 99 100 100 100 100 100 100 99 100 100 100 98 94 93 100 100 65 46 6 5 5 80 84
98 54 5 5 6 4 54 100 97 94 100 100 100 100 100 100 100 100 100 98 100 100 100 100 100 100 100 100 100 100 100 100 100 100 100 100 100 100 85 48 5 100 100
99 87 23 98 5 5 4 0 2 86 100 100 90 99 100 100 100 100 100 100 100 100 100 100 96 98 100 100 100 100 100 100 100 100 100 100 100 100 100 100 100 81 14
85 88 73 88 92 93 84 10 29 19 1 33 94 96 93 94 95 88 100 36 6 82 99 100 100 100 100 100 79 91 100 100 100 100 100 100 100 100 100 100 100 100 100
100 100 99 94 81 98 83 55 82 49 4 1 0 14 0 0 0 0 9 24 2 0 0 0 10 77 100 100 98 100 99 66 27 81 100 100 100 100 36 20 98 100 100
100 100 100 100 100 100 100 28 4 0 0 0 0 4 0 0 0 0 0 0 0 0 0 0 0 0 3 5 5 29 10 5 0 5 4 6 14 5 5 4 4 3 4
100 100 100 100 100 100 100 86 44 7 20 6 0 14 0 0 0 0 0 0 0 0 0 0 0 0 0 0 4 2 5 4 4 0 0 5 5 5 5 5 5 5 5
100 100 100 100 100 100 95 100 100 34 5 4 6 44 2 0 0 0 0 0 0 0 0 0 3 0 2 1 5 5 5 5 2 3 6 16 14 9 6 6 9 5 12
100 100 100 100 100 100 100 100 100 100 77 78 38 5 5 5 4 3 1 0 0 0 0 0 0 0 1 5 5 3 4 4 51 87 86 92 97 98 100 89 81 85 86
98 100 100 100 100 100 98 54 35 82 59 5 5 8 20 11 12 48 45 7 5 5 7 14 2 1 4 5 1 4 13 78 98 100 100 100 100 100 100 100 100 100 100
100 100 100 100 100 100 100 100 100 99 76 14 37 45 51 64 8 5 5 5 5 5 5 5 5 4 1 1 10 57 86 100 100 100 100 100 100 100 100 100 100 100 100
95 100 100 100 100 100 100 100 100 50 22 85 81 37 18 60 69 31 34 48 5 18 5 5 5 4 5 10 19 11 22 48 20 71 97 94 98 100 100 100 100 100 100

GFSGL_prec_cloud_105.txt.gz
Cloud_Cover
82 98 14 6 5 7 34 67 31 78 70 75 100 100 100 76 90 89 5 65 34 95 95 94 7 89 100 5 28 18 12 9 2 8 5 64 77 7 85 100 99 100 37
84 52 98 8 17 16 5 20 94 96 92 100 100 97 22 66 84 100 100 81 12 38 24 100 91 5 50 100 23 22 3 0 0 0 3 20 32 92 100 100 100 73 100
9 97 100 60 52 34 15 7 84 17 85 40 75 92 100 77 100 99 100 100 85 73 18 21 76 56 7 13 65 72 27 71 82 86 43 15 7 44 16 88 100 100 100
100 94 34 92 43 98 100 9 12 6 5 27 36 94 94 70 81 61 46 95 100 92 37 100 94 50 22 32 19 94 99 52 92 68 86 96 13 100 76 18 37 100 95
100 100 100 100 100 100 92 88 72 5 12 5 31 99 100 95 64 13 31 80 100 99 44 99 59 90 25 64 5 5 51 46 40 92 65 7 10 13 5 5 5 5 17
100 100 99 100 100 59 71 39 77 81 6 5 42 55 17 92 73 81 54 24 47 77 100 100 48 31 26 1 1 5 44 5 39 5 62 67 20 3 3 0 5 20 5
95 100 100 100 89 100 99 100 78 78 99 50 78 100 96 98 100 97 94 16 5 18 27 74 100 52 5 34 24 8 39 2 37 4 7 5 16 21 8 29 6 9 16
100 73 93 100 100 100 97 100 100 100 100 100 100 100 94 46 97 84 45 11 54 42 61 100 83 14 54 11 4 27 34 35 43 47 77 48 9 7 5 5 5 30 45
82 91 92 96 100 100 100 100 100 100 100 100 100 100 98 73 25 57 29 53 94 70 34 87 100 100 100 67 76 24 2 0 4 2 1 0 0 0 1 0 8 4 5
100 100 100 100 99 100 100 100 100 100 100 100 100 100 93 98 100 97 100 100 100 99 45 5 5 65 95 100 100 98 91 6 12 3 5 5 8 7 50 24 50 2 0
100 100 100 100 100 100 100 100 100 100 100 100 100 100 100 100 100 100 100 95 100 100 77 17 39 9 5 33 52 84 85 55 28 68 79 42 73 99 97 77 74 11 8
100 100 100 100 100 100 97 100 100 100 100 100 100 100 100 100 100 100 100 100 100 100 97 99 81 73 87 80 98 91 73 96 85 18 57 79 68 62 100 100 93 18 5
100 100 100 100 100 100 100 100 100 100 100 100 100 100 100 100 100 100 100 100 100 100 100 99 100 100 100 100 100 90 75 73 39 79 89 68 69 71 25 84 100 100 94
100 100 100 100 100 100 100 100 100 98 100 100 100 100 100 100 100 100 100 100 100 100 100 100 100 100 100 100 100 100 100 100 100 76 13 50 72 79 77 42 99 100 98
100 100 100 97 98 78 62 100 100 100 100 100 100 100 100 100 100 100 100 96 100 100 97 100 98 100 100 100 100 100 100 100 100 100 96 98 100 97 100 96 99 100 100
100 100 100 100 100 45 5 5 11 100 100 100 100 100 100 100 98 80 100 90 100 100 100 98 100 100 100 85 100 100 100 100 100 100 100 100 100 100 100 91 97 100 100
100 100 100 100 94 25 4 5 74 59 33 100 100 100 100 100 100 100 100 100 100 100 100 100 100 100 100 100 86 93 20 100 80 99 100 100 100 100 100 100 94 100 100
100 100 100 100 100 84 70 22 5 5 5 37 48 100 100 98 100 100 100 100 98 100 100 88 93 100 100 91 88 94 100 100 100 100 25 89 100 100 100 100 100 100 100
100 100 100 100 100 100 93 62 29 52 30 94 98 14 5 10 86 72 5 0 1 4 20 96 100 100 59 5 60 62 70 77 84 57 38 70 100 94 82 22 59 97 100
100 100 100 100 88 100 100 98 82 57 9 31 31 72 96 63 8 5 5 2 0 0 0 0 0 0 0 0 1 1 1 4 2 2 1 0 0 1 0 28 68 6 29
100 100 100 100 100 100 100 100 100 100 100 100 100 100 100 94 89 5 0 0 0 0 0 0 0 0 0 0 0 0 0 0 0 5 0 3 0 1 5 5 5 5 5
93 100 100 100 100 100 100 100 100 100 100 100 100 100 100 100 100 90 5 10 51 18 1 0 0 1 0 0 0 0 0 0 4 5 5 3 5 5 5 5 5 5 5
100 100 100 100 100 100 100 100 100 100 100 100 100 100 100 100 100 100 100 87 84 18 0 0 0 2 3 5 0 0 2 1 2 5 5 3 3 4 10 54 88 69 68
100 100 100 100 100 100 100 100 100 100 100 100 100 100 100 100 100 100 97 100 100 55 10 67 99 99 61 2 5 1 1 3 2 3 26 55 71 100 100 100 100 100 100
88 100 100 100 100 100 100 100 100 100 100 100 100 100 100 100 100 100 100 100 100 100 100 84 7 5 5 5 4 7 50 0 1 27 34 71 96 100 100 100 100 100 100
100 95 84 100 79 91 99 98 83 96 100 100 100 100 100 100 100 100 100 100 100 100 100 53 92 10 12 17 9 38 41 8 2 30 13 35 98 100 100 100 100 100 100

GFSGL_prec_cloud_108.txt.gz
Cloud_Cover
0 18 4 63 32 51 19 0 93 100 90 100 100 88 40 47 64 87 100 99 98 1 3 15 16 14 3 17 4 3 56 51 81 31 12 5 5 36 8 39 73 100 100
0 0 7 10 6 5 5 5 5 6 93 22 96 100 45 26 6 79 93 100 83 44 5 4 4 5 34 4 4 6 5 65 0 87 4 6 5 19 50 97 90 67 52
18 13 64 18 98 35 95 1 5 20 35 5 16 87 8 10 100 71 60 50 65 98 19 6 6 3 4 5 5 5 3 14 5 3 0 8 5 12 70 92 5 23 24
100 90 22 48 83 2 53 100 63 4 1 37 27 41 5 70 87 68 18 23 62 46 68 90 63 70 45 5 3 5 4 5 3 5 5 2 32 86 90 64 5 5 3
53 98 90 92 96 41 54 82 100 69 5 3 4 4 74 84 100 100 24 36 6 94 72 75 95 16 50 6 4 24 1 0 1 0 4 5 3 2 5 4 3 5 5
100 100 100 100 100 89 99 99 100 27 6 5 46 5 34 52 21 98 96 26 5 32 26 70 100 100 96 4 4 2 43 48 0 0 0 2 5 71 5 5 5 29 5
100 100 88 98 90 72 96 100 100 32 96 100 100 100 64 26 50 29 66 90 56 5 5 5 22 19 96 8 5 5 1 1 24 4 3 0 10 3 0 2 5 5 4
100 100 89 98 81 92 100 100 92 100 99 100 100 100 100 70 11 16 20 56 69 28 16 59 25 12 96 18 5 5 5 4 2 3 11 15 0 0 0 0 0 16 3
100 100 80 44 100 88 100 100 100 96 70 100 100 100 100 95 100 99 77 57 90 90 100 38 5 5 15 8 28 43 41 5 5 5 5 5 5 6 30 0 0 0 0
100 100 100 98 93 94 100 100 100 98 100 100 100 100 100 100 100 96 100 74 32 83 15 68 5 5 5 8 10 67 33 68 44 96 30 14 44 100 65 40 5 10 3
100 100 100 100 100 92 100 77 100 100 100 100 100 100 100 100 100 100 98 83 100 100 99 100 93 69 46 93 64 25 75 70 32 62 9 60 34 94 93 72 92 16 53
100 100 100 100 100 100 100 100 100 100 100 100 100 100 100 100 99 100 96 98 97 100 100 100 100 100 100 100 94 88 100 100 95 39 77 34 27 5 69 18 6 11 7
100 100 100 100 100 100 100 100 100 100 100 100 100 100 99 100 100 100 100 100 100 79 91 100 57 67 91 100 100 99 100 90 100 96 77 100 94 40 6 6 87 50 53
100 100 100 100 100 100 100 100 100 100 100 100 100 100 100 100 96 100 100 100 100 100 100 100 100 100 100 100 100 100 100 100 99 93 100 100 100 100 88 50 68 13 27
100 100 100 100 100 100 100 100 100 100 100 100 100 100 100 100 96 100 100 100 100 100 100 100 100 100 100 100 100 92 100 100 100 100 100 100 100 100 100 100 100 100 71
100 100 100 100 100 100 100 100 100 100 100 100 100 100 100 100 100 100 100 100 100 100 100 100 100 100 100 100 100 100 96 56 5 38 100 100 100 100 100 100 100 100 100
100 100 100 100 100 100 100 100 100 100 100 100 100 100 100 100 71 100 92 0 71 100 100 100 100 100 100 94 97 65 100 100 100 100 100 100 8 82 99 44 91 100 76
45 100 100 100 95 100 100 100 100 100 100 92 60 94 100 100 98 61 7 7 11 0 5 75 98 100 100 100 100 90 100 100 100 100 100 100 100 100 100 69 98 78 24
100 100 88 72 100 49 66 95 100 100 100 99 96 64 47 44 80 60 73 92 87 73 10 1 0 4 26 64 100 100 100 100 100 100 100 100 95 98 96 100 35 17 50
100 100 100 98 100 100 100 100 100 100 100 70 97 85 100 99 72 6 42 25 6 51 100 34 7 5 4 0 0 0 0 25 33 9 0 0 0 0 0 0 0 2 6
100 100 90 100 100 100 91 100 100 100 100 100 100 100 100 100 100 100 100 98 52 52 73 100 100 100 90 14 2 0 0 0 0 0 0 0 0 0 0 3 2 0 4
100 100 100 100 97 100 100 83 99 100 100 100 100 100 92 100 100 100 100 100 100 58 95 71 100 100 98 100 91 34 3 0 0 0 0 0 0 4 4 5 5 5 5
100 100 100 100 93 100 100 100 99 99 98 100 100 100 100 100 100 100 100 100 100 75 80 77 86 90 100 100 100 69 30 34 35 2 3 4 5 5 5 23 27 17 19
100 100 100 92 100 83 100 100 76 100 100 100 100 100 100 100 100 100 100 100 100 100 100 100 100 100 100 100 100 100 100 100 98 97 86 9 13 8 13 57 84 69 95
100 100 100 100 100 100 88 46 100 99 76 100 99 100 100 100 100 100 100 100 100 100 100 100 100 100 100 100 100 100 100 100 100 100 100 100 84 98 99 99 96 100 100
99 42 70 77 87 100 86 100 100 100 96 73 92 58 46 96 100 100 100 100 100 100 100 100 100 100 100 100 100 100 100 100 100 96 96 100 100 76 100 100 100 100 100

GFSGL_prec_cloud_111.txt.gz
Cloud_Cover
4 2 5 25 41 90 43 100 97 91 100 98 100 100 100 90 100 81 52 65 86 22 3 0 3 2 2 6 84 100 100 100 85 68 9 55 4 5 3 21 5 14 87
100 100 6 5 32 5 5 5 30 6 61 100 11 47 9 46 60 37 80 78 33 26 21 5 8 0 0 0 0 6 21 92 100 86 16 9 5 8 69 94 11 5 5
100 100 33 5 0 2 22 5 1 6 77 31 35 88 45 28 12 58 92 61 63 98 88 35 5 6 5 2 0 0 0 0 1 16 5 3 11 92 86 53 68 28 47
100 100 78 29 86 49 9 99 5 1 1 5 62 20 8 12 41 100 26 38 27 28 69 67 77 98 43 0 1 3 5 1 0 0 2 5 7 7 16 26 99 58 33
100 100 100 99 97 53 76 93 28 34 19 4 0 4 10 52 48 79 27 6 4 4 5 64 11 100 100 91 23 0 1 5 5 5 0 2 6 17 45 59 39 5 28
100 100 100 100 100 100 100 100 44 64 38 58 68 29 5 41 26 69 40 5 5 5 5 5 5 5 63 99 100 61 41 0 0 0 4 17 4 5 3 0 2 6 22
100 100 100 100 100 100 100 100 100 93 100 100 100 100 100 89 72 33 6 5 5 6 8 6 5 5 5 50 63 26 90 5 13 6 2 7 0 0 2 5 5 0 9
100 100 100 100 100 100 40 87 100 100 100 100 100 86 98 71 69 55 54 5 43 27 5 10 24 5 5 5 8 6 5 5 3 5 13 4 1 0 0 0 0 0 6
100 100 100 100 100 22 92 100 99 100 100 100 94 100 100 100 100 100 100 64 55 74 52 57 63 6 0 0 0 6 39 5 10 100 100 70 5 5 5 3 5 0 3
100 100 100 100 100 100 100 100 100 99 100 100 100 100 100 100 100 100 100 92 52 98 78 50 5 49 6 4 19 46 10 10 5 54 45 83 25 97 44 26 5 1 4
100 100 100 100 100 100 100 97 94 99 100 98 100 100 100 100 100 100 100 100 100 100 100 60 38 6 8 94 100 100 68 19 90 99 83 100 88 24 8 8 5 5 5
100 100 100 100 100 100 100 100 100 100 100 100 100 100 98 100 93 71 100 100 100 100 93 100 100 100 100 82 74 90 72 57 12 6 53 33 79 76 5 5 21 5 5
100 100 100 100 100 100 100 100 100 100 85 97 100 78 100 100 100 100 100 100 100 100 94 99 96 100 100 100 91 29 99 81 9 5 54 59 51 30 95 67 99 15 30
100 100 100 100 100 100 100 100 100 100 100 100 100 100 100 100 87 98 100 92 99 100 100 100 100 100 100 97 62 9 40 12 61 45 70 100 99 86 88 78 36 68 26
100 100 100 100 100 100 100 100 100 100 100 100 100 100 100 100 100 100 99 100 73 100 100 100 100 100 100 100 100 100 100 100 100 100 100 100 100 100 100 100 75 52 92
100 100 100 100 100 100 100 100 100 100 100 100 100 100 100 100 100 100 100 100 100 100 100 100 100 100 100 100 100 100 100 100 100 100 66 100 100 100 100 100 100 100 100
100 100 100 100 100 100 100 100 100 100 100 100 100 98 70 100 100 100 100 100 100 100 100 100 100 100 100 100 100 100 100 100 100 91 9 0 85 98 100 100 100 100 100
100 40 81 100 98 98 99 52 62 100 100 100 100 99 100 100 100 100 99 100 100 100 100 100 100 100 100 100 100 100 100 100 100 100 52 4 14 0 0 22 60 100 100
9 5 41 70 47 72 59 100 77 100 75 97 99 100 100 100 100 100 99 46 5 40 70 46 82 100 100 90 63 86 100 70 41 44 1 1 0 0 0 0 0 0 0
89 57 56 54 100 44 15 96 21 70 66 100 95 28 90 32 36 98 100 93 37 78 96 67 5 5 6 36 5 5 5 11 100 70 71 40 5 2 0 0 0 0 0
100 100 58 94 98 88 14 95 82 48 6 70 86 87 89 92 99 100 100 97 39 46 94 100 90 77 100 92 59 6 24 100 98 78 51 52 64 8 7 34 13 5 4
100 100 100 100 97 100 100 100 100 89 48 8 65 100 100 94 56 100 100 100 88 100 100 100 100 100 100 99 98 92 41 96 73 92 86 100 92 75 88 65 59 62 59
100 100 100 100 100 100 100 67 81 99 94 73 94 100 100 100 100 95 100 100 100 94 100 100 100 100 100 100 99 100 99 75 92 89 96 100 100 100 100 100 88 46 56
100 100 100 100 100 26 100 100 100 96 100 100 98 100 100 100 100 100 100 100 100 100 100 100 100 100 100 100 100 100 81 92 98 100 100 100 100 100 100 99 94 96 96
58 61 17 96 86 74 65 26 83 98 100 100 96 99 100 100 82 90 95 99 100 100 100 97 100 100 100 100 100 100 100 100 100 100 100 100 100 92 100 100 100 100 100
45 5 5 48 100 88 100 67 12 33 100 25 96 100 100 100 100 100 91 100 81 86 70 80 99 100 100 100 100 100 80 100 100 100 100 100 100 100 100 100 100 100 100

GFSGL_prec_cloud_114.txt.gz
Cloud_Cover
94 100 96 82 94 14 5 78 6 29 24 100 100 94 100 100 76 100 88 92 67 98 42 5 5 5 4 3 12 40 29 7 12 5 7 5 18 9 98 100 64 71 97
100 100 100 100 100 83 23 5 2 4 8 95 65 80 76 98 100 89 96 36 7 6 17 11 8 13 4 4 0 4 5 4 6 5 5 4 5 5 96 100 100 94 41
100 100 100 100 100 100 87 22 5 5 78 5 5 14 13 66 99 96 100 98 20 6 14 29 8 5 85 1 1 4 5 5 5 5 4 5 7 5 9 90 100 79 56
65 100 100 100 100 100 100 100 99 8 7 0 3 5 9 9 28 47 100 96 88 51 33 78 6 78 23 97 6 11 5 3 2 5 5 1 0 4 2 7 2 13 5
94 100 97 100 100 100 100 100 100 40 40 2 5 26 38 96 28 81 62 47 19 72 6 5 12 6 95 60 60 96 52 8 5 0 0 2 2 8 8 3 0 0 0
100 100 100 100 100 100 100 100 100 100 100 61 0 8 100 100 100 84 46 42 37 5 5 5 5 5 5 30 100 88 90 79 96 62 20 28 1 3 0 4 4 2 14
80 100 100 100 100 100 100 100 100 100 100 100 100 100 46 100 100 100 86 68 6 5 16 5 5 5 5 5 54 71 57 100 100 100 100 100 47 19 90 27 16 4 30
99 100 100 100 100 100 100 100 100 100 100 100 100 100 100 100 99 89 100 23 55 78 48 5 5 5 11 49 5 5 5 28 44 95 100 100 100 100 100 88 38 27 7
100 100 100 100 100 100 100 100 100 100 100 100 100 100 100 100 100 100 100 100 96 100 88 52 99 100 94 61 78 7 5 0 4 5 45 78 39 18 93 100 100 100 100
100 100 100 100 100 100 100 100 100 100 100 100 100 100 100 100 100 100 100 100 100 100 100 89 37 83 100 100 97 79 82 29 62 37 88 66 94 95 77 63 54 100 100
100 100 100 100 100 100 100 100 100 100 100 100 99 100 100 100 100 100 100 100 100 100 100 97 62 96 100 100 90 24 9 100 86 80 73 56 63 74 31 17 25 5 23
100 100 100 100 100 100 100 100 100 91 98 86 67 100 100 100 100 100 100 100 100 100 100 98 100 91 99 99 98 100 100 16 89 92 44 5 8 24 11 85 100 74 28
100 100 100 100 100 100 100 100 100 100 100 100 100 91 69 100 100 100 100 100 100 100 100 100 100 100 100 100 100 100 100 89 97 85 54 5 5 5 5 5 7 84 100
100 100 100 100 100 100 100 100 100 100 100 100 100 100 100 98 100 100 100 100 100 100 100 100 100 100 100 100 100 100 100 100 100 100 100 100 100 100 74 60 10 98 100
100 100 100 100 100 100 100 100 100 100 100 100 100 100 100 100 100 100 100 100 100 100 100 100 100 100 100 100 98 63 71 98 100 100 98 100 100 90 100 100 100 100 96
100 100 100 100 100 100 100 100 100 100 100 100 100 100 100 100 100 100 100 100 100 100 100 100 100 100 100 100 100 100 100 100 100 99 100 94 100 100 100 100 100 100 100
97 99 100 84 100 100 100 100 100 100 100 100 100 100 100 100 100 100 100 88 100 100 100 100 100 100 100 100 100 100 100 100 100 100 100 100 100 100 100 100 100 100 100
100 100 100 100 100 100 100 100 100 100 100 100 100 100 100 100 81 95 100 100 100 100 100 100 100 100 100 58 100 100 93 16 98 100 100 42 72 89 89 99 100 80 20
91 100 90 100 100 100 100 100 90 100 100 99 14 89 100 100 100 100 100 100 100 100 89 98 93 87 81 52 81 100 100 100 56 5 47 85 97 100 59 5 4 3 2
16 5 14 67 100 100 100 100 90 87 95 89 100 100 53 99 100 100 72 96 95 100 100 97 100 100 88 56 48 100 100 100 88 48 6 55 47 62 40 5 5 5 5
5 34 91 100 95 57 80 98 85 77 28 8 12 85 100 100 83 68 26 18 76 55 94 100 99 77 86 81 64 91 100 97 18 78 95 77 100 100 98 14 5 5 7
0 17 39 100 100 100 94 84 100 82 93 100 100 100 100 100 64 52 100 83 88 92 92 99 100 100 100 100 100 100 100 89 100 100 97 98 99 100 100 84 71 94 100
4 1 23 87 100 100 100 100 100 100 98 95 100 100 100 100 94 32 67 100 99 72 58 86 100 100 100 100 100 100 100 100 100 100 100 100 100 100 100 100 91 75 100
5 50 17 4 31 10 33 100 100 100 97 96 100 100 100 100 100 100 99 98 100 95 64 67 100 100 100 100 100 100 100 100 100 100 100 100 100 100 100 100 100 100 100
8 3 14 5 5 5 77 75 8 31 97 88 42 96 100 100 100 100 100 100 100 100 100 98 94 100 100 100 100 100 100 100 100 100 100 100 100 100 100 100 100 100 100
96 96 25 15 68 91 81 64 100 32 56 4 20 64 43 38 74 100 93 98 100 100 100 100 100 100 100 100 100 100 100 100 100 100 100 100 100 100 100 100 100 100 100

GFSGL_prec_cloud_117.txt.gz
Cloud_Cover
43 100 100 100 100 92 0 3 85 99 98 100 42 75 99 87 29 91 84 69 71 69 100 50 5 5 7 5 5 1 0 0 0 0 5 22 5 2 5 5 55 42 85
6 26 99 100 100 100 100 27 5 83 86 72 72 92 63 34 78 31 88 98 72 62 99 50 54 97 50 38 16 27 55 99 4 5 0 0 5 4 0 0 8 4 5
5 5 98 100 100 100 100 100 39 5 5 5 25 8 5 68 75 100 99 100 94 72 100 100 100 100 100 100 100 31 5 5 3 0 0 0 0 0 0 5 4 0 0
51 100 44 49 72 100 100 100 100 73 8 26 23 49 40 97 99 75 87 83 100 100 55 100 85 82 74 92 100 100 100 68 96 37 37 9 1 1 1 1 5 4 2
100 81 76 100 95 89 100 100 100 100 99 7 15 67 100 73 85 100 100 91 99 100 100 86 28 61 60 77 55 90 100 100 100 100 93 100 96 90 94 51 3 5 15
100 84 100 92 30 73 100 51 100 100 100 100 47 100 100 94 93 14 94 93 100 100 100 100 75 5 62 17 19 43 54 91 99 100 100 83 30 29 7 100 100 100 10
100 100 88 100 100 100 99 100 100 100 100 100 100 100 100 100 70 100 92 50 71 100 88 100 100 96 5 6 12 64 94 23 67 31 19 58 55 99 95 9 12 100 100
100 100 100 100 100 100 100 100 100 100 100 100 100 100 100 100 100 100 100 98 18 94 99 6 98 100 62 100 95 60 34 68 86 47 97 34 48 8 5 14 8 5 62
100 100 100 100 100 100 100 100 100 100 100 100 100 100 100 100 100 100 75 90 71 97 99 100 100 100 96 68 92 64 63 82 94 95 100 84 5 22 5 5 5 10 72
100 96 100 100 100 100 100 100 100 100 100 100 100 100 100 100 100 100 100 100 100 100 100 100 100 100 100 90 62 68 36 100 98 100 96 68 6 33 70 31 66 37 55
100 100 98 100 100 100 100 100 100 100 100 100 100 100 100 100 100 100 100 100 99 100 100 100 100 100 99 100 95 88 62 100 97 100 98 58 70 32 66 63 57 32 58
100 100 100 100 100 100 100 100 100 100 100 100 100 100 100 100 100 100 100 100 98 94 100 99 100 100 100 100 97 100 83 68 98 77 80 20 79 70 85 14 5 5 14
100 100 100 100 100 100 100 100 100 100 100 100 100 100 100 100 100 81 100 100 100 96 100 100 100 100 100 100 100 97 100 99 99 100 88 96 99 99 100 100 95 83 9
100 100 100 100 100 100 100 100 100 100 100 100 100 100 100 100 97 85 98 100 100 100 100 100 94 72 99 99 97 83 98 100 100 100 100 100 100 100 100 100 100 100 100
100 100 100 100 100 100 100 100 100 100 100 100 100 100 100 100 100 100 100 98 100 100 100 95 92 99 89 67 100 100 100 100 100 100 100 100 100 100 100 99 100 96 84
100 100 100 100 100 100 100 100 100 100 100 100 100 100 100 100 100 100 100 100 100 100 100 100 100 100 100 100 100 100 100 100 100 100 100 100 100 100 100 100 100 100 100
100 100 100 100 100 100 100 100 100 100 100 100 100 100 100 100 100 100 100 100 100 100 100 100 100 100 100 100 100 100 100 93 100 100 100 100 100 100 100 100 100 100 100
100 100 100 100 100 100 96 96 96 100 100 100 100 100 100 100 100 100 100 100 100 100 100 100 100 100 100 100 100 100 100 99 98 92 86 100 100 73 100 35 5 5 5
100 100 100 100 100 100 100 100 100 100 100 100 100 100 100 100 100 100 100 85 96 100 100 100 100 100 100 100 94 94 92 100 100 100 100 100 99 100 100 96 98 100 96
100 100 100 100 100 100 100 100 100 100 100 100 100 100 100 100 100 100 100 100 100 100 100 100 100 95 100 84 100 100 100 100 94 81 70 100 100 91 98 100 99 100 100
98 98 97 96 100 100 99 94 100 100 100 100 99 100 97 87 100 100 100 83 98 100 100 100 100 100 100 100 100 100 100 87 50 78 100 100 100 100 100 100 100 100 100
0 0 0 0 0 0 2 8 36 87 100 100 99 100 100 100 100 93 85 68 98 98 100 93 100 100 99 100 100 100 100 100 100 100 100 100 100 100 100 100 100 100 100
5 4 3 0 0 0 0 0 0 0 0 0 2 5 57 98 90 51 17 48 94 98 100 100 100 100 100 100 100 100 100 100 100 100 100 100 100 100 100 100 100 100 100
5 5 5 5 6 16 3 5 5 5 3 0 0 0 1 5 9 34 86 63 58 86 100 100 100 100 100 100 100 100 100 100 100 100 100 100 100 100 100 100 100 100 100
87 42 4 12 4 2 5 5 5 5 5 5 5 5 0 3 5 5 5 5 5 47 94 98 75 85 100 100 100 100 100 100 100 100 100 100 100 100 100 100 100 100 100
21 1 7 41 98 79 5 2 62 81 62 39 100 14 5 5 4 5 5 52 78 77 79 57 10 9 45 86 100 100 100 100 100 100 100 100 100 100 100 100 100 100 100

GFSGL_prec_cloud_120.txt.gz
Cloud_Cover
5 89 100 100 100 100 91 7 5 43 37 100 99 99 95 100 77 13 30 5 5 5 5 52 60 54 29 28 5 4 5 5 2 5 1 3 0 0 3 1 0 0 0
5 5 6 97 100 100 100 100 99 10 13 13 7 59 89 77 100 90 57 69 9 75 67 29 5 5 9 33 40 31 5 5 5 5 5 5 2 5 5 5 5 5 4
1 4 5 52 100 100 100 100 100 100 99 25 11 18 85 58 100 100 100 93 96 95 100 68 15 16 23 23 11 1 0 2 5 13 50 32 4 7 65 72 15 4 5
99 1 6 62 100 66 99 100 100 100 100 100 100 74 37 100 88 98 100 100 100 100 100 100 94 75 73 100 46 79 58 49 8 5 5 9 14 8 0 1 25 84 66
67 3 18 8 19 5 36 100 98 100 100 100 100 100 100 13 100 91 39 96 85 100 100 100 100 100 94 90 94 94 100 100 72 18 43 27 60 13 5 1 5 34 35
100 100 75 100 57 13 36 98 94 89 100 55 100 100 100 87 25 100 79 77 33 97 100 100 100 100 100 100 100 100 100 100 100 100 66 40 7 5 5 5 21 5 5
100 97 100 100 78 100 91 86 90 51 96 100 100 96 100 100 100 12 24 92 100 95 91 100 100 100 100 99 100 100 100 100 100 38 75 70 36 12 5 5 5 59 33
98 100 100 100 100 100 100 85 100 100 100 100 83 100 100 100 100 100 96 100 90 95 99 92 87 100 92 54 91 100 100 100 100 95 51 41 44 8 5 5 0 13 33
100 100 100 100 100 100 100 100 100 100 100 100 100 100 100 100 100 100 100 100 100 100 98 7 25 33 100 100 100 100 100 100 99 90 83 93 76 54 14 5 5 5 5
100 100 100 100 100 100 100 100 100 100 100 100 100 100 100 100 100 100 100 100 100 96 100 98 100 100 100 100 100 100 100 100 99 97 98 94 96 81 100 25 68 5 53
100 100 100 100 100 100 100 100 100 100 100 100 100 100 100 100 100 100 100 100 100 100 100 100 100 100 100 100 100 100 92 96 100 96 84 82 71 71 41 81 46 100 93
100 100 100 100 100 100 100 100 100 100 100 100 100 100 100 100 100 100 100 100 100 100 100 100 100 95 96 100 100 88 100 100 100 100 96 98 96 94 84 91 100 90 45
100 100 100 100 100 100 100 100 100 100 100 100 100 100 100 100 100 100 100 100 100 100 100 100 100 100 100 100 100 100 100 100 80 100 100 100 100 100 75 88 100 40 66
100 100 100 100 100 100 100 100 100 100 100 100 100 100 100 100 100 100 98 100 100 100 100 100 100 100 100 100 93 95 94 100 100 100 82 93 100 100 100 100 100 100 96
100 100 100 100 100 100 100 100 100 100 100 100 100 100 100 100 100 100 100 100 100 100 100 100 100 100 50 77 87 17 61 74 6 6 78 39 100 100 100 100 100 100 100
100 100 100 100 100 100 100 100 100 100 100 100 100 100 100 100 100 100 100 100 100 100 100 100 99 100 100 95 95 69 96 41 92 42 70 100 100 100 99 96 100 100 100
100 100 100 100 100 100 100 100 100 100 100 100 100 100 100 100 100 100 100 100 100 100 100 100 100 100 100 98 100 100 87 65 97 100 100 100 100 100 100 100 100 100 100
100 100 100 100 100 100 100 100 100 100 100 100 100 100 100 100 100 100 100 100 100 100 100 100 100 100 100 100 100 100 100 100 100 100 100 100 100 100 100 100 100 100 100
100 100 100 100 100 100 100 100 100 100 100 100 100 100 100 100 100 100 100 100 100 100 100 100 100 100 100 100 100 100 100 100 100 100 100 100 100 100 92 100 100 100 100
100 100 100 100 100 100 100 100 100 100 100 100 100 100 100 100 100 100 100 100 100 100 100 100 100 100 100 100 100 100 100 100 100 100 100 100 94 88 100 100 90 100 100
100 100 100 100 100 100 100 100 100 100 100 100 100 100 100 100 100 100 100 100 84 100 100 100 100 100 100 100 100 100 100 100 100 100 100 100 100 100 100 94 95 100 100
0 8 80 100 100 100 100 100 100 100 100 100 100 100 100 100 100 100 100 100 100 100 100 100 100 100 100 100 100 100 100 100 100 100 100 100 100 100 100 100 100 100 100
5 42 13 5 44 94 100 100 100 100 100 100 100 100 100 100 100 100 100 100 100 100 100 100 100 100 98 100 100 100 100 100 100 100 98 100 100 100 100 100 100 100 100
0 2 78 98 24 5 17 99 100 100 100 89 100 87 100 89 100 97 100 100 100 100 92 37 7 0 2 39 91 95 100 100 100 100 100 100 100 100 100 100 100 100 100
10 23 81 97 84 34 34 5 5 32 28 11 6 5 5 6 1 1 5 5 5 5 5 5 5 5 5 5 5 5 5 5 5 5 30 81 99 100 100 100 100 100 100
11 5 2 5 6 31 62 74 76 35 6 15 90 80 100 85 29 5 5 5 9 42 7 54 57 67 56 65 54 15 5 5 5 5 53 95 88 78 98 80 33 35 49